Wetterdaten: Freitag, 15.09.2017
Datum Zeit Temp. A. Pool Temp. Feuchte A. Luftdruck Regen Wind Richtung Richtung Sonnenschein ET UV Solar Taupunkt Windchill Windben Empfang
15.09.2017 00:00 11,3 C 16,1 C 72 % 1014,6 hPa 0,0 l/m 17,3 km/h (3 Bft) W-SW 258 0 min 0,000 mm 0,0 UV-I 0 W/m 6,4 C 5,9 C 29,0 km/h (5 Bft) 96,36 %
15.09.2017 00:02 11,3 C 16,1 C 72 % 1014,6 hPa 0,0 l/m 18,1 km/h (3 Bft) W-SW 254 0 min 0,000 mm 0,0 UV-I 0 W/m 6,4 C 5,6 C 24,1 km/h (4 Bft) 9,52 %
15.09.2017 00:04 11,2 C 16,1 C 72 % 1014,7 hPa 0,0 l/m 13,0 km/h (3 Bft) W 270 0 min 0,000 mm 0,0 UV-I 0 W/m 6,3 C 7,4 C 32,2 km/h (5 Bft) 93,33 %
15.09.2017 00:06 11,2 C 16,1 C 72 % 1014,6 hPa 0,0 l/m 15,9 km/h (3 Bft) SW 232 0 min 0,000 mm 0,0 UV-I 0 W/m 6,3 C 6,2 C 25,7 km/h (4 Bft) 95,12 %
15.09.2017 00:08 11,2 C 16,1 C 72 % 1014,6 hPa 0,0 l/m 20,7 km/h (4 Bft) SW 231 0 min 0,000 mm 0,0 UV-I 0 W/m 6,3 C 4,6 C 33,8 km/h (5 Bft) 98,11 %
15.09.2017 00:10 11,2 C 16,1 C 72 % 1014,6 hPa 0,0 l/m 20,7 km/h (4 Bft) SW 230 0 min 0,000 mm 0,0 UV-I 0 W/m 6,3 C 4,6 C 30,6 km/h (5 Bft) 97,56 %
15.09.2017 00:12 11,2 C 16,1 C 72 % 1014,6 hPa 0,0 l/m 15,0 km/h (3 Bft) SW 227 0 min 0,000 mm 0,0 UV-I 0 W/m 6,3 C 6,6 C 25,7 km/h (4 Bft) 97,73 %
15.09.2017 00:14 11,1 C 16,1 C 73 % 1014,6 hPa 0,0 l/m 17,0 km/h (3 Bft) W-SW 250 0 min 0,000 mm 0,0 UV-I 0 W/m 6,4 C 5,7 C 25,7 km/h (4 Bft) 96,23 %
15.09.2017 00:16 11,1 C 16,1 C 73 % 1014,6 hPa 0,0 l/m 17,8 km/h (3 Bft) SW 234 0 min 0,000 mm 0,0 UV-I 0 W/m 6,4 C 5,4 C 32,2 km/h (5 Bft) 98,00 %
15.09.2017 00:18 11,1 C 16,1 C 73 % 1014,7 hPa 0,0 l/m 19,9 km/h (4 Bft) SW 223 0 min 0,000 mm 0,0 UV-I 0 W/m 6,4 C 4,7 C 27,4 km/h (4 Bft) 97,37 %
15.09.2017 00:20 11,1 C 16,1 C 73 % 1014,7 hPa 0,0 l/m 18,5 km/h (3 Bft) W-SW 254 0 min 0,000 mm 0,0 UV-I 0 W/m 6,4 C 5,2 C 27,4 km/h (4 Bft) 97,87 %
15.09.2017 00:22 11,1 C 16,1 C 73 % 1014,7 hPa 0,0 l/m 19,2 km/h (3 Bft) SW 217 0 min 0,000 mm 0,0 UV-I 0 W/m 6,4 C 5,0 C 27,4 km/h (4 Bft) 98,00 %
15.09.2017 00:24 11,0 C 16,1 C 73 % 1014,6 hPa 0,0 l/m 20,8 km/h (4 Bft) W-SW 240 0 min 0,000 mm 0,0 UV-I 0 W/m 6,4 C 4,3 C 30,6 km/h (5 Bft) 98,11 %
15.09.2017 00:26 11,0 C 16,1 C 73 % 1014,6 hPa 0,0 l/m 23,2 km/h (4 Bft) SW 220 0 min 0,000 mm 0,0 UV-I 0 W/m 6,4 C 3,7 C 33,8 km/h (5 Bft) 97,37 %
15.09.2017 00:28 11,0 C 16,1 C 73 % 1014,6 hPa 0,0 l/m 17,7 km/h (3 Bft) W-SW 258 0 min 0,000 mm 0,0 UV-I 0 W/m 6,4 C 5,3 C 32,2 km/h (5 Bft) 97,87 %
15.09.2017 00:30 11,0 C 16,1 C 72 % 1014,6 hPa 0,0 l/m 21,1 km/h (4 Bft) W-SW 244 0 min 0,000 mm 0,0 UV-I 0 W/m 6,2 C 4,2 C 30,6 km/h (5 Bft) 97,87 %
15.09.2017 00:32 11,0 C 16,1 C 73 % 1014,6 hPa 0,0 l/m 20,1 km/h (4 Bft) W 275 0 min 0,000 mm 0,0 UV-I 0 W/m 6,4 C 4,5 C 37,0 km/h (5 Bft) 94,00 %
15.09.2017 00:34 11,0 C 16,1 C 73 % 1014,6 hPa 0,0 l/m 21,3 km/h (4 Bft) W-SW 253 0 min 0,000 mm 0,0 UV-I 0 W/m 6,4 C 4,2 C 32,2 km/h (5 Bft) 100,00 %
15.09.2017 00:36 11,0 C 16,1 C 73 % 1014,6 hPa 0,0 l/m 17,9 km/h (3 Bft) W-SW 243 0 min 0,000 mm 0,0 UV-I 0 W/m 6,4 C 5,3 C 32,2 km/h (5 Bft) 100,00 %
15.09.2017 00:38 10,9 C 16,1 C 73 % 1014,6 hPa 0,0 l/m 25,3 km/h (4 Bft) SW 219 0 min 0,000 mm 0,0 UV-I 0 W/m 6,3 C 3,0 C 37,0 km/h (5 Bft) 100,00 %
15.09.2017 00:40 10,9 C 16,1 C 73 % 1014,7 hPa 0,0 l/m 20,5 km/h (4 Bft) SW 234 0 min 0,000 mm 0,0 UV-I 0 W/m 6,3 C 4,3 C 29,0 km/h (5 Bft) 97,78 %
15.09.2017 00:42 10,9 C 16,1 C 73 % 1014,6 hPa 0,0 l/m 19,1 km/h (3 Bft) SW 218 0 min 0,000 mm 0,0 UV-I 0 W/m 6,3 C 4,7 C 32,2 km/h (5 Bft) 100,00 %
15.09.2017 00:44 10,9 C 16,1 C 73 % 1014,6 hPa 0,0 l/m 20,4 km/h (4 Bft) W-SW 251 0 min 0,000 mm 0,0 UV-I 0 W/m 6,3 C 4,3 C 33,8 km/h (5 Bft) 97,92 %
15.09.2017 00:46 10,9 C 16,1 C 73 % 1014,7 hPa 0,0 l/m 18,0 km/h (3 Bft) W-SW 253 0 min 0,000 mm 0,0 UV-I 0 W/m 6,3 C 5,1 C 25,7 km/h (4 Bft) 100,00 %
15.09.2017 00:48 10,9 C 16,1 C 73 % 1014,6 hPa 0,0 l/m 21,7 km/h (4 Bft) W 265 0 min 0,000 mm 0,0 UV-I 0 W/m 6,3 C 3,9 C 35,4 km/h (5 Bft) 98,21 %
15.09.2017 00:50 10,9 C 16,1 C 73 % 1014,6 hPa 0,0 l/m 30,3 km/h (5 Bft) W 263 0 min 0,000 mm 0,0 UV-I 0 W/m 6,3 C 1,9 C 49,9 km/h (6 Bft) 100,00 %
15.09.2017 00:52 10,9 C 16,1 C 72 % 1014,7 hPa 0,0 l/m 21,8 km/h (4 Bft) W-NW 287 0 min 0,000 mm 0,0 UV-I 0 W/m 6,1 C 3,9 C 35,4 km/h (5 Bft) 97,56 %
15.09.2017 00:54 10,9 C 16,1 C 72 % 1014,7 hPa 0,0 l/m 18,7 km/h (3 Bft) SW 234 0 min 0,000 mm 0,0 UV-I 0 W/m 6,1 C 4,9 C 27,4 km/h (4 Bft) 100,00 %
15.09.2017 00:56 10,9 C 16,1 C 72 % 1014,7 hPa 0,0 l/m 22,1 km/h (4 Bft) S-SW 207 0 min 0,000 mm 0,0 UV-I 0 W/m 6,1 C 3,8 C 37,0 km/h (5 Bft) 100,00 %
15.09.2017 00:58 11,0 C 16,1 C 71 % 1014,6 hPa 0,0 l/m 25,2 km/h (4 Bft) SW 227 0 min 0,000 mm 0,0 UV-I 0 W/m 5,9 C 3,1 C 43,5 km/h (6 Bft) 100,00 %
15.09.2017 01:00 11,1 C 16,1 C 71 % 1014,6 hPa 0,0 l/m 27,9 km/h (4 Bft) SW 229 0 min 0,051 mm 0,0 UV-I 0 W/m 6,0 C 2,6 C 46,7 km/h (6 Bft) 97,14 %
15.09.2017 01:02 11,2 C 16,1 C 71 % 1014,7 hPa 0,0 l/m 24,4 km/h (4 Bft) W-SW 245 0 min 0,000 mm 0,0 UV-I 0 W/m 6,1 C 3,6 C 41,8 km/h (6 Bft) 98,21 %
15.09.2017 01:04 11,2 C 16,1 C 71 % 1014,6 hPa 0,0 l/m 29,1 km/h (5 Bft) SW 222 0 min 0,000 mm 0,0 UV-I 0 W/m 6,1 C 2,5 C 40,2 km/h (6 Bft) 100,00 %
15.09.2017 01:06 11,2 C 16,1 C 71 % 1014,7 hPa 0,0 l/m 21,8 km/h (4 Bft) SW 221 0 min 0,000 mm 0,0 UV-I 0 W/m 6,1 C 4,3 C 33,8 km/h (5 Bft) 100,00 %
15.09.2017 01:08 11,2 C 16,1 C 71 % 1014,6 hPa 0,0 l/m 20,5 km/h (4 Bft) W 275 0 min 0,000 mm 0,0 UV-I 0 W/m 6,1 C 4,7 C 33,8 km/h (5 Bft) 100,00 %
15.09.2017 01:10 11,2 C 16,1 C 71 % 1014,6 hPa 0,0 l/m 19,0 km/h (3 Bft) W-SW 243 0 min 0,000 mm 0,0 UV-I 0 W/m 6,1 C 5,2 C 27,4 km/h (4 Bft) 100,00 %
15.09.2017 01:12 11,2 C 16,1 C 71 % 1014,6 hPa 0,0 l/m 21,8 km/h (4 Bft) W 278 0 min 0,000 mm 0,0 UV-I 0 W/m 6,1 C 4,3 C 33,8 km/h (5 Bft) 97,37 %
15.09.2017 01:14 11,2 C 16,1 C 71 % 1014,6 hPa 0,0 l/m 20,1 km/h (4 Bft) SW 230 0 min 0,000 mm 0,0 UV-I 0 W/m 6,1 C 4,8 C 27,4 km/h (4 Bft) 98,11 %
15.09.2017 01:16 11,1 C 16,1 C 71 % 1014,6 hPa 0,0 l/m 24,8 km/h (4 Bft) W 261 0 min 0,000 mm 0,0 UV-I 0 W/m 6,0 C 3,4 C 41,8 km/h (6 Bft) 100,00 %
15.09.2017 01:18 11,1 C 16,1 C 71 % 1014,6 hPa 0,0 l/m 22,8 km/h (4 Bft) W-SW 252 0 min 0,000 mm 0,0 UV-I 0 W/m 6,0 C 3,9 C 33,8 km/h (5 Bft) 100,00 %
15.09.2017 01:20 11,1 C 16,1 C 71 % 1014,6 hPa 0,0 l/m 21,8 km/h (4 Bft) W-SW 254 0 min 0,000 mm 0,0 UV-I 0 W/m 6,0 C 4,2 C 40,2 km/h (6 Bft) 100,00 %
15.09.2017 01:22 11,1 C 16,1 C 71 % 1014,6 hPa 0,0 l/m 22,5 km/h (4 Bft) SW 227 0 min 0,000 mm 0,0 UV-I 0 W/m 6,0 C 4,0 C 35,4 km/h (5 Bft) 94,44 %
15.09.2017 01:24 11,1 C 16,1 C 71 % 1014,6 hPa 0,0 l/m 21,8 km/h (4 Bft) SW 222 0 min 0,000 mm 0,0 UV-I 0 W/m 6,0 C 4,2 C 33,8 km/h (5 Bft) 98,04 %
15.09.2017 01:26 11,1 C 16,1 C 71 % 1014,6 hPa 0,0 l/m 24,0 km/h (4 Bft) W-SW 241 0 min 0,000 mm 0,0 UV-I 0 W/m 6,0 C 3,6 C 41,8 km/h (6 Bft) 100,00 %
15.09.2017 01:28 11,1 C 16,1 C 71 % 1014,6 hPa 0,0 l/m 25,0 km/h (4 Bft) W-SW 257 0 min 0,000 mm 0,0 UV-I 0 W/m 6,0 C 3,3 C 43,5 km/h (6 Bft) 100,00 %
15.09.2017 01:30 11,1 C 16,1 C 70 % 1014,6 hPa 0,0 l/m 28,1 km/h (4 Bft) W-SW 257 0 min 0,000 mm 0,0 UV-I 0 W/m 5,8 C 2,6 C 43,5 km/h (6 Bft) 98,11 %
15.09.2017 01:32 11,1 C 16,1 C 70 % 1014,6 hPa 0,0 l/m 26,2 km/h (4 Bft) W-SW 246 0 min 0,000 mm 0,0 UV-I 0 W/m 5,8 C 3,0 C 41,8 km/h (6 Bft) 100,00 %
15.09.2017 01:34 11,2 C 16,1 C 70 % 1014,6 hPa 0,0 l/m 28,9 km/h (5 Bft) W-SW 253 0 min 0,000 mm 0,0 UV-I 0 W/m 5,9 C 2,6 C 45,1 km/h (6 Bft) 97,56 %
15.09.2017 01:36 11,1 C 16,1 C 70 % 1014,6 hPa 0,0 l/m 26,3 km/h (4 Bft) SW 220 0 min 0,000 mm 0,0 UV-I 0 W/m 5,8 C 3,0 C 48,3 km/h (6 Bft) 100,00 %
15.09.2017 01:38 11,2 C 16,1 C 70 % 1014,6 hPa 0,0 l/m 27,0 km/h (4 Bft) S-SW 201 0 min 0,000 mm 0,0 UV-I 0 W/m 5,9 C 3,0 C 37,0 km/h (5 Bft) 97,56 %
15.09.2017 01:40 11,2 C 16,1 C 70 % 1014,7 hPa 0,0 l/m 26,5 km/h (4 Bft) SW 222 0 min 0,000 mm 0,0 UV-I 0 W/m 5,9 C 3,1 C 40,2 km/h (6 Bft) 100,00 %
15.09.2017 01:42 11,2 C 16,1 C 70 % 1014,6 hPa 0,0 l/m 23,9 km/h (4 Bft) W-SW 241 0 min 0,000 mm 0,0 UV-I 0 W/m 5,9 C 3,7 C 37,0 km/h (5 Bft) 100,00 %
15.09.2017 01:44 11,2 C 16,1 C 70 % 1014,6 hPa 0,0 l/m 22,2 km/h (4 Bft) W-SW 245 0 min 0,000 mm 0,0 UV-I 0 W/m 5,9 C 4,2 C 32,2 km/h (5 Bft) 100,00 %
15.09.2017 01:46 11,2 C 16,1 C 70 % 1014,7 hPa 0,0 l/m 25,8 km/h (4 Bft) W-SW 245 0 min 0,000 mm 0,0 UV-I 0 W/m 5,9 C 3,3 C 35,4 km/h (5 Bft) 100,00 %
15.09.2017 01:48 11,1 C 16,1 C 70 % 1014,8 hPa 0,0 l/m 20,5 km/h (4 Bft) W-SW 241 0 min 0,000 mm 0,0 UV-I 0 W/m 5,8 C 4,6 C 32,2 km/h (5 Bft) 100,00 %
15.09.2017 01:50 11,1 C 16,1 C 70 % 1014,7 hPa 0,0 l/m 21,5 km/h (4 Bft) W 267 0 min 0,000 mm 0,0 UV-I 0 W/m 5,8 C 4,3 C 33,8 km/h (5 Bft) 98,11 %
15.09.2017 01:52 11,1 C 16,1 C 70 % 1014,8 hPa 0,0 l/m 20,6 km/h (4 Bft) W-SW 245 0 min 0,000 mm 0,0 UV-I 0 W/m 5,8 C 4,5 C 38,6 km/h (5 Bft) 100,00 %
15.09.2017 01:54 11,0 C 16,1 C 71 % 1014,9 hPa 0,0 l/m 18,6 km/h (3 Bft) W 261 0 min 0,000 mm 0,0 UV-I 0 W/m 5,9 C 5,0 C 32,2 km/h (5 Bft) 100,00 %
15.09.2017 01:56 10,9 C 16,1 C 71 % 1014,9 hPa 0,0 l/m 22,9 km/h (4 Bft) W-SW 248 0 min 0,000 mm 0,0 UV-I 0 W/m 5,9 C 3,6 C 40,2 km/h (6 Bft) 98,00 %
15.09.2017 01:58 10,9 C 16,1 C 70 % 1014,9 hPa 0,0 l/m 23,3 km/h (4 Bft) W-SW 254 0 min 0,000 mm 0,0 UV-I 0 W/m 5,6 C 3,5 C 33,8 km/h (5 Bft) 100,00 %
15.09.2017 02:00 10,9 C 16,1 C 70 % 1014,9 hPa 0,0 l/m 21,2 km/h (4 Bft) W 272 0 min 0,000 mm 0,0 UV-I 0 W/m 5,6 C 4,1 C 38,6 km/h (5 Bft) 100,00 %
15.09.2017 02:02 10,9 C 16,1 C 70 % 1015,1 hPa 0,0 l/m 17,8 km/h (3 Bft) W-SW 250 0 min 0,076 mm 0,0 UV-I 0 W/m 5,6 C 5,2 C 25,7 km/h (4 Bft) 100,00 %
15.09.2017 02:04 10,9 C 16,1 C 71 % 1015,1 hPa 0,0 l/m 18,0 km/h (3 Bft) W-SW 252 0 min 0,000 mm 0,0 UV-I 0 W/m 5,9 C 5,1 C 30,6 km/h (5 Bft) 100,00 %
15.09.2017 02:06 10,9 C 16,1 C 71 % 1015,1 hPa 0,0 l/m 16,0 km/h (3 Bft) S-SW 192 0 min 0,000 mm 0,0 UV-I 0 W/m 5,9 C 5,8 C 25,7 km/h (4 Bft) 97,56 %
15.09.2017 02:08 10,8 C 16,1 C 71 % 1015,2 hPa 0,0 l/m 16,9 km/h (3 Bft) W-SW 257 0 min 0,000 mm 0,0 UV-I 0 W/m 5,8 C 5,4 C 25,7 km/h (4 Bft) 97,37 %
15.09.2017 02:10 10,8 C 16,1 C 71 % 1015,2 hPa 0,0 l/m 16,2 km/h (3 Bft) W 261 0 min 0,000 mm 0,0 UV-I 0 W/m 5,8 C 5,6 C 27,4 km/h (4 Bft) 98,00 %
15.09.2017 02:12 10,8 C 16,1 C 71 % 1015,1 hPa 0,0 l/m 16,9 km/h (3 Bft) W 263 0 min 0,000 mm 0,0 UV-I 0 W/m 5,8 C 5,4 C 27,4 km/h (4 Bft) 98,08 %
15.09.2017 02:14 10,8 C 16,1 C 71 % 1015,2 hPa 0,0 l/m 16,3 km/h (3 Bft) S-SW 213 0 min 0,000 mm 0,0 UV-I 0 W/m 5,8 C 5,6 C 24,1 km/h (4 Bft) 98,00 %
15.09.2017 02:16 10,8 C 16,1 C 71 % 1015,1 hPa 0,0 l/m 14,8 km/h (3 Bft) W 277 0 min 0,000 mm 0,0 UV-I 0 W/m 5,8 C 6,2 C 25,7 km/h (4 Bft) 93,18 %
15.09.2017 02:18 10,8 C 16,1 C 71 % 1015,2 hPa 0,0 l/m 16,3 km/h (3 Bft) S-SW 195 0 min 0,000 mm 0,0 UV-I 0 W/m 5,8 C 5,6 C 27,4 km/h (4 Bft) 97,56 %
15.09.2017 02:20 10,8 C 16,1 C 71 % 1015,2 hPa 0,0 l/m 20,3 km/h (4 Bft) W-SW 256 0 min 0,000 mm 0,0 UV-I 0 W/m 5,8 C 4,2 C 30,6 km/h (5 Bft) 96,23 %
15.09.2017 02:22 10,8 C 16,1 C 71 % 1015,2 hPa 0,0 l/m 18,1 km/h (3 Bft) SW 229 0 min 0,000 mm 0,0 UV-I 0 W/m 5,8 C 4,9 C 25,7 km/h (4 Bft) 97,56 %
15.09.2017 02:24 10,7 C 16,1 C 71 % 1015,2 hPa 0,0 l/m 13,8 km/h (3 Bft) SW 215 0 min 0,000 mm 0,0 UV-I 0 W/m 5,7 C 6,5 C 22,5 km/h (4 Bft) 97,73 %
15.09.2017 02:26 10,7 C 16,1 C 71 % 1015,1 hPa 0,0 l/m 18,9 km/h (3 Bft) SW 234 0 min 0,000 mm 0,0 UV-I 0 W/m 5,7 C 4,5 C 29,0 km/h (5 Bft) 96,00 %
15.09.2017 02:28 10,7 C 16,1 C 71 % 1015,2 hPa 0,0 l/m 18,1 km/h (3 Bft) W-SW 238 0 min 0,000 mm 0,0 UV-I 0 W/m 5,7 C 4,8 C 24,1 km/h (4 Bft) 97,44 %
15.09.2017 02:30 10,7 C 16,1 C 71 % 1015,2 hPa 0,0 l/m 19,0 km/h (3 Bft) W-SW 240 0 min 0,000 mm 0,0 UV-I 0 W/m 5,7 C 4,5 C 25,7 km/h (4 Bft) 98,18 %
15.09.2017 02:32 10,7 C 16,1 C 71 % 1015,2 hPa 0,0 l/m 17,2 km/h (3 Bft) SW 234 0 min 0,000 mm 0,0 UV-I 0 W/m 5,7 C 5,1 C 27,4 km/h (4 Bft) 92,86 %
15.09.2017 02:34 10,6 C 16,1 C 71 % 1015,2 hPa 0,0 l/m 18,9 km/h (3 Bft) SW 232 0 min 0,000 mm 0,0 UV-I 0 W/m 5,6 C 4,4 C 25,7 km/h (4 Bft) 100,00 %
15.09.2017 02:36 10,6 C 16,1 C 71 % 1015,2 hPa 0,0 l/m 17,4 km/h (3 Bft) W 259 0 min 0,000 mm 0,0 UV-I 0 W/m 5,6 C 4,9 C 24,1 km/h (4 Bft) 92,45 %
15.09.2017 02:38 10,6 C 16,1 C 71 % 1015,1 hPa 0,0 l/m 18,8 km/h (3 Bft) S-SW 200 0 min 0,000 mm 0,0 UV-I 0 W/m 5,6 C 4,5 C 29,0 km/h (5 Bft) 95,24 %
15.09.2017 02:40 10,6 C 16,1 C 71 % 1015,1 hPa 0,0 l/m 17,4 km/h (3 Bft) W-SW 243 0 min 0,000 mm 0,0 UV-I 0 W/m 5,6 C 4,9 C 30,6 km/h (5 Bft) 97,87 %
15.09.2017 02:42 10,6 C 16,1 C 71 % 1015,1 hPa 0,0 l/m 20,3 km/h (4 Bft) W-SW 258 0 min 0,000 mm 0,0 UV-I 0 W/m 5,6 C 4,0 C 29,0 km/h (5 Bft) 98,21 %
15.09.2017 02:44 10,6 C 16,1 C 71 % 1015,2 hPa 0,0 l/m 19,4 km/h (3 Bft) W-SW 246 0 min 0,000 mm 0,0 UV-I 0 W/m 5,6 C 4,3 C 33,8 km/h (5 Bft) 97,56 %
15.09.2017 02:46 10,6 C 16,1 C 71 % 1015,2 hPa 0,0 l/m 15,4 km/h (3 Bft) SW 235 0 min 0,000 mm 0,0 UV-I 0 W/m 5,6 C 5,7 C 19,3 km/h (3 Bft) 97,56 %
15.09.2017 02:48 10,6 C 16,1 C 71 % 1015,1 hPa 0,0 l/m 17,7 km/h (3 Bft) W-SW 252 0 min 0,000 mm 0,0 UV-I 0 W/m 5,6 C 4,8 C 25,7 km/h (4 Bft) 98,00 %
15.09.2017 02:50 10,6 C 16,1 C 71 % 1015,1 hPa 0,0 l/m 18,4 km/h (3 Bft) W-SW 252 0 min 0,000 mm 0,0 UV-I 0 W/m 5,6 C 4,6 C 27,4 km/h (4 Bft) 97,73 %
15.09.2017 02:52 10,6 C 16,1 C 71 % 1015,1 hPa 0,0 l/m 17,1 km/h (3 Bft) W-SW 239 0 min 0,000 mm 0,0 UV-I 0 W/m 5,6 C 5,0 C 27,4 km/h (4 Bft) 98,21 %
15.09.2017 02:54 10,6 C 16,1 C 71 % 1015,1 hPa 0,0 l/m 18,2 km/h (3 Bft) W-SW 250 0 min 0,000 mm 0,0 UV-I 0 W/m 5,6 C 4,7 C 24,1 km/h (4 Bft) 97,56 %
15.09.2017 02:56 10,6 C 16,1 C 71 % 1015,1 hPa 0,0 l/m 17,6 km/h (3 Bft) SW 219 0 min 0,000 mm 0,0 UV-I 0 W/m 5,6 C 4,9 C 22,5 km/h (4 Bft) 96,00 %
15.09.2017 02:58 10,6 C 16,1 C 71 % 1015,0 hPa 0,0 l/m 19,8 km/h (3 Bft) W-SW 249 0 min 0,000 mm 0,0 UV-I 0 W/m 5,6 C 4,1 C 29,0 km/h (5 Bft) 98,00 %
15.09.2017 03:00 10,6 C 16,1 C 71 % 1015,0 hPa 0,0 l/m 18,8 km/h (3 Bft) W-SW 244 0 min 0,051 mm 0,0 UV-I 0 W/m 5,6 C 4,5 C 25,7 km/h (4 Bft) 97,37 %
15.09.2017 03:02 10,6 C 16,1 C 71 % 1015,0 hPa 0,0 l/m 18,3 km/h (3 Bft) W-SW 245 0 min 0,000 mm 0,0 UV-I 0 W/m 5,6 C 4,6 C 27,4 km/h (4 Bft) 98,21 %
15.09.2017 03:04 10,6 C 16,1 C 71 % 1015,0 hPa 0,0 l/m 19,4 km/h (3 Bft) SW 215 0 min 0,000 mm 0,0 UV-I 0 W/m 5,6 C 4,3 C 30,6 km/h (5 Bft) 94,74 %
15.09.2017 03:06 10,5 C 16,1 C 71 % 1015,0 hPa 0,0 l/m 18,8 km/h (3 Bft) SW 219 0 min 0,000 mm 0,0 UV-I 0 W/m 5,5 C 4,3 C 32,2 km/h (5 Bft) 98,11 %
15.09.2017 03:08 10,5 C 16,1 C 71 % 1015,0 hPa 0,0 l/m 16,9 km/h (3 Bft) W 266 0 min 0,000 mm 0,0 UV-I 0 W/m 5,5 C 5,0 C 25,7 km/h (4 Bft) 98,00 %
15.09.2017 03:10 10,5 C 16,1 C 71 % 1015,0 hPa 0,0 l/m 19,2 km/h (3 Bft) W-SW 240 0 min 0,000 mm 0,0 UV-I 0 W/m 5,5 C 4,2 C 27,4 km/h (4 Bft) 97,87 %
15.09.2017 03:12 10,5 C 16,1 C 71 % 1014,9 hPa 0,0 l/m 19,7 km/h (3 Bft) W-SW 250 0 min 0,000 mm 0,0 UV-I 0 W/m 5,5 C 4,0 C 30,6 km/h (5 Bft) 97,37 %
15.09.2017 03:14 10,5 C 16,1 C 71 % 1014,9 hPa 0,0 l/m 18,1 km/h (3 Bft) W-SW 253 0 min 0,000 mm 0,0 UV-I 0 W/m 5,5 C 4,6 C 27,4 km/h (4 Bft) 95,83 %
15.09.2017 03:16 10,5 C 16,1 C 71 % 1014,9 hPa 0,0 l/m 19,3 km/h (3 Bft) S-SW 213 0 min 0,000 mm 0,0 UV-I 0 W/m 5,5 C 4,2 C 24,1 km/h (4 Bft) 96,15 %
15.09.2017 03:18 10,5 C 16,1 C 71 % 1015,0 hPa 0,0 l/m 19,8 km/h (3 Bft) SW 223 0 min 0,000 mm 0,0 UV-I 0 W/m 5,5 C 4,0 C 30,6 km/h (5 Bft) 95,56 %
15.09.2017 03:20 10,5 C 16,1 C 71 % 1014,9 hPa 0,0 l/m 21,4 km/h (4 Bft) S-SW 202 0 min 0,000 mm 0,0 UV-I 0 W/m 5,5 C 3,5 C 30,6 km/h (5 Bft) 97,56 %
15.09.2017 03:22 10,5 C 16,1 C 71 % 1014,9 hPa 0,0 l/m 18,3 km/h (3 Bft) SW 236 0 min 0,000 mm 0,0 UV-I 0 W/m 5,5 C 4,5 C 25,7 km/h (4 Bft) 98,00 %
15.09.2017 03:24 10,5 C 16,1 C 71 % 1014,9 hPa 0,0 l/m 18,5 km/h (3 Bft) W 267 0 min 0,000 mm 0,0 UV-I 0 W/m 5,5 C 4,4 C 29,0 km/h (5 Bft) 96,00 %
15.09.2017 03:26 10,5 C 16,1 C 71 % 1015,0 hPa 0,0 l/m 21,4 km/h (4 Bft) W-SW 241 0 min 0,000 mm 0,0 UV-I 0 W/m 5,5 C 3,5 C 32,2 km/h (5 Bft) 97,87 %
15.09.2017 03:28 10,5 C 16,1 C 71 % 1014,9 hPa 0,0 l/m 19,4 km/h (3 Bft) W-SW 253 0 min 0,000 mm 0,0 UV-I 0 W/m 5,5 C 4,1 C 35,4 km/h (5 Bft) 97,87 %
15.09.2017 03:30 10,5 C 16,1 C 71 % 1015,0 hPa 0,0 l/m 16,5 km/h (3 Bft) W 262 0 min 0,000 mm 0,0 UV-I 0 W/m 5,5 C 5,1 C 24,1 km/h (4 Bft) 95,12 %
15.09.2017 03:32 10,5 C 16,1 C 71 % 1015,0 hPa 0,0 l/m 16,6 km/h (3 Bft) SW 236 0 min 0,000 mm 0,0 UV-I 0 W/m 5,5 C 5,1 C 27,4 km/h (4 Bft) 97,62 %
15.09.2017 03:34 10,5 C 16,1 C 71 % 1015,0 hPa 0,0 l/m 18,9 km/h (3 Bft) W-SW 244 0 min 0,000 mm 0,0 UV-I 0 W/m 5,5 C 4,3 C 27,4 km/h (4 Bft) 98,00 %
15.09.2017 03:36 10,5 C 16,1 C 71 % 1015,1 hPa 0,0 l/m 19,2 km/h (3 Bft) S-SW 202 0 min 0,000 mm 0,0 UV-I 0 W/m 5,5 C 4,2 C 25,7 km/h (4 Bft) 97,56 %
15.09.2017 03:38 10,5 C 16,1 C 71 % 1015,1 hPa 0,0 l/m 16,0 km/h (3 Bft) SW 236 0 min 0,000 mm 0,0 UV-I 0 W/m 5,5 C 5,3 C 22,5 km/h (4 Bft) 100,00 %
15.09.2017 03:40 10,5 C 16,1 C 71 % 1015,1 hPa 0,0 l/m 19,2 km/h (3 Bft) SW 214 0 min 0,000 mm 0,0 UV-I 0 W/m 5,5 C 4,2 C 29,0 km/h (5 Bft) 100,00 %
15.09.2017 03:42 10,5 C 16,1 C 71 % 1015,1 hPa 0,0 l/m 16,8 km/h (3 Bft) W-SW 251 0 min 0,000 mm 0,0 UV-I 0 W/m 5,5 C 5,0 C 22,5 km/h (4 Bft) 94,64 %
15.09.2017 03:44 10,5 C 16,1 C 71 % 1015,1 hPa 0,0 l/m 17,7 km/h (3 Bft) W-SW 245 0 min 0,000 mm 0,0 UV-I 0 W/m 5,5 C 4,7 C 25,7 km/h (4 Bft) 100,00 %
15.09.2017 03:46 10,5 C 16,1 C 71 % 1015,2 hPa 0,0 l/m 20,7 km/h (4 Bft) SW 232 0 min 0,000 mm 0,0 UV-I 0 W/m 5,5 C 3,7 C 33,8 km/h (5 Bft) 100,00 %
15.09.2017 03:48 10,5 C 16,1 C 71 % 1015,2 hPa 0,0 l/m 20,3 km/h (4 Bft) W-SW 254 0 min 0,000 mm 0,0 UV-I 0 W/m 5,5 C 3,8 C 32,2 km/h (5 Bft) 100,00 %
15.09.2017 03:50 10,6 C 16,1 C 71 % 1015,2 hPa 0,0 l/m 17,9 km/h (3 Bft) W-SW 255 0 min 0,000 mm 0,0 UV-I 0 W/m 5,6 C 4,8 C 29,0 km/h (5 Bft) 100,00 %
15.09.2017 03:52 10,6 C 16,1 C 71 % 1015,2 hPa 0,0 l/m 18,5 km/h (3 Bft) SW 220 0 min 0,000 mm 0,0 UV-I 0 W/m 5,6 C 4,6 C 27,4 km/h (4 Bft) 100,00 %
15.09.2017 03:54 10,6 C 16,1 C 71 % 1015,3 hPa 0,0 l/m 16,8 km/h (3 Bft) W-SW 257 0 min 0,000 mm 0,0 UV-I 0 W/m 5,6 C 5,2 C 29,0 km/h (5 Bft) 100,00 %
15.09.2017 03:56 10,6 C 16,1 C 71 % 1015,3 hPa 0,0 l/m 17,5 km/h (3 Bft) W-SW 241 0 min 0,000 mm 0,0 UV-I 0 W/m 5,6 C 4,9 C 27,4 km/h (4 Bft) 100,00 %
15.09.2017 03:58 10,6 C 16,1 C 71 % 1015,3 hPa 0,0 l/m 17,0 km/h (3 Bft) W-SW 251 0 min 0,000 mm 0,0 UV-I 0 W/m 5,6 C 5,1 C 22,5 km/h (4 Bft) 100,00 %
15.09.2017 04:00 10,6 C 15,6 C 70 % 1015,4 hPa 0,0 l/m 16,4 km/h (3 Bft) W-SW 258 0 min 0,051 mm 0,0 UV-I 0 W/m 5,4 C 5,3 C 22,5 km/h (4 Bft) 97,56 %
15.09.2017 04:02 10,6 C 15,6 C 71 % 1015,4 hPa 0,0 l/m 16,4 km/h (3 Bft) W 267 0 min 0,000 mm 0,0 UV-I 0 W/m 5,6 C 5,3 C 24,1 km/h (4 Bft) 100,00 %
15.09.2017 04:04 10,6 C 15,6 C 70 % 1015,4 hPa 0,0 l/m 19,4 km/h (3 Bft) SW 221 0 min 0,000 mm 0,0 UV-I 0 W/m 5,4 C 4,3 C 29,0 km/h (5 Bft) 100,00 %
15.09.2017 04:06 10,7 C 15,6 C 70 % 1015,4 hPa 0,0 l/m 17,2 km/h (3 Bft) SW 229 0 min 0,000 mm 0,0 UV-I 0 W/m 5,5 C 5,1 C 25,7 km/h (4 Bft) 97,37 %
15.09.2017 04:08 10,7 C 15,6 C 70 % 1015,5 hPa 0,0 l/m 16,4 km/h (3 Bft) SW 224 0 min 0,000 mm 0,0 UV-I 0 W/m 5,5 C 5,4 C 24,1 km/h (4 Bft) 100,00 %
15.09.2017 04:10 10,7 C 15,6 C 70 % 1015,5 hPa 0,0 l/m 17,5 km/h (3 Bft) SW 232 0 min 0,000 mm 0,0 UV-I 0 W/m 5,5 C 5,0 C 27,4 km/h (4 Bft) 97,37 %
15.09.2017 04:12 10,7 C 15,6 C 70 % 1015,5 hPa 0,0 l/m 19,5 km/h (3 Bft) W-SW 242 0 min 0,000 mm 0,0 UV-I 0 W/m 5,5 C 4,4 C 32,2 km/h (5 Bft) 98,00 %
15.09.2017 04:14 10,7 C 15,6 C 70 % 1015,5 hPa 0,0 l/m 12,4 km/h (3 Bft) SW 233 0 min 0,000 mm 0,0 UV-I 0 W/m 5,5 C 7,1 C 20,9 km/h (4 Bft) 98,11 %
15.09.2017 04:16 10,7 C 15,6 C 70 % 1015,5 hPa 0,0 l/m 14,2 km/h (3 Bft) W 269 0 min 0,000 mm 0,0 UV-I 0 W/m 5,5 C 6,3 C 22,5 km/h (4 Bft) 97,56 %
15.09.2017 04:18 10,8 C 15,6 C 70 % 1015,5 hPa 0,0 l/m 13,6 km/h (3 Bft) SW 229 0 min 0,000 mm 0,0 UV-I 0 W/m 5,6 C 6,7 C 19,3 km/h (3 Bft) 97,56 %
15.09.2017 04:20 10,7 C 15,6 C 70 % 1015,5 hPa 0,0 l/m 14,8 km/h (3 Bft) SW 233 0 min 0,000 mm 0,0 UV-I 0 W/m 5,5 C 6,1 C 22,5 km/h (4 Bft) 96,61 %
15.09.2017 04:22 10,8 C 15,6 C 70 % 1015,4 hPa 0,0 l/m 14,9 km/h (3 Bft) SW 231 0 min 0,000 mm 0,0 UV-I 0 W/m 5,6 C 6,1 C 20,9 km/h (4 Bft) 97,73 %
15.09.2017 04:24 10,8 C 15,6 C 70 % 1015,5 hPa 0,0 l/m 12,9 km/h (3 Bft) SW 230 0 min 0,000 mm 0,0 UV-I 0 W/m 5,6 C 7,0 C 22,5 km/h (4 Bft) 97,87 %
15.09.2017 04:26 10,8 C 15,6 C 70 % 1015,5 hPa 0,0 l/m 15,9 km/h (3 Bft) W-SW 248 0 min 0,000 mm 0,0 UV-I 0 W/m 5,6 C 5,7 C 27,4 km/h (4 Bft) 97,87 %
15.09.2017 04:28 10,8 C 15,6 C 70 % 1015,5 hPa 0,0 l/m 13,9 km/h (3 Bft) SW 234 0 min 0,000 mm 0,0 UV-I 0 W/m 5,6 C 6,6 C 19,3 km/h (3 Bft) 95,12 %
15.09.2017 04:30 10,8 C 15,6 C 70 % 1015,5 hPa 0,0 l/m 13,7 km/h (3 Bft) W-SW 244 0 min 0,000 mm 0,0 UV-I 0 W/m 5,6 C 6,7 C 22,5 km/h (4 Bft) 97,62 %
15.09.2017 04:32 10,8 C 15,6 C 70 % 1015,5 hPa 0,0 l/m 11,3 km/h (2 Bft) SW 232 0 min 0,000 mm 0,0 UV-I 0 W/m 5,6 C 7,8 C 20,9 km/h (4 Bft) 96,23 %
15.09.2017 04:34 10,7 C 15,6 C 70 % 1015,6 hPa 0,0 l/m 10,9 km/h (2 Bft) SW 227 0 min 0,000 mm 0,0 UV-I 0 W/m 5,5 C 7,9 C 16,1 km/h (3 Bft) 97,73 %
15.09.2017 04:36 10,7 C 15,6 C 70 % 1015,6 hPa 0,0 l/m 11,5 km/h (2 Bft) SW 221 0 min 0,000 mm 0,0 UV-I 0 W/m 5,5 C 7,6 C 19,3 km/h (3 Bft) 95,74 %
15.09.2017 04:38 10,7 C 15,6 C 70 % 1015,5 hPa 0,0 l/m 13,1 km/h (3 Bft) SW 223 0 min 0,000 mm 0,0 UV-I 0 W/m 5,5 C 6,8 C 19,3 km/h (3 Bft) 98,00 %
15.09.2017 04:40 10,7 C 15,6 C 70 % 1015,5 hPa 0,0 l/m 13,8 km/h (3 Bft) W-SW 238 0 min 0,000 mm 0,0 UV-I 0 W/m 5,5 C 6,5 C 20,9 km/h (4 Bft) 98,00 %
15.09.2017 04:42 10,7 C 15,6 C 70 % 1015,5 hPa 0,0 l/m 13,3 km/h (3 Bft) SW 229 0 min 0,000 mm 0,0 UV-I 0 W/m 5,5 C 6,7 C 17,7 km/h (3 Bft) 95,45 %
15.09.2017 04:44 10,7 C 15,6 C 70 % 1015,5 hPa 0,0 l/m 12,7 km/h (3 Bft) W-SW 250 0 min 0,000 mm 0,0 UV-I 0 W/m 5,5 C 7,0 C 19,3 km/h (3 Bft) 98,00 %
15.09.2017 04:46 10,7 C 15,6 C 70 % 1015,5 hPa 0,0 l/m 14,7 km/h (3 Bft) W-SW 241 0 min 0,000 mm 0,0 UV-I 0 W/m 5,5 C 6,1 C 22,5 km/h (4 Bft) 96,00 %
15.09.2017 04:48 10,7 C 15,6 C 71 % 1015,5 hPa 0,0 l/m 10,8 km/h (2 Bft) SW 232 0 min 0,000 mm 0,0 UV-I 0 W/m 5,7 C 7,9 C 16,1 km/h (3 Bft) 100,00 %
15.09.2017 04:50 10,6 C 15,6 C 71 % 1015,6 hPa 0,0 l/m 12,3 km/h (3 Bft) SW 227 0 min 0,000 mm 0,0 UV-I 0 W/m 5,6 C 7,1 C 16,1 km/h (3 Bft) 100,00 %
15.09.2017 04:52 10,6 C 15,6 C 71 % 1015,5 hPa 0,0 l/m 9,6 km/h (2 Bft) SW 234 0 min 0,000 mm 0,0 UV-I 0 W/m 5,6 C 8,5 C 12,9 km/h (3 Bft) 97,87 %
15.09.2017 04:54 10,6 C 15,6 C 71 % 1015,6 hPa 0,0 l/m 12,4 km/h (3 Bft) SW 217 0 min 0,000 mm 0,0 UV-I 0 W/m 5,6 C 7,0 C 17,7 km/h (3 Bft) 97,87 %
15.09.2017 04:56 10,6 C 15,6 C 71 % 1015,5 hPa 0,0 l/m 12,4 km/h (3 Bft) SW 215 0 min 0,000 mm 0,0 UV-I 0 W/m 5,6 C 7,0 C 19,3 km/h (3 Bft) 100,00 %
15.09.2017 04:58 10,5 C 15,6 C 71 % 1015,5 hPa 0,0 l/m 13,3 km/h (3 Bft) SW 229 0 min 0,000 mm 0,0 UV-I 0 W/m 5,5 C 6,5 C 19,3 km/h (3 Bft) 100,00 %
15.09.2017 05:00 10,5 C 15,6 C 71 % 1015,5 hPa 0,0 l/m 14,9 km/h (3 Bft) SW 231 0 min 0,000 mm 0,0 UV-I 0 W/m 5,5 C 5,8 C 20,9 km/h (4 Bft) 100,00 %
15.09.2017 05:02 10,4 C 15,6 C 71 % 1015,5 hPa 0,0 l/m 15,8 km/h (3 Bft) SW 223 0 min 0,050 mm 0,0 UV-I 0 W/m 5,4 C 5,3 C 24,1 km/h (4 Bft) 100,00 %
15.09.2017 05:04 10,4 C 15,6 C 72 % 1015,5 hPa 0,0 l/m 18,5 km/h (3 Bft) SW 222 0 min 0,000 mm 0,0 UV-I 0 W/m 5,6 C 4,3 C 27,4 km/h (4 Bft) 98,11 %
15.09.2017 05:06 10,4 C 15,6 C 72 % 1015,5 hPa 0,0 l/m 15,3 km/h (3 Bft) SW 223 0 min 0,000 mm 0,0 UV-I 0 W/m 5,6 C 5,5 C 22,5 km/h (4 Bft) 96,00 %
15.09.2017 05:08 10,4 C 15,6 C 72 % 1015,5 hPa 0,0 l/m 14,7 km/h (3 Bft) SW 224 0 min 0,000 mm 0,0 UV-I 0 W/m 5,6 C 5,7 C 22,5 km/h (4 Bft) 100,00 %
15.09.2017 05:10 10,3 C 15,6 C 72 % 1015,4 hPa 0,0 l/m 15,0 km/h (3 Bft) SW 232 0 min 0,000 mm 0,0 UV-I 0 W/m 5,5 C 5,5 C 20,9 km/h (4 Bft) 100,00 %
15.09.2017 05:12 10,3 C 15,6 C 72 % 1015,5 hPa 0,0 l/m 14,1 km/h (3 Bft) W 269 0 min 0,000 mm 0,0 UV-I 0 W/m 5,5 C 5,9 C 20,9 km/h (4 Bft) 100,00 %
15.09.2017 05:14 10,3 C 15,6 C 72 % 1015,5 hPa 0,0 l/m 13,7 km/h (3 Bft) SW 217 0 min 0,000 mm 0,0 UV-I 0 W/m 5,5 C 6,1 C 19,3 km/h (3 Bft) 100,00 %
15.09.2017 05:16 10,3 C 15,6 C 72 % 1015,5 hPa 0,0 l/m 10,9 km/h (2 Bft) S-SW 193 0 min 0,000 mm 0,0 UV-I 0 W/m 5,5 C 7,4 C 17,7 km/h (3 Bft) 100,00 %
15.09.2017 05:18 10,3 C 15,6 C 72 % 1015,6 hPa 0,0 l/m 12,0 km/h (2 Bft) S-SW 209 0 min 0,000 mm 0,0 UV-I 0 W/m 5,5 C 6,9 C 19,3 km/h (3 Bft) 100,00 %
15.09.2017 05:20 10,3 C 15,6 C 72 % 1015,7 hPa 0,0 l/m 13,0 km/h (3 Bft) SW 224 0 min 0,000 mm 0,0 UV-I 0 W/m 5,5 C 6,4 C 19,3 km/h (3 Bft) 100,00 %
15.09.2017 05:22 10,3 C 15,6 C 72 % 1015,7 hPa 0,0 l/m 12,6 km/h (3 Bft) S-SW 197 0 min 0,000 mm 0,0 UV-I 0 W/m 5,5 C 6,6 C 19,3 km/h (3 Bft) 100,00 %
15.09.2017 05:24 10,3 C 15,6 C 72 % 1015,7 hPa 0,0 l/m 12,8 km/h (3 Bft) S-SW 207 0 min 0,000 mm 0,0 UV-I 0 W/m 5,5 C 6,5 C 17,7 km/h (3 Bft) 100,00 %
15.09.2017 05:26 10,3 C 15,6 C 72 % 1015,7 hPa 0,0 l/m 12,2 km/h (2 Bft) SW 223 0 min 0,000 mm 0,0 UV-I 0 W/m 5,5 C 6,8 C 17,7 km/h (3 Bft) 100,00 %
15.09.2017 05:28 10,3 C 15,6 C 72 % 1015,7 hPa 0,0 l/m 9,8 km/h (2 Bft) SW 216 0 min 0,000 mm 0,0 UV-I 0 W/m 5,5 C 8,0 C 22,5 km/h (4 Bft) 97,73 %
15.09.2017 05:30 10,3 C 15,6 C 72 % 1015,7 hPa 0,0 l/m 11,2 km/h (2 Bft) SW 236 0 min 0,000 mm 0,0 UV-I 0 W/m 5,5 C 7,3 C 19,3 km/h (3 Bft) 98,00 %
15.09.2017 05:32 10,3 C 15,6 C 72 % 1015,7 hPa 0,0 l/m 8,9 km/h (2 Bft) O-SO 112 0 min 0,000 mm 0,0 UV-I 0 W/m 5,5 C 8,6 C 16,1 km/h (3 Bft) 100,00 %
15.09.2017 05:34 10,3 C 15,6 C 72 % 1015,7 hPa 0,0 l/m 9,6 km/h (2 Bft) SW 225 0 min 0,000 mm 0,0 UV-I 0 W/m 5,5 C 8,2 C 14,5 km/h (3 Bft) 100,00 %
15.09.2017 05:36 10,3 C 15,6 C 72 % 1015,7 hPa 0,0 l/m 11,0 km/h (2 Bft) SW 216 0 min 0,000 mm 0,0 UV-I 0 W/m 5,5 C 7,4 C 16,1 km/h (3 Bft) 100,00 %
15.09.2017 05:38 10,3 C 15,6 C 72 % 1015,7 hPa 0,0 l/m 8,7 km/h (2 Bft) SW 225 0 min 0,000 mm 0,0 UV-I 0 W/m 5,5 C 8,7 C 12,9 km/h (3 Bft) 100,00 %
15.09.2017 05:40 10,3 C 15,6 C 72 % 1015,7 hPa 0,0 l/m 10,7 km/h (2 Bft) SW 230 0 min 0,000 mm 0,0 UV-I 0 W/m 5,5 C 7,5 C 16,1 km/h (3 Bft) 96,61 %
15.09.2017 05:42 10,3 C 15,6 C 72 % 1015,7 hPa 0,0 l/m 10,9 km/h (2 Bft) SW 224 0 min 0,000 mm 0,0 UV-I 0 W/m 5,5 C 7,4 C 16,1 km/h (3 Bft) 100,00 %
15.09.2017 05:44 10,3 C 15,6 C 72 % 1015,7 hPa 0,0 l/m 9,3 km/h (2 Bft) SW 217 0 min 0,000 mm 0,0 UV-I 0 W/m 5,5 C 8,3 C 14,5 km/h (3 Bft) 100,00 %
15.09.2017 05:46 10,3 C 15,6 C 72 % 1015,6 hPa 0,0 l/m 11,3 km/h (2 Bft) SW 227 0 min 0,000 mm 0,0 UV-I 0 W/m 5,5 C 7,2 C 17,7 km/h (3 Bft) 100,00 %
15.09.2017 05:48 10,2 C 15,6 C 72 % 1015,7 hPa 0,0 l/m 9,2 km/h (2 Bft) W-SW 238 0 min 0,000 mm 0,0 UV-I 0 W/m 5,4 C 8,3 C 12,9 km/h (3 Bft) 100,00 %
15.09.2017 05:50 10,2 C 15,6 C 73 % 1015,6 hPa 0,0 l/m 11,8 km/h (2 Bft) SW 236 0 min 0,000 mm 0,0 UV-I 0 W/m 5,6 C 6,8 C 17,7 km/h (3 Bft) 100,00 %
15.09.2017 05:52 10,2 C 15,6 C 73 % 1015,6 hPa 0,0 l/m 14,1 km/h (3 Bft) W-SW 242 0 min 0,000 mm 0,0 UV-I 0 W/m 5,6 C 5,8 C 19,3 km/h (3 Bft) 100,00 %
15.09.2017 05:54 10,2 C 15,6 C 73 % 1015,5 hPa 0,0 l/m 13,4 km/h (3 Bft) W-SW 242 0 min 0,000 mm 0,0 UV-I 0 W/m 5,6 C 6,1 C 17,7 km/h (3 Bft) 100,00 %
15.09.2017 05:56 10,2 C 15,6 C 73 % 1015,5 hPa 0,0 l/m 13,5 km/h (3 Bft) W-SW 246 0 min 0,000 mm 0,0 UV-I 0 W/m 5,6 C 6,0 C 19,3 km/h (3 Bft) 97,56 %
15.09.2017 05:58 10,2 C 15,6 C 73 % 1015,5 hPa 0,0 l/m 12,1 km/h (2 Bft) SW 234 0 min 0,000 mm 0,0 UV-I 0 W/m 5,6 C 6,7 C 19,3 km/h (3 Bft) 100,00 %
15.09.2017 06:00 10,2 C 15,6 C 73 % 1015,4 hPa 0,0 l/m 12,5 km/h (3 Bft) SW 235 0 min 0,000 mm 0,0 UV-I 0 W/m 5,6 C 6,5 C 17,7 km/h (3 Bft) 97,56 %
15.09.2017 06:02 10,2 C 15,6 C 73 % 1015,4 hPa 0,0 l/m 11,2 km/h (2 Bft) SW 227 0 min 0,051 mm 0,0 UV-I 0 W/m 5,6 C 7,2 C 16,1 km/h (3 Bft) 100,00 %
15.09.2017 06:04 10,1 C 15,6 C 73 % 1015,4 hPa 0,0 l/m 13,7 km/h (3 Bft) W-SW 243 0 min 0,000 mm 0,0 UV-I 0 W/m 5,5 C 5,8 C 20,9 km/h (4 Bft) 100,00 %
15.09.2017 06:06 10,1 C 15,6 C 73 % 1015,4 hPa 0,0 l/m 13,2 km/h (3 Bft) W-SW 244 0 min 0,000 mm 0,0 UV-I 0 W/m 5,5 C 6,0 C 19,3 km/h (3 Bft) 98,00 %
15.09.2017 06:08 10,1 C 15,6 C 73 % 1015,4 hPa 0,0 l/m 11,0 km/h (2 Bft) SW 223 0 min 0,000 mm 0,0 UV-I 0 W/m 5,5 C 7,1 C 17,7 km/h (3 Bft) 100,00 %
15.09.2017 06:10 10,1 C 15,6 C 73 % 1015,5 hPa 0,0 l/m 11,1 km/h (2 Bft) S 188 0 min 0,000 mm 0,0 UV-I 0 W/m 5,5 C 7,1 C 16,1 km/h (3 Bft) 100,00 %
15.09.2017 06:12 10,1 C 15,6 C 72 % 1015,5 hPa 0,0 l/m 12,5 km/h (3 Bft) SW 223 0 min 0,000 mm 0,0 UV-I 0 W/m 5,3 C 6,4 C 17,7 km/h (3 Bft) 100,00 %
15.09.2017 06:14 10,2 C 15,6 C 72 % 1015,6 hPa 0,0 l/m 9,4 km/h (2 Bft) SW 233 0 min 0,000 mm 0,0 UV-I 0 W/m 5,4 C 8,2 C 16,1 km/h (3 Bft) 100,00 %
15.09.2017 06:16 10,2 C 15,6 C 73 % 1015,5 hPa 0,0 l/m 12,5 km/h (3 Bft) SW 226 0 min 0,000 mm 0,0 UV-I 0 W/m 5,6 C 6,5 C 19,3 km/h (3 Bft) 98,21 %
15.09.2017 06:18 10,2 C 15,6 C 73 % 1015,4 hPa 0,0 l/m 11,4 km/h (2 Bft) W 261 0 min 0,000 mm 0,0 UV-I 0 W/m 5,6 C 7,1 C 16,1 km/h (3 Bft) 96,00 %
15.09.2017 06:20 10,2 C 15,6 C 73 % 1015,4 hPa 0,0 l/m 12,8 km/h (3 Bft) W 260 0 min 0,000 mm 0,0 UV-I 0 W/m 5,6 C 6,4 C 16,1 km/h (3 Bft) 97,73 %
15.09.2017 06:22 10,2 C 15,6 C 73 % 1015,5 hPa 0,0 l/m 12,5 km/h (3 Bft) W-SW 237 0 min 0,000 mm 0,0 UV-I 0 W/m 5,6 C 6,5 C 17,7 km/h (3 Bft) 98,00 %
15.09.2017 06:24 10,1 C 15,6 C 73 % 1015,4 hPa 0,0 l/m 10,2 km/h (2 Bft) W-SW 254 0 min 0,000 mm 0,0 UV-I 0 W/m 5,5 C 7,6 C 14,5 km/h (3 Bft) 97,87 %
15.09.2017 06:26 10,1 C 15,6 C 73 % 1015,4 hPa 0,0 l/m 9,9 km/h (2 Bft) W-SW 257 0 min 0,000 mm 0,0 UV-I 0 W/m 5,5 C 7,8 C 14,5 km/h (3 Bft) 95,12 %
15.09.2017 06:28 10,1 C 15,6 C 73 % 1015,5 hPa 0,0 l/m 11,9 km/h (2 Bft) S-SW 207 0 min 0,000 mm 0,0 UV-I 0 W/m 5,5 C 6,7 C 19,3 km/h (3 Bft) 98,11 %
15.09.2017 06:30 10,1 C 15,6 C 73 % 1015,5 hPa 0,0 l/m 8,8 km/h (2 Bft) W-SW 248 0 min 0,000 mm 0,0 UV-I 5 W/m 5,5 C 8,4 C 12,9 km/h (3 Bft) 97,44 %
15.09.2017 06:32 10,1 C 15,6 C 73 % 1015,5 hPa 0,0 l/m 9,3 km/h (2 Bft) SW 221 0 min 0,000 mm 0,0 UV-I 5 W/m 5,5 C 8,1 C 16,1 km/h (3 Bft) 98,18 %
15.09.2017 06:34 10,1 C 15,6 C 73 % 1015,6 hPa 0,0 l/m 10,2 km/h (2 Bft) SW 235 0 min 0,000 mm 0,0 UV-I 5 W/m 5,5 C 7,6 C 14,5 km/h (3 Bft) 93,62 %
15.09.2017 06:36 10,0 C 15,6 C 73 % 1015,6 hPa 0,0 l/m 9,0 km/h (2 Bft) W-SW 241 0 min 0,000 mm 0,0 UV-I 6 W/m 5,4 C 8,2 C 14,5 km/h (3 Bft) 97,44 %
15.09.2017 06:38 10,0 C 15,6 C 73 % 1015,6 hPa 0,0 l/m 8,2 km/h (2 Bft) S-SW 207 0 min 0,000 mm 0,0 UV-I 7 W/m 5,4 C 8,7 C 12,9 km/h (3 Bft) 94,64 %
15.09.2017 06:40 10,0 C 15,6 C 73 % 1015,6 hPa 0,0 l/m 9,3 km/h (2 Bft) SW 215 0 min 0,000 mm 0,0 UV-I 9 W/m 5,4 C 8,0 C 14,5 km/h (3 Bft) 95,12 %
15.09.2017 06:42 10,0 C 15,6 C 73 % 1015,6 hPa 0,0 l/m 8,2 km/h (2 Bft) SW 218 0 min 0,000 mm 0,0 UV-I 9 W/m 5,4 C 8,7 C 12,9 km/h (3 Bft) 94,74 %
15.09.2017 06:44 10,0 C 15,6 C 73 % 1015,6 hPa 0,0 l/m 8,7 km/h (2 Bft) S-SW 208 0 min 0,000 mm 0,0 UV-I 9 W/m 5,4 C 8,4 C 12,9 km/h (3 Bft) 96,61 %
15.09.2017 06:46 10,0 C 15,6 C 73 % 1015,6 hPa 0,0 l/m 9,2 km/h (2 Bft) S-SW 213 0 min 0,000 mm 0,0 UV-I 11 W/m 5,4 C 8,1 C 12,9 km/h (3 Bft) 95,12 %
15.09.2017 06:48 9,9 C 15,6 C 73 % 1015,6 hPa 0,0 l/m 9,7 km/h (2 Bft) S 191 0 min 0,000 mm 0,0 UV-I 12 W/m 5,3 C 7,7 C 14,5 km/h (3 Bft) 95,74 %
15.09.2017 06:50 10,0 C 15,6 C 73 % 1015,6 hPa 0,0 l/m 9,5 km/h (2 Bft) W-SW 242 0 min 0,000 mm 0,0 UV-I 14 W/m 5,4 C 7,9 C 14,5 km/h (3 Bft) 93,10 %
15.09.2017 06:52 10,0 C 15,6 C 73 % 1015,6 hPa 0,0 l/m 9,0 km/h (2 Bft) SW 214 2 min 0,000 mm 0,0 UV-I 19 W/m 5,4 C 8,2 C 14,5 km/h (3 Bft) 98,39 %
15.09.2017 06:54 10,0 C 15,6 C 73 % 1015,7 hPa 0,0 l/m 9,7 km/h (2 Bft) S 188 2 min 0,000 mm 0,0 UV-I 15 W/m 5,4 C 7,8 C 14,5 km/h (3 Bft) 96,23 %
15.09.2017 06:56 10,0 C 15,6 C 73 % 1015,6 hPa 0,0 l/m 10,5 km/h (2 Bft) SW 223 0 min 0,000 mm 0,0 UV-I 14 W/m 5,4 C 7,3 C 17,7 km/h (3 Bft) 97,56 %
15.09.2017 06:58 10,0 C 15,6 C 73 % 1015,7 hPa 0,0 l/m 9,0 km/h (2 Bft) SW 223 0 min 0,000 mm 0,0 UV-I 14 W/m 5,4 C 8,2 C 17,7 km/h (3 Bft) 96,23 %
15.09.2017 07:00 10,0 C 15,6 C 73 % 1015,7 hPa 0,0 l/m 8,2 km/h (2 Bft) S-SW 203 0 min 0,026 mm 0,0 UV-I 17 W/m 5,4 C 8,7 C 14,5 km/h (3 Bft) 98,00 %
15.09.2017 07:02 10,0 C 15,6 C 73 % 1015,8 hPa 0,0 l/m 9,8 km/h (2 Bft) SW 219 0 min 0,000 mm 0,0 UV-I 19 W/m 5,4 C 7,7 C 19,3 km/h (3 Bft) 97,37 %
15.09.2017 07:04 10,1 C 15,6 C 73 % 1015,8 hPa 0,0 l/m 8,4 km/h (2 Bft) SW 221 0 min 0,000 mm 0,0 UV-I 21 W/m 5,5 C 8,7 C 14,5 km/h (3 Bft) 98,11 %
15.09.2017 07:06 10,1 C 15,6 C 73 % 1015,9 hPa 0,0 l/m 6,5 km/h (2 Bft) S-SW 209 0 min 0,000 mm 0,0 UV-I 26 W/m 5,5 C 10,1 C 9,7 km/h (2 Bft) 97,56 %
15.09.2017 07:08 10,1 C 15,6 C 73 % 1015,9 hPa 0,0 l/m 6,6 km/h (2 Bft) S-SW 194 0 min 0,000 mm 0,0 UV-I 30 W/m 5,5 C 10,0 C 9,7 km/h (2 Bft) 97,62 %
15.09.2017 07:10 10,1 C 15,6 C 73 % 1015,9 hPa 0,0 l/m 6,0 km/h (2 Bft) SW 232 0 min 0,000 mm 0,0 UV-I 32 W/m 5,5 C 10,1 C 8,0 km/h (2 Bft) 98,11 %
15.09.2017 07:12 10,1 C 15,6 C 73 % 1015,9 hPa 0,0 l/m 5,2 km/h (1 Bft) W-SW 239 0 min 0,000 mm 0,0 UV-I 33 W/m 5,5 C 10,1 C 8,0 km/h (2 Bft) 97,56 %
15.09.2017 07:14 10,1 C 15,6 C 73 % 1015,9 hPa 0,0 l/m 7,7 km/h (2 Bft) SW 231 0 min 0,000 mm 0,0 UV-I 35 W/m 5,5 C 9,2 C 11,3 km/h (2 Bft) 96,61 %
15.09.2017 07:16 10,1 C 15,6 C 73 % 1015,8 hPa 0,0 l/m 7,0 km/h (2 Bft) SW 227 0 min 0,000 mm 0,0 UV-I 39 W/m 5,5 C 9,7 C 9,7 km/h (2 Bft) 97,87 %
15.09.2017 07:18 10,2 C 15,6 C 73 % 1015,8 hPa 0,0 l/m 6,7 km/h (2 Bft) SW 233 0 min 0,000 mm 0,0 UV-I 39 W/m 5,6 C 10,0 C 8,0 km/h (2 Bft) 97,37 %
15.09.2017 07:20 10,2 C 15,6 C 73 % 1015,8 hPa 0,0 l/m 7,5 km/h (2 Bft) SW 224 0 min 0,000 mm 0,0 UV-I 41 W/m 5,6 C 9,4 C 12,9 km/h (3 Bft) 97,87 %
15.09.2017 07:22 10,2 C 15,6 C 74 % 1015,8 hPa 0,0 l/m 6,5 km/h (2 Bft) SW 232 0 min 0,000 mm 0,0 UV-I 43 W/m 5,8 C 10,2 C 9,7 km/h (2 Bft) 97,87 %
15.09.2017 07:24 10,2 C 15,6 C 74 % 1015,8 hPa 0,0 l/m 4,5 km/h (1 Bft) W-SW 237 0 min 0,000 mm 0,0 UV-I 46 W/m 5,8 C 10,2 C 8,0 km/h (2 Bft) 98,00 %
15.09.2017 07:26 10,2 C 15,6 C 74 % 1015,9 hPa 0,0 l/m 5,7 km/h (1 Bft) S-SW 199 0 min 0,000 mm 0,0 UV-I 48 W/m 5,8 C 10,2 C 8,0 km/h (2 Bft) 98,11 %
15.09.2017 07:28 10,2 C 15,6 C 74 % 1015,9 hPa 0,0 l/m 5,7 km/h (1 Bft) SW 220 0 min 0,000 mm 0,0 UV-I 54 W/m 5,8 C 10,2 C 9,7 km/h (2 Bft) 97,73 %
15.09.2017 07:30 10,2 C 15,6 C 74 % 1015,9 hPa 0,0 l/m 7,3 km/h (2 Bft) S-SW 204 0 min 0,000 mm 0,0 UV-I 57 W/m 5,8 C 9,6 C 11,3 km/h (2 Bft) 98,00 %
15.09.2017 07:32 10,1 C 15,6 C 74 % 1015,9 hPa 0,0 l/m 7,0 km/h (2 Bft) W-SW 246 0 min 0,000 mm 0,0 UV-I 58 W/m 5,7 C 9,7 C 9,7 km/h (2 Bft) 97,87 %
15.09.2017 07:34 10,1 C 15,6 C 74 % 1015,9 hPa 0,0 l/m 6,4 km/h (2 Bft) SW 234 0 min 0,000 mm 0,0 UV-I 58 W/m 5,7 C 10,1 C 9,7 km/h (2 Bft) 94,29 %
15.09.2017 07:36 10,1 C 15,6 C 74 % 1015,9 hPa 0,0 l/m 6,7 km/h (2 Bft) SW 234 0 min 0,000 mm 0,0 UV-I 54 W/m 5,7 C 9,9 C 9,7 km/h (2 Bft) 97,87 %
15.09.2017 07:38 10,1 C 15,6 C 74 % 1015,9 hPa 0,0 l/m 5,9 km/h (2 Bft) SW 230 0 min 0,000 mm 0,0 UV-I 51 W/m 5,7 C 10,1 C 8,0 km/h (2 Bft) 96,00 %
15.09.2017 07:40 10,1 C 15,6 C 75 % 1015,9 hPa 0,0 l/m 6,4 km/h (2 Bft) W-SW 239 0 min 0,000 mm 0,0 UV-I 52 W/m 5,9 C 10,1 C 9,7 km/h (2 Bft) 100,00 %
15.09.2017 07:42 10,0 C 15,6 C 75 % 1015,9 hPa 0,0 l/m 6,1 km/h (2 Bft) W-SW 242 0 min 0,000 mm 0,0 UV-I 65 W/m 5,8 C 10,0 C 9,7 km/h (2 Bft) 97,37 %
15.09.2017 07:44 10,0 C 15,6 C 75 % 1015,8 hPa 0,0 l/m 6,4 km/h (2 Bft) W-SW 249 2 min 0,000 mm 0,0 UV-I 137 W/m 5,8 C 10,0 C 11,3 km/h (2 Bft) 100,00 %
15.09.2017 07:46 10,0 C 15,6 C 76 % 1015,8 hPa 0,0 l/m 7,6 km/h (2 Bft) SW 234 2 min 0,000 mm 0,0 UV-I 154 W/m 6,0 C 9,1 C 11,3 km/h (2 Bft) 100,00 %
15.09.2017 07:48 10,0 C 15,6 C 76 % 1015,8 hPa 0,0 l/m 7,2 km/h (2 Bft) SW 229 2 min 0,000 mm 0,0 UV-I 162 W/m 6,0 C 9,4 C 9,7 km/h (2 Bft) 100,00 %
15.09.2017 07:50 10,1 C 15,6 C 76 % 1015,8 hPa 0,0 l/m 7,3 km/h (2 Bft) SW 233 2 min 0,000 mm 0,0 UV-I 171 W/m 6,1 C 9,4 C 11,3 km/h (2 Bft) 97,44 %
15.09.2017 07:52 10,1 C 15,6 C 76 % 1015,8 hPa 0,0 l/m 6,8 km/h (2 Bft) W-SW 245 2 min 0,000 mm 0,0 UV-I 183 W/m 6,1 C 9,8 C 9,7 km/h (2 Bft) 100,00 %
15.09.2017 07:54 10,2 C 15,6 C 75 % 1015,8 hPa 0,0 l/m 5,9 km/h (2 Bft) S-SW 207 2 min 0,000 mm 0,0 UV-I 198 W/m 6,0 C 10,2 C 8,0 km/h (2 Bft) 100,00 %
15.09.2017 07:56 10,3 C 15,6 C 75 % 1015,8 hPa 0,0 l/m 5,6 km/h (1 Bft) W-SW 242 2 min 0,000 mm 0,0 UV-I 212 W/m 6,1 C 10,3 C 8,0 km/h (2 Bft) 100,00 %
15.09.2017 07:58 10,4 C 15,6 C 75 % 1015,9 hPa 0,0 l/m 5,3 km/h (1 Bft) SW 232 2 min 0,000 mm 0,0 UV-I 225 W/m 6,2 C 10,4 C 9,7 km/h (2 Bft) 100,00 %
15.09.2017 08:00 10,6 C 15,6 C 75 % 1015,9 hPa 0,0 l/m 6,3 km/h (2 Bft) SW 218 2 min 0,050 mm 0,0 UV-I 234 W/m 6,4 C 10,6 C 11,3 km/h (2 Bft) 98,11 %
15.09.2017 08:02 10,7 C 15,6 C 73 % 1015,9 hPa 0,0 l/m 5,3 km/h (1 Bft) SW 224 2 min 0,000 mm 0,0 UV-I 244 W/m 6,1 C 10,7 C 9,7 km/h (2 Bft) 100,00 %
15.09.2017 08:04 10,9 C 15,6 C 73 % 1015,8 hPa 0,0 l/m 4,5 km/h (1 Bft) W-SW 247 2 min 0,000 mm 0,0 UV-I 257 W/m 6,3 C 10,9 C 6,4 km/h (2 Bft) 100,00 %
15.09.2017 08:06 11,1 C 15,6 C 72 % 1015,8 hPa 0,0 l/m 5,6 km/h (1 Bft) W-SW 238 2 min 0,000 mm 0,0 UV-I 264 W/m 6,2 C 11,1 C 8,0 km/h (2 Bft) 100,00 %
15.09.2017 08:08 11,2 C 15,6 C 72 % 1015,8 hPa 0,0 l/m 6,4 km/h (2 Bft) W-SW 251 2 min 0,000 mm 0,0 UV-I 256 W/m 6,3 C 11,2 C 9,7 km/h (2 Bft) 100,00 %
15.09.2017 08:10 11,2 C 15,6 C 71 % 1015,8 hPa 0,0 l/m 6,7 km/h (2 Bft) SW 227 2 min 0,000 mm 0,0 UV-I 142 W/m 6,1 C 11,0 C 12,9 km/h (3 Bft) 98,00 %
15.09.2017 08:12 11,3 C 15,6 C 71 % 1015,7 hPa 0,0 l/m 6,4 km/h (2 Bft) S-SW 195 2 min 0,000 mm 0,0 UV-I 207 W/m 6,2 C 11,3 C 11,3 km/h (2 Bft) 100,00 %
15.09.2017 08:14 11,3 C 15,6 C 70 % 1015,7 hPa 0,0 l/m 6,7 km/h (2 Bft) SW 232 2 min 0,000 mm 0,0 UV-I 264 W/m 6,0 C 11,1 C 9,7 km/h (2 Bft) 100,00 %
15.09.2017 08:16 11,4 C 15,6 C 70 % 1015,8 hPa 0,0 l/m 8,5 km/h (2 Bft) S-SW 213 2 min 0,000 mm 0,0 UV-I 262 W/m 6,1 C 10,0 C 12,9 km/h (3 Bft) 97,87 %
15.09.2017 08:18 11,5 C 15,6 C 70 % 1015,8 hPa 0,0 l/m 7,5 km/h (2 Bft) W-SW 252 2 min 0,000 mm 0,0 UV-I 269 W/m 6,2 C 10,8 C 14,5 km/h (3 Bft) 98,21 %
15.09.2017 08:20 11,6 C 15,6 C 70 % 1015,9 hPa 0,0 l/m 9,4 km/h (2 Bft) S-SW 209 2 min 0,000 mm 0,0 UV-I 276 W/m 6,3 C 9,7 C 11,3 km/h (2 Bft) 97,73 %
15.09.2017 08:22 11,6 C 15,6 C 69 % 1015,9 hPa 0,0 l/m 5,6 km/h (1 Bft) W-SW 243 2 min 0,000 mm 0,0 UV-I 278 W/m 6,1 C 11,6 C 12,9 km/h (3 Bft) 97,56 %
15.09.2017 08:24 11,7 C 15,6 C 68 % 1015,9 hPa 0,0 l/m 7,1 km/h (2 Bft) S 181 2 min 0,000 mm 0,0 UV-I 272 W/m 6,0 C 11,2 C 11,3 km/h (2 Bft) 96,00 %
15.09.2017 08:26 11,7 C 15,6 C 69 % 1016,0 hPa 0,0 l/m 5,4 km/h (1 Bft) S-SO 155 2 min 0,000 mm 0,0 UV-I 265 W/m 6,2 C 11,7 C 8,0 km/h (2 Bft) 97,62 %
15.09.2017 08:28 11,7 C 15,6 C 69 % 1016,0 hPa 0,0 l/m 7,0 km/h (2 Bft) SW 221 2 min 0,000 mm 0,5 UV-I 265 W/m 6,2 C 11,3 C 9,7 km/h (2 Bft) 97,73 %
15.09.2017 08:30 11,7 C 15,6 C 68 % 1016,0 hPa 0,0 l/m 5,7 km/h (1 Bft) S-SO 152 2 min 0,000 mm 0,5 UV-I 268 W/m 6,0 C 11,7 C 9,7 km/h (2 Bft) 96,00 %
15.09.2017 08:32 11,7 C 15,6 C 69 % 1015,9 hPa 0,0 l/m 3,9 km/h (1 Bft) S-SW 193 2 min 0,000 mm 0,5 UV-I 271 W/m 6,2 C 11,7 C 6,4 km/h (2 Bft) 98,11 %
15.09.2017 08:34 11,7 C 15,6 C 68 % 1016,0 hPa 0,0 l/m 5,0 km/h (1 Bft) S-SW 210 2 min 0,000 mm 0,5 UV-I 276 W/m 6,0 C 11,7 C 8,0 km/h (2 Bft) 95,74 %
15.09.2017 08:36 11,8 C 15,6 C 69 % 1015,9 hPa 0,0 l/m 4,1 km/h (1 Bft) SW 225 2 min 0,000 mm 0,5 UV-I 281 W/m 6,3 C 11,8 C 8,0 km/h (2 Bft) 94,00 %
15.09.2017 08:38 11,8 C 15,6 C 69 % 1016,0 hPa 0,0 l/m 4,0 km/h (1 Bft) SW 218 2 min 0,000 mm 0,6 UV-I 286 W/m 6,3 C 11,8 C 6,4 km/h (2 Bft) 97,56 %
15.09.2017 08:40 11,8 C 15,6 C 70 % 1015,9 hPa 0,0 l/m 4,7 km/h (1 Bft) S-SW 207 2 min 0,000 mm 0,6 UV-I 291 W/m 6,5 C 11,8 C 8,0 km/h (2 Bft) 97,56 %
15.09.2017 08:42 11,8 C 15,6 C 70 % 1016,0 hPa 0,0 l/m 3,8 km/h (1 Bft) SW 229 2 min 0,000 mm 0,6 UV-I 297 W/m 6,5 C 11,8 C 6,4 km/h (2 Bft) 96,43 %
15.09.2017 08:44 11,9 C 15,6 C 69 % 1016,0 hPa 0,0 l/m 6,9 km/h (2 Bft) SW 227 2 min 0,000 mm 0,6 UV-I 302 W/m 6,4 C 11,6 C 8,0 km/h (2 Bft) 95,12 %
15.09.2017 08:46 11,9 C 15,6 C 68 % 1016,0 hPa 0,0 l/m 4,2 km/h (1 Bft) S-SO 167 2 min 0,000 mm 0,6 UV-I 306 W/m 6,2 C 11,9 C 9,7 km/h (2 Bft) 97,87 %
15.09.2017 08:48 11,9 C 15,6 C 67 % 1016,0 hPa 0,0 l/m 5,5 km/h (1 Bft) S-SW 212 2 min 0,000 mm 0,7 UV-I 312 W/m 6,0 C 11,9 C 11,3 km/h (2 Bft) 97,87 %
15.09.2017 08:50 12,0 C 15,6 C 68 % 1016,0 hPa 0,0 l/m 8,0 km/h (2 Bft) W-SW 238 2 min 0,000 mm 0,7 UV-I 318 W/m 6,3 C 11,0 C 12,9 km/h (3 Bft) 100,00 %
15.09.2017 08:52 12,0 C 15,6 C 68 % 1016,0 hPa 0,0 l/m 5,4 km/h (1 Bft) W-SW 246 2 min 0,000 mm 0,7 UV-I 324 W/m 6,3 C 12,0 C 9,7 km/h (2 Bft) 95,12 %
15.09.2017 08:54 12,1 C 15,6 C 69 % 1016,0 hPa 0,0 l/m 7,4 km/h (2 Bft) S-SW 209 2 min 0,000 mm 0,7 UV-I 328 W/m 6,6 C 11,4 C 12,9 km/h (3 Bft) 98,21 %
15.09.2017 08:56 12,2 C 15,6 C 67 % 1016,0 hPa 0,0 l/m 6,6 km/h (2 Bft) SW 227 2 min 0,000 mm 0,8 UV-I 334 W/m 6,3 C 12,1 C 9,7 km/h (2 Bft) 100,00 %
15.09.2017 08:58 12,2 C 15,6 C 67 % 1016,0 hPa 0,0 l/m 5,0 km/h (1 Bft) S-SW 195 2 min 0,000 mm 0,8 UV-I 339 W/m 6,3 C 12,2 C 8,0 km/h (2 Bft) 98,00 %
15.09.2017 09:00 12,3 C 15,6 C 68 % 1016,0 hPa 0,0 l/m 4,9 km/h (1 Bft) SW 215 2 min 0,153 mm 0,8 UV-I 344 W/m 6,6 C 12,3 C 8,0 km/h (2 Bft) 97,37 %
15.09.2017 09:02 12,3 C 15,6 C 68 % 1016,0 hPa 0,0 l/m 5,6 km/h (1 Bft) S-SW 202 2 min 0,000 mm 0,8 UV-I 350 W/m 6,6 C 12,3 C 9,7 km/h (2 Bft) 97,87 %
15.09.2017 09:04 12,4 C 15,6 C 67 % 1016,0 hPa 0,0 l/m 5,5 km/h (1 Bft) SW 217 2 min 0,000 mm 0,9 UV-I 356 W/m 6,4 C 12,4 C 8,0 km/h (2 Bft) 98,00 %
15.09.2017 09:06 12,6 C 15,6 C 66 % 1015,9 hPa 0,0 l/m 9,2 km/h (2 Bft) W 261 2 min 0,000 mm 0,9 UV-I 364 W/m 6,4 C 10,9 C 12,9 km/h (3 Bft) 100,00 %
15.09.2017 09:08 12,6 C 15,6 C 66 % 1016,0 hPa 0,0 l/m 8,2 km/h (2 Bft) S 188 2 min 0,000 mm 0,9 UV-I 369 W/m 6,4 C 11,5 C 12,9 km/h (3 Bft) 100,00 %
15.09.2017 09:10 12,7 C 15,6 C 67 % 1016,0 hPa 0,0 l/m 7,1 km/h (2 Bft) S-SW 202 2 min 0,000 mm 0,8 UV-I 312 W/m 6,7 C 12,3 C 9,7 km/h (2 Bft) 100,00 %
15.09.2017 09:12 12,6 C 15,6 C 66 % 1016,0 hPa 0,0 l/m 7,0 km/h (2 Bft) W-SW 240 0 min 0,000 mm 0,8 UV-I 140 W/m 6,4 C 12,2 C 9,7 km/h (2 Bft) 100,00 %
15.09.2017 09:14 12,5 C 15,6 C 66 % 1016,0 hPa 0,0 l/m 3,7 km/h (1 Bft) S-SO 160 0 min 0,000 mm 0,8 UV-I 101 W/m 6,3 C 12,5 C 6,4 km/h (2 Bft) 100,00 %
15.09.2017 09:16 12,4 C 15,6 C 67 % 1016,1 hPa 0,0 l/m 5,7 km/h (1 Bft) S-SW 212 0 min 0,000 mm 0,8 UV-I 111 W/m 6,4 C 12,4 C 9,7 km/h (2 Bft) 100,00 %
15.09.2017 09:18 12,4 C 15,6 C 68 % 1016,1 hPa 0,0 l/m 4,6 km/h (1 Bft) S-SW 194 0 min 0,000 mm 1,0 UV-I 121 W/m 6,7 C 12,4 C 8,0 km/h (2 Bft) 100,00 %
15.09.2017 09:20 12,6 C 15,6 C 67 % 1016,1 hPa 0,0 l/m 4,9 km/h (1 Bft) W-SW 240 2 min 0,000 mm 1,0 UV-I 281 W/m 6,6 C 12,6 C 6,4 km/h (2 Bft) 100,00 %
15.09.2017 09:22 12,7 C 15,6 C 66 % 1016,1 hPa 0,0 l/m 5,2 km/h (1 Bft) W-SW 244 2 min 0,000 mm 0,9 UV-I 261 W/m 6,5 C 12,7 C 8,0 km/h (2 Bft) 98,53 %
15.09.2017 09:24 12,7 C 15,6 C 66 % 1016,1 hPa 0,0 l/m 5,1 km/h (1 Bft) SW 224 0 min 0,000 mm 0,9 UV-I 126 W/m 6,5 C 12,7 C 8,0 km/h (2 Bft) 100,00 %
15.09.2017 09:26 12,6 C 15,6 C 67 % 1016,1 hPa 0,0 l/m 5,6 km/h (1 Bft) SW 227 0 min 0,000 mm 0,9 UV-I 131 W/m 6,6 C 12,6 C 8,0 km/h (2 Bft) 100,00 %
15.09.2017 09:28 12,5 C 15,6 C 67 % 1016,1 hPa 0,0 l/m 7,4 km/h (2 Bft) SW 234 0 min 0,000 mm 0,9 UV-I 155 W/m 6,5 C 11,9 C 11,3 km/h (2 Bft) 97,37 %
15.09.2017 09:30 12,5 C 15,6 C 66 % 1016,1 hPa 0,0 l/m 7,5 km/h (2 Bft) SW 221 0 min 0,000 mm 1,0 UV-I 205 W/m 6,3 C 11,8 C 12,9 km/h (3 Bft) 100,00 %
15.09.2017 09:32 12,6 C 15,6 C 66 % 1016,1 hPa 0,0 l/m 7,5 km/h (2 Bft) SW 227 0 min 0,000 mm 1,0 UV-I 216 W/m 6,4 C 11,9 C 11,3 km/h (2 Bft) 100,00 %
15.09.2017 09:34 12,6 C 15,6 C 66 % 1016,1 hPa 0,0 l/m 5,2 km/h (1 Bft) SW 231 0 min 0,000 mm 1,0 UV-I 230 W/m 6,4 C 12,6 C 8,0 km/h (2 Bft) 100,00 %
15.09.2017 09:36 12,6 C 15,6 C 67 % 1016,1 hPa 0,0 l/m 7,0 km/h (2 Bft) W-SW 248 0 min 0,000 mm 1,0 UV-I 204 W/m 6,6 C 12,2 C 12,9 km/h (3 Bft) 98,00 %
15.09.2017 09:38 12,7 C 15,6 C 66 % 1016,1 hPa 0,0 l/m 7,9 km/h (2 Bft) SW 221 0 min 0,000 mm 1,2 UV-I 221 W/m 6,5 C 11,7 C 12,9 km/h (3 Bft) 100,00 %
15.09.2017 09:40 12,8 C 15,6 C 66 % 1016,1 hPa 0,0 l/m 7,8 km/h (2 Bft) SW 236 2 min 0,000 mm 1,4 UV-I 465 W/m 6,6 C 11,9 C 11,3 km/h (2 Bft) 100,00 %
15.09.2017 09:42 13,2 C 15,6 C 67 % 1016,1 hPa 0,0 l/m 8,4 km/h (2 Bft) W-SW 253 2 min 0,000 mm 1,5 UV-I 582 W/m 7,2 C 12,0 C 14,5 km/h (3 Bft) 100,00 %
15.09.2017 09:44 13,4 C 15,6 C 65 % 1016,1 hPa 0,0 l/m 8,3 km/h (2 Bft) W-SW 244 2 min 0,000 mm 1,4 UV-I 451 W/m 7,0 C 12,2 C 16,1 km/h (3 Bft) 100,00 %
15.09.2017 09:46 13,5 C 15,6 C 64 % 1016,2 hPa 0,0 l/m 9,0 km/h (2 Bft) SW 222 2 min 0,000 mm 1,5 UV-I 329 W/m 6,8 C 12,0 C 16,1 km/h (3 Bft) 100,00 %
15.09.2017 09:48 13,6 C 15,6 C 63 % 1016,1 hPa 0,0 l/m 10,7 km/h (2 Bft) W-NW 285 2 min 0,000 mm 1,5 UV-I 435 W/m 6,7 C 11,2 C 16,1 km/h (3 Bft) 100,00 %
15.09.2017 09:50 13,7 C 15,6 C 63 % 1016,1 hPa 0,0 l/m 10,3 km/h (2 Bft) W-SW 258 2 min 0,000 mm 1,7 UV-I 606 W/m 6,8 C 11,5 C 12,9 km/h (3 Bft) 100,00 %
15.09.2017 09:52 13,8 C 15,6 C 63 % 1016,1 hPa 0,0 l/m 10,7 km/h (2 Bft) W-SW 251 2 min 0,000 mm 1,7 UV-I 610 W/m 6,9 C 11,5 C 17,7 km/h (3 Bft) 95,45 %
15.09.2017 09:54 13,9 C 15,6 C 64 % 1016,1 hPa 0,0 l/m 8,1 km/h (2 Bft) SW 223 2 min 0,000 mm 1,7 UV-I 582 W/m 7,2 C 12,9 C 14,5 km/h (3 Bft) 98,31 %
15.09.2017 09:56 14,1 C 15,6 C 62 % 1016,1 hPa 0,0 l/m 10,3 km/h (2 Bft) S-SW 209 2 min 0,000 mm 1,7 UV-I 570 W/m 6,9 C 12,0 C 14,5 km/h (3 Bft) 100,00 %
15.09.2017 09:58 14,1 C 15,6 C 62 % 1016,1 hPa 0,0 l/m 10,4 km/h (2 Bft) SW 234 2 min 0,000 mm 1,8 UV-I 593 W/m 6,9 C 11,9 C 14,5 km/h (3 Bft) 97,87 %
15.09.2017 10:00 14,1 C 15,6 C 62 % 1016,2 hPa 0,0 l/m 6,6 km/h (2 Bft) W-SW 255 2 min 0,203 mm 1,8 UV-I 594 W/m 6,9 C 14,0 C 14,5 km/h (3 Bft) 98,00 %
15.09.2017 10:02 14,1 C 15,6 C 61 % 1016,1 hPa 0,0 l/m 4,0 km/h (1 Bft) SW 234 2 min 0,000 mm 1,8 UV-I 580 W/m 6,7 C 14,1 C 17,7 km/h (3 Bft) 95,74 %
15.09.2017 10:04 14,2 C 15,6 C 62 % 1016,2 hPa 0,0 l/m 11,7 km/h (2 Bft) S-SW 200 2 min 0,000 mm 1,8 UV-I 555 W/m 7,0 C 11,5 C 16,1 km/h (3 Bft) 97,56 %
15.09.2017 10:06 14,2 C 15,6 C 62 % 1016,2 hPa 0,0 l/m 9,4 km/h (2 Bft) SW 235 2 min 0,000 mm 1,8 UV-I 543 W/m 7,0 C 12,5 C 14,5 km/h (3 Bft) 98,11 %
15.09.2017 10:08 14,1 C 15,6 C 60 % 1016,3 hPa 0,0 l/m 5,9 km/h (2 Bft) W 277 2 min 0,000 mm 1,9 UV-I 543 W/m 6,5 C 14,1 C 9,7 km/h (2 Bft) 94,74 %
15.09.2017 10:10 13,9 C 15,6 C 63 % 1016,2 hPa 0,0 l/m 4,8 km/h (1 Bft) S 189 2 min 0,000 mm 1,9 UV-I 550 W/m 7,0 C 13,9 C 11,3 km/h (2 Bft) 98,00 %
15.09.2017 10:12 14,0 C 15,6 C 62 % 1016,2 hPa 0,0 l/m 7,9 km/h (2 Bft) S 182 2 min 0,000 mm 2,0 UV-I 570 W/m 6,8 C 13,1 C 14,5 km/h (3 Bft) 96,00 %
15.09.2017 10:14 14,1 C 15,6 C 62 % 1016,2 hPa 0,0 l/m 8,7 km/h (2 Bft) SW 215 2 min 0,000 mm 2,0 UV-I 571 W/m 6,9 C 12,8 C 12,9 km/h (3 Bft) 93,62 %
15.09.2017 10:16 14,2 C 15,6 C 61 % 1016,2 hPa 0,0 l/m 9,5 km/h (2 Bft) W 265 2 min 0,000 mm 2,0 UV-I 561 W/m 6,8 C 12,5 C 16,1 km/h (3 Bft) 96,00 %
15.09.2017 10:18 14,2 C 15,6 C 61 % 1016,2 hPa 0,0 l/m 5,6 km/h (1 Bft) W-SW 257 2 min 0,000 mm 2,0 UV-I 561 W/m 6,8 C 14,2 C 11,3 km/h (2 Bft) 95,74 %
15.09.2017 10:20 14,1 C 15,6 C 61 % 1016,1 hPa 0,0 l/m 2,6 km/h (1 Bft) W-NW 293 2 min 0,000 mm 2,1 UV-I 577 W/m 6,7 C 14,1 C 4,8 km/h (1 Bft) 97,14 %
15.09.2017 10:22 14,3 C 15,6 C 63 % 1016,2 hPa 0,0 l/m 10,8 km/h (2 Bft) SW 231 2 min 0,000 mm 2,1 UV-I 591 W/m 7,4 C 12,0 C 17,7 km/h (3 Bft) 94,64 %
15.09.2017 10:24 14,4 C 15,6 C 61 % 1016,2 hPa 0,0 l/m 7,6 km/h (2 Bft) W-SW 253 2 min 0,000 mm 2,2 UV-I 597 W/m 7,0 C 13,7 C 14,5 km/h (3 Bft) 96,30 %
15.09.2017 10:26 14,3 C 15,6 C 62 % 1016,1 hPa 0,0 l/m 2,9 km/h (1 Bft) S 169 2 min 0,000 mm 2,2 UV-I 605 W/m 7,1 C 14,3 C 6,4 km/h (2 Bft) 94,03 %
15.09.2017 10:28 14,1 C 15,6 C 60 % 1016,1 hPa 0,0 l/m 4,6 km/h (1 Bft) W 260 2 min 0,000 mm 2,2 UV-I 607 W/m 6,5 C 14,1 C 9,7 km/h (2 Bft) 94,87 %
15.09.2017 10:30 14,2 C 15,6 C 61 % 1016,1 hPa 0,0 l/m 2,6 km/h (1 Bft) S-SW 192 2 min 0,000 mm 2,3 UV-I 620 W/m 6,8 C 14,2 C 8,0 km/h (2 Bft) 94,00 %
15.09.2017 10:32 14,2 C 15,6 C 61 % 1016,1 hPa 0,0 l/m 2,2 km/h (1 Bft) O-SO 121 2 min 0,000 mm 2,4 UV-I 633 W/m 6,8 C 14,2 C 4,8 km/h (1 Bft) 96,00 %
15.09.2017 10:34 14,4 C 15,6 C 64 % 1016,0 hPa 0,0 l/m 2,1 km/h (1 Bft) W 259 2 min 0,000 mm 2,4 UV-I 640 W/m 7,7 C 14,4 C 6,4 km/h (2 Bft) 95,12 %
15.09.2017 10:36 14,4 C 15,6 C 61 % 1016,1 hPa 0,0 l/m 4,2 km/h (1 Bft) W 271 2 min 0,000 mm 2,4 UV-I 646 W/m 7,0 C 14,4 C 11,3 km/h (2 Bft) 98,11 %
15.09.2017 10:38 14,6 C 15,6 C 63 % 1016,1 hPa 0,0 l/m 6,8 km/h (2 Bft) W-NW 286 2 min 0,000 mm 2,3 UV-I 653 W/m 7,6 C 14,4 C 11,3 km/h (2 Bft) 97,56 %
15.09.2017 10:40 14,7 C 15,6 C 61 % 1016,0 hPa 0,0 l/m 7,5 km/h (2 Bft) W-NW 289 2 min 0,000 mm 2,4 UV-I 644 W/m 7,3 C 14,1 C 12,9 km/h (3 Bft) 96,43 %
15.09.2017 10:42 14,6 C 15,6 C 59 % 1015,9 hPa 0,0 l/m 3,4 km/h (1 Bft) W-NW 289 2 min 0,000 mm 2,3 UV-I 371 W/m 6,7 C 14,6 C 6,4 km/h (2 Bft) 97,37 %
15.09.2017 10:44 14,6 C 15,6 C 62 % 1015,9 hPa 0,0 l/m 4,2 km/h (1 Bft) W 265 2 min 0,000 mm 2,6 UV-I 710 W/m 7,4 C 14,6 C 12,9 km/h (3 Bft) 95,74 %
15.09.2017 10:46 14,5 C 15,6 C 59 % 1015,9 hPa 0,0 l/m 5,0 km/h (1 Bft) W-SW 246 2 min 0,000 mm 2,5 UV-I 712 W/m 6,6 C 14,5 C 9,7 km/h (2 Bft) 96,23 %
15.09.2017 10:48 14,3 C 15,6 C 60 % 1015,8 hPa 0,0 l/m 4,8 km/h (1 Bft) W-SW 257 2 min 0,000 mm 2,5 UV-I 472 W/m 6,6 C 14,3 C 9,7 km/h (2 Bft) 97,87 %
15.09.2017 10:50 14,3 C 15,6 C 61 % 1015,8 hPa 0,0 l/m 4,0 km/h (1 Bft) W-SW 256 2 min 0,000 mm 2,7 UV-I 528 W/m 6,9 C 14,3 C 11,3 km/h (2 Bft) 100,00 %
15.09.2017 10:52 14,3 C 15,6 C 60 % 1015,8 hPa 0,0 l/m 4,9 km/h (1 Bft) W 266 2 min 0,000 mm 2,7 UV-I 652 W/m 6,6 C 14,3 C 12,9 km/h (3 Bft) 96,23 %
15.09.2017 10:54 14,4 C 15,6 C 64 % 1015,7 hPa 0,0 l/m 1,7 km/h (1 Bft) NW 324 2 min 0,000 mm 2,7 UV-I 642 W/m 7,7 C 14,4 C 3,2 km/h (1 Bft) 97,56 %
15.09.2017 10:56 14,6 C 15,6 C 62 % 1015,7 hPa 0,0 l/m 2,6 km/h (1 Bft) W-NW 295 2 min 0,000 mm 2,8 UV-I 644 W/m 7,4 C 14,6 C 4,8 km/h (1 Bft) 98,11 %
15.09.2017 10:58 14,7 C 15,6 C 61 % 1015,7 hPa 0,0 l/m 2,4 km/h (1 Bft) NW 316 2 min 0,000 mm 2,8 UV-I 658 W/m 7,3 C 14,7 C 4,8 km/h (1 Bft) 98,00 %
15.09.2017 11:00 14,7 C 15,6 C 63 % 1015,6 hPa 0,0 l/m 2,6 km/h (1 Bft) NW 321 2 min 0,330 mm 2,9 UV-I 660 W/m 7,7 C 14,7 C 6,4 km/h (2 Bft) 98,00 %
15.09.2017 11:02 14,6 C 15,6 C 60 % 1015,6 hPa 0,0 l/m 1,5 km/h (1 Bft) NW 321 2 min 0,000 mm 2,9 UV-I 660 W/m 6,9 C 14,6 C 3,2 km/h (1 Bft) 97,22 %
15.09.2017 11:04 14,4 C 15,6 C 58 % 1015,6 hPa 0,0 l/m 1,3 km/h (1 Bft) NW 321 2 min 0,000 mm 3,0 UV-I 665 W/m 6,2 C 14,4 C 3,2 km/h (1 Bft) 98,18 %
15.09.2017 11:06 14,3 C 15,6 C 59 % 1015,6 hPa 0,0 l/m 0,5 km/h (0 Bft) NW 321 2 min 0,000 mm 3,0 UV-I 673 W/m 6,4 C 14,3 C 1,6 km/h (1 Bft) 97,44 %
15.09.2017 11:08 14,4 C 15,6 C 59 % 1015,5 hPa 0,0 l/m 3,0 km/h (1 Bft) O-SO 105 2 min 0,000 mm 3,1 UV-I 682 W/m 6,5 C 14,4 C 6,4 km/h (2 Bft) 95,45 %
15.09.2017 11:10 14,4 C 15,6 C 59 % 1015,5 hPa 0,0 l/m 5,7 km/h (1 Bft) O-SO 107 2 min 0,000 mm 3,1 UV-I 692 W/m 6,5 C 14,4 C 11,3 km/h (2 Bft) 96,23 %
15.09.2017 11:12 14,4 C 15,6 C 59 % 1015,5 hPa 0,0 l/m 3,4 km/h (1 Bft) O-SO 107 2 min 0,000 mm 3,1 UV-I 693 W/m 6,5 C 14,4 C 6,4 km/h (2 Bft) 97,14 %
15.09.2017 11:14 14,4 C 15,6 C 59 % 1015,5 hPa 0,0 l/m 3,8 km/h (1 Bft) O-NO 78 2 min 0,000 mm 3,1 UV-I 668 W/m 6,5 C 14,4 C 9,7 km/h (2 Bft) 95,16 %
15.09.2017 11:16 14,5 C 15,6 C 61 % 1015,5 hPa 0,0 l/m 5,3 km/h (1 Bft) SO 126 2 min 0,000 mm 3,1 UV-I 692 W/m 7,1 C 14,5 C 9,7 km/h (2 Bft) 97,37 %
15.09.2017 11:18 14,7 C 15,6 C 61 % 1015,5 hPa 0,0 l/m 2,6 km/h (1 Bft) NW 323 2 min 0,000 mm 3,2 UV-I 697 W/m 7,3 C 14,7 C 4,8 km/h (1 Bft) 98,31 %
15.09.2017 11:20 14,7 C 15,6 C 59 % 1015,5 hPa 0,0 l/m 3,9 km/h (1 Bft) NO 38 2 min 0,000 mm 3,2 UV-I 705 W/m 6,8 C 14,7 C 6,4 km/h (2 Bft) 94,29 %
15.09.2017 11:22 14,8 C 15,6 C 62 % 1015,5 hPa 0,0 l/m 2,0 km/h (1 Bft) NO 38 2 min 0,000 mm 3,3 UV-I 708 W/m 7,6 C 14,8 C 4,8 km/h (1 Bft) 96,23 %
15.09.2017 11:24 14,9 C 15,6 C 58 % 1015,4 hPa 0,0 l/m 3,1 km/h (1 Bft) W 263 2 min 0,000 mm 3,3 UV-I 716 W/m 6,7 C 14,9 C 6,4 km/h (2 Bft) 98,00 %
15.09.2017 11:26 14,9 C 15,6 C 58 % 1015,3 hPa 0,0 l/m 1,7 km/h (1 Bft) W 271 2 min 0,000 mm 3,3 UV-I 712 W/m 6,7 C 14,9 C 3,2 km/h (1 Bft) 97,87 %
15.09.2017 11:28 15,1 C 15,6 C 61 % 1015,3 hPa 0,0 l/m 5,7 km/h (1 Bft) SW 215 2 min 0,000 mm 3,4 UV-I 715 W/m 7,6 C 15,1 C 9,7 km/h (2 Bft) 94,74 %
15.09.2017 11:30 15,1 C 15,6 C 58 % 1015,3 hPa 0,0 l/m 1,9 km/h (1 Bft) S-SW 198 2 min 0,000 mm 3,4 UV-I 721 W/m 6,9 C 15,1 C 4,8 km/h (1 Bft) 98,00 %
15.09.2017 11:32 15,0 C 15,6 C 62 % 1015,2 hPa 0,0 l/m 3,1 km/h (1 Bft) SW 215 2 min 0,000 mm 3,4 UV-I 723 W/m 7,8 C 15,0 C 4,8 km/h (1 Bft) 97,87 %
15.09.2017 11:34 15,1 C 15,6 C 59 % 1015,1 hPa 0,0 l/m 2,2 km/h (1 Bft) SW 216 2 min 0,000 mm 3,4 UV-I 713 W/m 7,1 C 15,1 C 8,0 km/h (2 Bft) 96,00 %
15.09.2017 11:36 15,3 C 15,6 C 61 % 1015,1 hPa 0,0 l/m 2,2 km/h (1 Bft) NW 306 2 min 0,000 mm 3,5 UV-I 694 W/m 7,8 C 15,3 C 4,8 km/h (1 Bft) 95,45 %
15.09.2017 11:38 15,5 C 15,6 C 60 % 1015,0 hPa 0,0 l/m 4,6 km/h (1 Bft) S-SW 205 2 min 0,000 mm 3,5 UV-I 701 W/m 7,8 C 15,5 C 9,7 km/h (2 Bft) 97,73 %
15.09.2017 11:40 15,6 C 15,6 C 59 % 1015,0 hPa 0,0 l/m 9,2 km/h (2 Bft) S-SW 210 2 min 0,000 mm 3,5 UV-I 700 W/m 7,6 C 14,1 C 14,5 km/h (3 Bft) 98,00 %
15.09.2017 11:42 15,4 C 15,6 C 54 % 1015,0 hPa 0,0 l/m 4,4 km/h (1 Bft) W-NW 287 2 min 0,000 mm 3,5 UV-I 710 W/m 6,1 C 15,4 C 6,4 km/h (2 Bft) 98,00 %
15.09.2017 11:44 15,2 C 15,6 C 58 % 1014,9 hPa 0,0 l/m 3,1 km/h (1 Bft) W 270 2 min 0,000 mm 3,5 UV-I 707 W/m 7,0 C 15,2 C 6,4 km/h (2 Bft) 98,00 %
15.09.2017 11:46 15,3 C 15,6 C 58 % 1014,9 hPa 0,0 l/m 8,6 km/h (2 Bft) W 279 2 min 0,000 mm 3,5 UV-I 711 W/m 7,1 C 14,1 C 11,3 km/h (2 Bft) 97,44 %
15.09.2017 11:48 15,3 C 15,6 C 55 % 1015,0 hPa 0,0 l/m 5,3 km/h (1 Bft) W 270 2 min 0,000 mm 3,4 UV-I 705 W/m 6,3 C 15,3 C 11,3 km/h (2 Bft) 97,87 %
15.09.2017 11:50 15,1 C 15,6 C 56 % 1014,9 hPa 0,0 l/m 1,9 km/h (1 Bft) W 270 2 min 0,000 mm 3,6 UV-I 720 W/m 6,4 C 15,1 C 4,8 km/h (1 Bft) 96,43 %
15.09.2017 11:52 15,1 C 15,6 C 57 % 1014,9 hPa 0,0 l/m 1,1 km/h (1 Bft) W-NW 303 2 min 0,000 mm 3,6 UV-I 714 W/m 6,6 C 15,1 C 3,2 km/h (1 Bft) 94,29 %
15.09.2017 11:54 15,1 C 15,6 C 55 % 1014,9 hPa 0,0 l/m 4,2 km/h (1 Bft) NW 323 2 min 0,000 mm 3,7 UV-I 692 W/m 6,1 C 15,1 C 6,4 km/h (2 Bft) 94,34 %
15.09.2017 11:56 15,2 C 15,6 C 61 % 1014,8 hPa 0,0 l/m 1,5 km/h (1 Bft) NW 319 2 min 0,000 mm 3,7 UV-I 727 W/m 7,7 C 15,2 C 3,2 km/h (1 Bft) 97,56 %
15.09.2017 11:58 15,3 C 15,6 C 58 % 1014,9 hPa 0,0 l/m 1,2 km/h (1 Bft) NW 319 2 min 0,000 mm 3,6 UV-I 728 W/m 7,1 C 15,3 C 3,2 km/h (1 Bft) 93,62 %
15.09.2017 12:00 15,5 C 15,6 C 56 % 1014,8 hPa 0,0 l/m 2,8 km/h (1 Bft) SO 144 2 min 0,381 mm 3,8 UV-I 736 W/m 6,8 C 15,5 C 8,0 km/h (2 Bft) 93,62 %
15.09.2017 12:02 15,5 C 15,6 C 57 % 1014,9 hPa 0,0 l/m 3,5 km/h (1 Bft) O-SO 115 2 min 0,000 mm 3,8 UV-I 740 W/m 7,0 C 15,5 C 6,4 km/h (2 Bft) 96,43 %
15.09.2017 12:04 15,6 C 15,6 C 57 % 1014,8 hPa 0,0 l/m 4,2 km/h (1 Bft) W-SW 249 2 min 0,000 mm 3,8 UV-I 742 W/m 7,1 C 15,6 C 6,4 km/h (2 Bft) 94,74 %
15.09.2017 12:06 15,7 C 15,6 C 56 % 1014,8 hPa 0,0 l/m 5,4 km/h (1 Bft) W-SW 239 2 min 0,000 mm 3,8 UV-I 748 W/m 6,9 C 15,7 C 9,7 km/h (2 Bft) 94,00 %
15.09.2017 12:08 15,7 C 15,6 C 54 % 1014,8 hPa 0,0 l/m 5,5 km/h (1 Bft) SW 236 2 min 0,000 mm 3,7 UV-I 715 W/m 6,4 C 15,7 C 8,0 km/h (2 Bft) 96,23 %
15.09.2017 12:10 15,5 C 15,6 C 53 % 1014,8 hPa 0,0 l/m 3,6 km/h (1 Bft) W 267 2 min 0,000 mm 3,9 UV-I 756 W/m 6,0 C 15,5 C 4,8 km/h (1 Bft) 94,74 %
15.09.2017 12:12 15,4 C 15,6 C 58 % 1014,7 hPa 0,0 l/m 2,1 km/h (1 Bft) W-NW 293 2 min 0,000 mm 3,5 UV-I 754 W/m 7,2 C 15,4 C 4,8 km/h (1 Bft) 95,74 %
15.09.2017 12:14 15,4 C 15,6 C 55 % 1014,7 hPa 0,0 l/m 6,0 km/h (2 Bft) O-SO 107 2 min 0,000 mm 3,9 UV-I 741 W/m 6,4 C 15,4 C 12,9 km/h (3 Bft) 96,23 %
15.09.2017 12:16 15,3 C 15,6 C 55 % 1014,6 hPa 0,0 l/m 3,5 km/h (1 Bft) N-NO 28 2 min 0,000 mm 3,9 UV-I 743 W/m 6,3 C 15,3 C 6,4 km/h (2 Bft) 94,74 %
15.09.2017 12:18 15,6 C 15,6 C 59 % 1014,6 hPa 0,0 l/m 4,8 km/h (1 Bft) NO 44 2 min 0,000 mm 3,9 UV-I 743 W/m 7,6 C 15,6 C 8,0 km/h (2 Bft) 94,34 %
15.09.2017 12:20 15,8 C 15,6 C 57 % 1014,5 hPa 0,0 l/m 3,0 km/h (1 Bft) NO 44 2 min 0,000 mm 3,9 UV-I 740 W/m 7,3 C 15,8 C 4,8 km/h (1 Bft) 94,34 %
15.09.2017 12:22 15,8 C 15,6 C 55 % 1014,5 hPa 0,0 l/m 2,1 km/h (1 Bft) NO 52 2 min 0,000 mm 3,9 UV-I 741 W/m 6,8 C 15,8 C 3,2 km/h (1 Bft) 97,22 %
15.09.2017 12:24 16,0 C 15,6 C 56 % 1014,4 hPa 0,0 l/m 6,4 km/h (2 Bft) O-NO 58 2 min 0,000 mm 3,8 UV-I 744 W/m 7,2 C 16,0 C 9,7 km/h (2 Bft) 95,74 %
15.09.2017 12:26 15,9 C 15,6 C 54 % 1014,4 hPa 0,0 l/m 4,4 km/h (1 Bft) O 82 2 min 0,000 mm 3,7 UV-I 700 W/m 6,6 C 15,9 C 6,4 km/h (2 Bft) 97,87 %
15.09.2017 12:28 15,6 C 16,1 C 53 % 1014,4 hPa 0,0 l/m 1,3 km/h (1 Bft) O 82 2 min 0,000 mm 4,0 UV-I 742 W/m 6,1 C 15,6 C 3,2 km/h (1 Bft) 97,87 %
15.09.2017 12:30 15,7 C 16,1 C 58 % 1014,4 hPa 0,0 l/m 3,1 km/h (1 Bft) NO 56 2 min 0,000 mm 4,0 UV-I 746 W/m 7,5 C 15,7 C 6,4 km/h (2 Bft) 96,23 %
15.09.2017 12:32 15,8 C 16,1 C 58 % 1014,3 hPa 0,0 l/m 5,1 km/h (1 Bft) O 88 2 min 0,000 mm 4,0 UV-I 742 W/m 7,6 C 15,8 C 6,4 km/h (2 Bft) 97,56 %
15.09.2017 12:34 16,1 C 16,1 C 57 % 1014,3 hPa 0,0 l/m 4,7 km/h (1 Bft) O-NO 61 2 min 0,000 mm 3,7 UV-I 731 W/m 7,6 C 16,1 C 8,0 km/h (2 Bft) 94,64 %
15.09.2017 12:36 16,2 C 16,1 C 54 % 1014,3 hPa 0,0 l/m 4,0 km/h (1 Bft) NO 50 2 min 0,000 mm 4,0 UV-I 728 W/m 6,9 C 16,2 C 12,9 km/h (3 Bft) 97,56 %
15.09.2017 12:38 16,1 C 16,1 C 54 % 1014,2 hPa 0,0 l/m 5,4 km/h (1 Bft) NO 42 2 min 0,000 mm 4,0 UV-I 729 W/m 6,8 C 16,1 C 9,7 km/h (2 Bft) 94,34 %
15.09.2017 12:40 16,1 C 16,1 C 57 % 1014,2 hPa 0,0 l/m 8,5 km/h (2 Bft) NO 39 2 min 0,000 mm 4,0 UV-I 731 W/m 7,6 C 15,0 C 17,7 km/h (3 Bft) 97,87 %
15.09.2017 12:42 16,1 C 16,1 C 56 % 1014,2 hPa 0,0 l/m 9,9 km/h (2 Bft) NO 43 2 min 0,000 mm 3,8 UV-I 722 W/m 7,3 C 14,4 C 16,1 km/h (3 Bft) 97,37 %
15.09.2017 12:44 16,2 C 16,1 C 56 % 1014,1 hPa 0,0 l/m 10,2 km/h (2 Bft) O-NO 62 2 min 0,000 mm 3,8 UV-I 713 W/m 7,4 C 14,4 C 14,5 km/h (3 Bft) 98,00 %
15.09.2017 12:46 16,2 C 16,1 C 56 % 1014,2 hPa 0,0 l/m 7,7 km/h (2 Bft) N-NO 32 2 min 0,000 mm 4,0 UV-I 726 W/m 7,4 C 15,5 C 11,3 km/h (2 Bft) 96,00 %
15.09.2017 12:48 16,3 C 16,1 C 56 % 1014,1 hPa 0,0 l/m 6,4 km/h (2 Bft) NO 46 2 min 0,000 mm 4,0 UV-I 734 W/m 7,5 C 16,3 C 11,3 km/h (2 Bft) 97,37 %
15.09.2017 12:50 16,3 C 16,1 C 55 % 1014,1 hPa 0,0 l/m 5,7 km/h (1 Bft) O-NO 76 2 min 0,000 mm 4,0 UV-I 732 W/m 7,2 C 16,3 C 11,3 km/h (2 Bft) 98,11 %
15.09.2017 12:52 16,4 C 16,1 C 59 % 1014,1 hPa 0,0 l/m 3,7 km/h (1 Bft) N-NO 17 2 min 0,000 mm 4,0 UV-I 724 W/m 8,4 C 16,4 C 6,4 km/h (2 Bft) 98,00 %
15.09.2017 12:54 16,6 C 16,1 C 56 % 1014,0 hPa 0,0 l/m 3,4 km/h (1 Bft) N-NO 29 2 min 0,000 mm 4,0 UV-I 722 W/m 7,8 C 16,6 C 8,0 km/h (2 Bft) 97,37 %
15.09.2017 12:56 16,7 C 16,1 C 61 % 1014,0 hPa 0,0 l/m 2,7 km/h (1 Bft) N 9 2 min 0,000 mm 4,0 UV-I 726 W/m 9,1 C 16,7 C 6,4 km/h (2 Bft) 95,74 %
15.09.2017 12:58 16,5 C 16,1 C 57 % 1013,9 hPa 0,0 l/m 4,5 km/h (1 Bft) NO 42 2 min 0,000 mm 4,0 UV-I 733 W/m 8,0 C 16,5 C 11,3 km/h (2 Bft) 98,00 %
15.09.2017 13:00 16,6 C 16,1 C 55 % 1014,0 hPa 0,0 l/m 7,7 km/h (2 Bft) O 85 2 min 0,407 mm 4,0 UV-I 724 W/m 7,5 C 15,9 C 14,5 km/h (3 Bft) 98,00 %
15.09.2017 13:02 16,7 C 16,1 C 57 % 1013,8 hPa 0,0 l/m 9,4 km/h (2 Bft) O-SO 104 2 min 0,000 mm 4,0 UV-I 709 W/m 8,1 C 15,2 C 16,1 km/h (3 Bft) 94,00 %
15.09.2017 13:04 16,7 C 16,1 C 52 % 1013,8 hPa 0,0 l/m 4,2 km/h (1 Bft) SO 144 2 min 0,000 mm 3,9 UV-I 705 W/m 6,8 C 16,7 C 12,9 km/h (3 Bft) 94,87 %
15.09.2017 13:06 16,6 C 16,1 C 50 % 1013,7 hPa 0,0 l/m 3,3 km/h (1 Bft) O-SO 122 2 min 0,000 mm 3,5 UV-I 622 W/m 6,1 C 16,6 C 9,7 km/h (2 Bft) 98,00 %
15.09.2017 13:08 16,4 C 16,1 C 52 % 1013,7 hPa 0,0 l/m 3,5 km/h (1 Bft) O-SO 107 2 min 0,000 mm 3,8 UV-I 671 W/m 6,5 C 16,4 C 6,4 km/h (2 Bft) 97,87 %
15.09.2017 13:10 16,4 C 16,1 C 55 % 1013,6 hPa 0,0 l/m 4,5 km/h (1 Bft) SO 128 2 min 0,000 mm 3,7 UV-I 578 W/m 7,3 C 16,4 C 9,7 km/h (2 Bft) 97,73 %
15.09.2017 13:12 16,5 C 16,1 C 54 % 1013,5 hPa 0,0 l/m 9,9 km/h (2 Bft) O-NO 63 2 min 0,000 mm 3,7 UV-I 563 W/m 7,2 C 14,8 C 16,1 km/h (3 Bft) 98,00 %
15.09.2017 13:14 16,5 C 16,1 C 54 % 1013,5 hPa 0,0 l/m 10,4 km/h (2 Bft) O 98 2 min 0,000 mm 3,6 UV-I 580 W/m 7,2 C 14,6 C 16,1 km/h (3 Bft) 97,87 %
15.09.2017 13:16 16,3 C 16,1 C 54 % 1013,5 hPa 0,0 l/m 7,2 km/h (2 Bft) NO 34 2 min 0,000 mm 3,3 UV-I 522 W/m 7,0 C 15,9 C 12,9 km/h (3 Bft) 97,73 %
15.09.2017 13:18 16,3 C 16,1 C 56 % 1013,5 hPa 0,0 l/m 7,5 km/h (2 Bft) NO 50 2 min 0,000 mm 3,9 UV-I 522 W/m 7,5 C 15,7 C 11,3 km/h (2 Bft) 97,73 %
15.09.2017 13:20 16,3 C 16,1 C 55 % 1013,5 hPa 0,0 l/m 4,2 km/h (1 Bft) NO 45 2 min 0,000 mm 4,0 UV-I 733 W/m 7,2 C 16,3 C 9,7 km/h (2 Bft) 95,74 %
15.09.2017 13:22 16,6 C 16,1 C 56 % 1013,4 hPa 0,0 l/m 5,9 km/h (2 Bft) O-NO 61 2 min 0,000 mm 4,0 UV-I 754 W/m 7,8 C 16,6 C 16,1 km/h (3 Bft) 97,73 %
15.09.2017 13:24 16,7 C 16,1 C 54 % 1013,4 hPa 0,0 l/m 11,0 km/h (2 Bft) N-NO 30 2 min 0,000 mm 4,0 UV-I 737 W/m 7,3 C 14,6 C 17,7 km/h (3 Bft) 98,11 %
15.09.2017 13:26 16,8 C 16,1 C 55 % 1013,3 hPa 0,0 l/m 6,0 km/h (2 Bft) NO 38 2 min 0,000 mm 4,0 UV-I 753 W/m 7,7 C 16,8 C 11,3 km/h (2 Bft) 94,00 %
15.09.2017 13:28 16,9 C 16,1 C 52 % 1013,3 hPa 0,0 l/m 13,7 km/h (3 Bft) O-NO 66 2 min 0,000 mm 4,0 UV-I 762 W/m 7,0 C 13,9 C 20,9 km/h (4 Bft) 97,37 %
15.09.2017 13:30 16,9 C 16,1 C 51 % 1013,2 hPa 0,0 l/m 13,2 km/h (3 Bft) O-NO 69 2 min 0,000 mm 2,8 UV-I 777 W/m 6,7 C 14,1 C 19,3 km/h (3 Bft) 96,23 %
15.09.2017 13:32 16,6 C 16,1 C 52 % 1013,3 hPa 0,0 l/m 11,9 km/h (2 Bft) NO 36 0 min 0,000 mm 2,4 UV-I 181 W/m 6,7 C 14,2 C 17,7 km/h (3 Bft) 98,00 %
15.09.2017 13:34 16,5 C 16,1 C 53 % 1013,2 hPa 0,0 l/m 12,1 km/h (2 Bft) O 82 0 min 0,000 mm 3,8 UV-I 316 W/m 6,9 C 14,0 C 16,1 km/h (3 Bft) 98,04 %
15.09.2017 13:36 16,7 C 16,1 C 54 % 1013,2 hPa 0,0 l/m 6,6 km/h (2 Bft) N-NO 30 2 min 0,000 mm 3,9 UV-I 747 W/m 7,3 C 16,6 C 12,9 km/h (3 Bft) 97,14 %
15.09.2017 13:38 16,9 C 16,1 C 55 % 1013,1 hPa 0,0 l/m 11,5 km/h (2 Bft) N-NO 23 2 min 0,000 mm 3,9 UV-I 747 W/m 7,8 C 14,6 C 16,1 km/h (3 Bft) 97,92 %
15.09.2017 13:40 16,9 C 16,1 C 55 % 1013,0 hPa 0,0 l/m 6,5 km/h (2 Bft) NO 42 2 min 0,000 mm 3,9 UV-I 770 W/m 7,8 C 16,9 C 11,3 km/h (2 Bft) 97,87 %
15.09.2017 13:42 17,1 C 16,1 C 60 % 1013,1 hPa 0,0 l/m 9,2 km/h (2 Bft) N-NO 33 2 min 0,000 mm 3,8 UV-I 740 W/m 9,3 C 15,8 C 17,7 km/h (3 Bft) 96,36 %
15.09.2017 13:44 17,2 C 16,1 C 53 % 1013,0 hPa 0,0 l/m 15,2 km/h (3 Bft) O-NO 67 2 min 0,000 mm 3,8 UV-I 771 W/m 7,5 C 13,8 C 20,9 km/h (4 Bft) 92,86 %
15.09.2017 13:46 17,1 C 16,1 C 51 % 1013,0 hPa 0,0 l/m 13,1 km/h (3 Bft) O-NO 66 2 min 0,000 mm 3,4 UV-I 696 W/m 6,9 C 14,3 C 20,9 km/h (4 Bft) 95,45 %
15.09.2017 13:48 16,9 C 16,1 C 52 % 1012,9 hPa 0,0 l/m 10,4 km/h (2 Bft) NO 50 2 min 0,000 mm 3,6 UV-I 723 W/m 7,0 C 15,1 C 14,5 km/h (3 Bft) 95,45 %
15.09.2017 13:50 17,0 C 16,1 C 55 % 1012,8 hPa 0,0 l/m 13,2 km/h (3 Bft) O-NO 57 2 min 0,000 mm 3,8 UV-I 770 W/m 7,9 C 14,2 C 22,5 km/h (4 Bft) 92,45 %
15.09.2017 13:52 17,0 C 16,1 C 51 % 1012,7 hPa 0,0 l/m 14,8 km/h (3 Bft) N-NO 18 2 min 0,000 mm 3,3 UV-I 758 W/m 6,8 C 13,7 C 22,5 km/h (4 Bft) 96,23 %
15.09.2017 13:54 16,9 C 16,1 C 54 % 1012,6 hPa 0,0 l/m 10,9 km/h (2 Bft) NO 41 2 min 0,000 mm 3,3 UV-I 669 W/m 7,5 C 14,9 C 17,7 km/h (3 Bft) 97,14 %
15.09.2017 13:56 16,8 C 16,1 C 55 % 1012,6 hPa 0,0 l/m 18,5 km/h (3 Bft) O-NO 67 2 min 0,000 mm 3,5 UV-I 527 W/m 7,7 C 12,4 C 25,7 km/h (4 Bft) 96,43 %
15.09.2017 13:58 16,7 C 16,1 C 53 % 1012,6 hPa 0,0 l/m 11,1 km/h (2 Bft) O 84 0 min 0,000 mm 2,4 UV-I 332 W/m 7,1 C 14,6 C 20,9 km/h (4 Bft) 100,00 %
15.09.2017 14:00 16,6 C 16,1 C 54 % 1012,5 hPa 0,0 l/m 12,5 km/h (3 Bft) NO 46 0 min 0,000 mm 2,4 UV-I 272 W/m 7,3 C 13,9 C 20,9 km/h (4 Bft) 98,21 %
15.09.2017 14:02 16,5 C 16,1 C 57 % 1012,4 hPa 0,0 l/m 16,3 km/h (3 Bft) O 86 2 min 0,406 mm 3,2 UV-I 401 W/m 8,0 C 12,6 C 24,1 km/h (4 Bft) 97,73 %
15.09.2017 14:04 16,6 C 16,1 C 54 % 1012,5 hPa 0,0 l/m 18,6 km/h (3 Bft) NO 55 2 min 0,000 mm 3,6 UV-I 754 W/m 7,3 C 12,1 C 25,7 km/h (4 Bft) 97,37 %
15.09.2017 14:06 16,7 C 16,1 C 54 % 1012,4 hPa 0,0 l/m 10,0 km/h (2 Bft) NO 50 2 min 0,000 mm 3,4 UV-I 780 W/m 7,3 C 15,0 C 17,7 km/h (3 Bft) 98,00 %
15.09.2017 14:08 16,8 C 16,1 C 53 % 1012,4 hPa 0,0 l/m 11,9 km/h (2 Bft) NO 49 2 min 0,000 mm 3,4 UV-I 729 W/m 7,2 C 14,4 C 16,1 km/h (3 Bft) 96,23 %
15.09.2017 14:10 16,9 C 16,1 C 53 % 1012,4 hPa 0,0 l/m 13,7 km/h (3 Bft) NO 42 2 min 0,000 mm 3,1 UV-I 687 W/m 7,3 C 13,9 C 19,3 km/h (3 Bft) 97,37 %
15.09.2017 14:12 16,9 C 16,1 C 55 % 1012,4 hPa 0,0 l/m 10,4 km/h (2 Bft) N-NO 26 2 min 0,000 mm 3,2 UV-I 519 W/m 7,8 C 15,1 C 20,9 km/h (4 Bft) 100,00 %
15.09.2017 14:14 17,2 C 16,1 C 54 % 1012,4 hPa 0,0 l/m 10,8 km/h (2 Bft) N-NO 29 2 min 0,000 mm 3,4 UV-I 515 W/m 7,8 C 15,2 C 17,7 km/h (3 Bft) 100,00 %
15.09.2017 14:16 17,2 C 16,1 C 53 % 1012,5 hPa 0,0 l/m 16,5 km/h (3 Bft) O-NO 76 2 min 0,000 mm 3,5 UV-I 707 W/m 7,5 C 13,4 C 24,1 km/h (4 Bft) 97,44 %
15.09.2017 14:18 17,1 C 16,1 C 53 % 1012,5 hPa 0,0 l/m 19,3 km/h (3 Bft) O 90 2 min 0,000 mm 3,1 UV-I 594 W/m 7,4 C 12,6 C 27,4 km/h (4 Bft) 100,00 %
15.09.2017 14:20 17,0 C 16,1 C 54 % 1012,6 hPa 0,0 l/m 14,2 km/h (3 Bft) O-NO 66 2 min 0,000 mm 3,2 UV-I 697 W/m 7,6 C 13,9 C 22,5 km/h (4 Bft) 100,00 %
15.09.2017 14:22 17,1 C 16,1 C 53 % 1012,6 hPa 0,0 l/m 14,3 km/h (3 Bft) O-NO 71 2 min 0,000 mm 3,3 UV-I 745 W/m 7,4 C 13,9 C 20,9 km/h (4 Bft) 100,00 %
15.09.2017 14:24 17,1 C 16,1 C 56 % 1012,6 hPa 0,0 l/m 13,0 km/h (3 Bft) NO 44 2 min 0,000 mm 2,9 UV-I 737 W/m 8,3 C 14,4 C 19,3 km/h (3 Bft) 100,00 %
15.09.2017 14:26 16,9 C 16,1 C 55 % 1012,6 hPa 0,0 l/m 9,3 km/h (2 Bft) N-NO 22 2 min 0,000 mm 3,0 UV-I 737 W/m 7,8 C 15,5 C 19,3 km/h (3 Bft) 100,00 %
15.09.2017 14:28 16,8 C 16,1 C 57 % 1012,5 hPa 0,0 l/m 11,6 km/h (2 Bft) NO 34 2 min 0,000 mm 3,2 UV-I 716 W/m 8,2 C 14,5 C 20,9 km/h (4 Bft) 100,00 %
15.09.2017 14:30 16,8 C 16,1 C 58 % 1012,5 hPa 0,0 l/m 6,8 km/h (2 Bft) N 355 2 min 0,000 mm 3,4 UV-I 719 W/m 8,5 C 16,6 C 14,5 km/h (3 Bft) 100,00 %
15.09.2017 14:32 16,9 C 16,1 C 60 % 1012,4 hPa 0,0 l/m 12,4 km/h (3 Bft) N-NO 24 2 min 0,000 mm 3,3 UV-I 683 W/m 9,1 C 14,3 C 25,7 km/h (4 Bft) 100,00 %
15.09.2017 14:34 16,9 C 16,1 C 56 % 1012,3 hPa 0,0 l/m 14,6 km/h (3 Bft) NO 51 2 min 0,000 mm 3,0 UV-I 633 W/m 8,1 C 13,6 C 22,5 km/h (4 Bft) 100,00 %
15.09.2017 14:36 16,8 C 16,1 C 58 % 1012,4 hPa 0,0 l/m 9,4 km/h (2 Bft) N-NO 13 2 min 0,000 mm 3,0 UV-I 624 W/m 8,5 C 15,4 C 17,7 km/h (3 Bft) 100,00 %
15.09.2017 14:38 16,9 C 16,1 C 59 % 1012,4 hPa 0,0 l/m 2,8 km/h (1 Bft) N-NO 22 2 min 0,000 mm 3,3 UV-I 694 W/m 8,8 C 16,9 C 6,4 km/h (2 Bft) 100,00 %
15.09.2017 14:40 17,0 C 16,1 C 57 % 1012,4 hPa 0,0 l/m 6,9 km/h (2 Bft) O-NO 67 2 min 0,000 mm 2,9 UV-I 728 W/m 8,4 C 16,8 C 16,1 km/h (3 Bft) 100,00 %
15.09.2017 14:42 17,1 C 16,1 C 55 % 1012,3 hPa 0,0 l/m 10,1 km/h (2 Bft) O 90 2 min 0,000 mm 3,1 UV-I 721 W/m 8,0 C 15,4 C 16,1 km/h (3 Bft) 100,00 %
15.09.2017 14:44 17,2 C 16,1 C 53 % 1012,3 hPa 0,0 l/m 15,2 km/h (3 Bft) O 89 2 min 0,000 mm 3,2 UV-I 702 W/m 7,5 C 13,8 C 20,9 km/h (4 Bft) 100,00 %
15.09.2017 14:46 17,2 C 16,1 C 54 % 1012,3 hPa 0,0 l/m 7,8 km/h (2 Bft) O-NO 57 2 min 0,000 mm 2,8 UV-I 694 W/m 7,8 C 16,5 C 16,1 km/h (3 Bft) 100,00 %
15.09.2017 14:48 17,3 C 16,1 C 52 % 1012,3 hPa 0,0 l/m 15,9 km/h (3 Bft) NO 48 2 min 0,000 mm 2,8 UV-I 737 W/m 7,3 C 13,7 C 24,1 km/h (4 Bft) 100,00 %
15.09.2017 14:50 17,2 C 16,1 C 52 % 1012,3 hPa 0,0 l/m 10,9 km/h (2 Bft) O-NO 65 2 min 0,000 mm 2,7 UV-I 503 W/m 7,3 C 15,2 C 20,9 km/h (4 Bft) 100,00 %
15.09.2017 14:52 17,2 C 16,1 C 52 % 1012,3 hPa 0,0 l/m 8,2 km/h (2 Bft) N-NO 14 2 min 0,000 mm 3,2 UV-I 690 W/m 7,3 C 16,3 C 14,5 km/h (3 Bft) 100,00 %
15.09.2017 14:54 17,2 C 16,1 C 55 % 1012,2 hPa 0,0 l/m 12,5 km/h (3 Bft) O 82 2 min 0,000 mm 2,5 UV-I 754 W/m 8,1 C 14,6 C 19,3 km/h (3 Bft) 100,00 %
15.09.2017 14:56 17,2 C 16,1 C 51 % 1012,2 hPa 0,0 l/m 11,1 km/h (2 Bft) N-NO 32 2 min 0,000 mm 1,9 UV-I 418 W/m 7,0 C 15,1 C 16,1 km/h (3 Bft) 100,00 %
15.09.2017 14:58 17,0 C 16,1 C 49 % 1012,2 hPa 0,0 l/m 12,0 km/h (2 Bft) NO 50 0 min 0,000 mm 1,9 UV-I 250 W/m 6,2 C 14,6 C 19,3 km/h (3 Bft) 98,11 %
15.09.2017 15:00 16,9 C 16,1 C 54 % 1012,2 hPa 0,0 l/m 7,7 km/h (2 Bft) NO 38 0 min 0,406 mm 2,2 UV-I 297 W/m 7,5 C 16,2 C 14,5 km/h (3 Bft) 100,00 %
15.09.2017 15:02 17,0 C 16,1 C 51 % 1012,2 hPa 0,0 l/m 12,6 km/h (3 Bft) O 80 2 min 0,000 mm 3,2 UV-I 633 W/m 6,8 C 14,4 C 19,3 km/h (3 Bft) 100,00 %
15.09.2017 15:04 17,1 C 16,1 C 49 % 1012,3 hPa 0,0 l/m 11,8 km/h (2 Bft) O-NO 63 2 min 0,000 mm 2,3 UV-I 724 W/m 6,3 C 14,8 C 16,1 km/h (3 Bft) 100,00 %
15.09.2017 15:06 16,9 C 16,1 C 50 % 1012,2 hPa 0,0 l/m 6,1 km/h (2 Bft) N-NO 28 0 min 0,000 mm 2,0 UV-I 261 W/m 6,4 C 16,9 C 8,0 km/h (2 Bft) 100,00 %
15.09.2017 15:08 16,8 C 16,1 C 52 % 1012,1 hPa 0,0 l/m 6,4 km/h (2 Bft) O-NO 68 2 min 0,000 mm 2,3 UV-I 372 W/m 6,9 C 16,8 C 12,9 km/h (3 Bft) 100,00 %
15.09.2017 15:10 16,9 C 16,1 C 55 % 1012,1 hPa 0,0 l/m 8,1 km/h (2 Bft) N-NO 28 2 min 0,000 mm 2,6 UV-I 557 W/m 7,8 C 16,0 C 12,9 km/h (3 Bft) 100,00 %
15.09.2017 15:12 17,2 C 16,1 C 56 % 1012,1 hPa 0,0 l/m 7,8 km/h (2 Bft) O 90 2 min 0,000 mm 2,6 UV-I 693 W/m 8,3 C 16,5 C 14,5 km/h (3 Bft) 100,00 %
15.09.2017 15:14 17,3 C 16,1 C 52 % 1012,1 hPa 0,0 l/m 11,8 km/h (2 Bft) N-NO 23 2 min 0,000 mm 2,5 UV-I 675 W/m 7,3 C 15,0 C 16,1 km/h (3 Bft) 100,00 %
15.09.2017 15:16 17,3 C 16,1 C 52 % 1012,1 hPa 0,0 l/m 11,4 km/h (2 Bft) NO 50 2 min 0,000 mm 2,6 UV-I 644 W/m 7,3 C 15,1 C 17,7 km/h (3 Bft) 100,00 %
15.09.2017 15:18 17,3 C 16,1 C 51 % 1012,2 hPa 0,0 l/m 12,6 km/h (3 Bft) NO 55 2 min 0,000 mm 2,6 UV-I 634 W/m 7,1 C 14,7 C 20,9 km/h (4 Bft) 100,00 %
15.09.2017 15:20 17,4 C 16,1 C 54 % 1012,2 hPa 0,0 l/m 11,4 km/h (2 Bft) NO 42 2 min 0,000 mm 2,5 UV-I 603 W/m 8,0 C 15,2 C 16,1 km/h (3 Bft) 100,00 %
15.09.2017 15:22 17,4 C 16,1 C 50 % 1012,2 hPa 0,0 l/m 8,5 km/h (2 Bft) O 82 2 min 0,000 mm 2,5 UV-I 569 W/m 6,9 C 16,4 C 12,9 km/h (3 Bft) 95,74 %
15.09.2017 15:24 17,4 C 16,1 C 52 % 1012,2 hPa 0,0 l/m 6,7 km/h (2 Bft) N-NO 24 2 min 0,000 mm 2,4 UV-I 574 W/m 7,4 C 17,3 C 14,5 km/h (3 Bft) 100,00 %
15.09.2017 15:26 17,3 C 16,1 C 50 % 1012,2 hPa 0,0 l/m 7,3 km/h (2 Bft) O-NO 63 2 min 0,000 mm 2,4 UV-I 564 W/m 6,8 C 16,9 C 12,9 km/h (3 Bft) 100,00 %
15.09.2017 15:28 17,4 C 16,1 C 49 % 1012,2 hPa 0,0 l/m 7,4 km/h (2 Bft) O-NO 71 2 min 0,000 mm 2,3 UV-I 552 W/m 6,6 C 16,9 C 12,9 km/h (3 Bft) 96,23 %
15.09.2017 15:30 17,4 C 16,1 C 52 % 1012,2 hPa 0,0 l/m 9,1 km/h (2 Bft) O-NO 68 2 min 0,000 mm 2,3 UV-I 553 W/m 7,4 C 16,1 C 17,7 km/h (3 Bft) 96,30 %
15.09.2017 15:32 17,5 C 16,1 C 50 % 1012,1 hPa 0,0 l/m 12,5 km/h (3 Bft) O-NO 78 2 min 0,000 mm 2,3 UV-I 549 W/m 7,0 C 15,0 C 19,3 km/h (3 Bft) 98,39 %
15.09.2017 15:34 17,5 C 16,1 C 49 % 1012,1 hPa 0,0 l/m 7,8 km/h (2 Bft) NO 55 2 min 0,000 mm 2,2 UV-I 544 W/m 6,7 C 16,8 C 12,9 km/h (3 Bft) 98,11 %
15.09.2017 15:36 17,5 C 16,1 C 51 % 1012,1 hPa 0,0 l/m 8,6 km/h (2 Bft) NO 38 2 min 0,000 mm 2,2 UV-I 541 W/m 7,3 C 16,5 C 14,5 km/h (3 Bft) 95,74 %
15.09.2017 15:38 17,4 C 16,1 C 50 % 1012,1 hPa 0,0 l/m 2,5 km/h (1 Bft) NO 38 2 min 0,000 mm 2,2 UV-I 533 W/m 6,9 C 17,4 C 6,4 km/h (2 Bft) 97,37 %
15.09.2017 15:40 17,3 C 16,1 C 50 % 1012,0 hPa 0,0 l/m 3,3 km/h (1 Bft) NO 46 2 min 0,000 mm 2,1 UV-I 523 W/m 6,8 C 17,3 C 6,4 km/h (2 Bft) 98,21 %
15.09.2017 15:42 17,3 C 16,1 C 54 % 1012,0 hPa 0,0 l/m 12,0 km/h (2 Bft) NO 40 2 min 0,000 mm 2,1 UV-I 522 W/m 7,9 C 14,9 C 19,3 km/h (3 Bft) 98,11 %
15.09.2017 15:44 17,4 C 16,1 C 52 % 1012,0 hPa 0,0 l/m 12,5 km/h (3 Bft) O-NO 73 2 min 0,000 mm 2,1 UV-I 517 W/m 7,4 C 14,9 C 17,7 km/h (3 Bft) 97,56 %
15.09.2017 15:46 17,6 C 16,1 C 53 % 1011,9 hPa 0,0 l/m 8,1 km/h (2 Bft) NO 49 2 min 0,000 mm 2,1 UV-I 514 W/m 7,9 C 16,8 C 12,9 km/h (3 Bft) 98,00 %
15.09.2017 15:48 17,7 C 16,1 C 53 % 1011,9 hPa 0,0 l/m 10,1 km/h (2 Bft) NO 34 2 min 0,000 mm 2,0 UV-I 512 W/m 8,0 C 16,1 C 17,7 km/h (3 Bft) 98,00 %
15.09.2017 15:50 17,6 C 16,1 C 53 % 1011,9 hPa 0,0 l/m 6,1 km/h (2 Bft) N-NO 21 2 min 0,000 mm 2,0 UV-I 507 W/m 7,9 C 17,6 C 12,9 km/h (3 Bft) 93,62 %
15.09.2017 15:52 17,5 C 16,1 C 56 % 1011,8 hPa 0,0 l/m 11,1 km/h (2 Bft) NO 49 2 min 0,000 mm 1,9 UV-I 501 W/m 8,6 C 15,5 C 16,1 km/h (3 Bft) 97,56 %
15.09.2017 15:54 17,4 C 16,1 C 52 % 1011,6 hPa 0,0 l/m 9,0 km/h (2 Bft) N 5 2 min 0,000 mm 1,9 UV-I 496 W/m 7,4 C 16,2 C 14,5 km/h (3 Bft) 97,56 %
15.09.2017 15:56 17,6 C 16,1 C 56 % 1011,6 hPa 0,0 l/m 13,6 km/h (3 Bft) N-NO 15 2 min 0,000 mm 1,9 UV-I 492 W/m 8,7 C 14,8 C 19,3 km/h (3 Bft) 98,15 %
15.09.2017 15:58 17,6 C 16,1 C 54 % 1011,5 hPa 0,0 l/m 13,1 km/h (3 Bft) NO 36 2 min 0,000 mm 1,8 UV-I 490 W/m 8,2 C 14,9 C 17,7 km/h (3 Bft) 97,73 %
15.09.2017 16:00 17,6 C 16,1 C 57 % 1011,5 hPa 0,0 l/m 10,5 km/h (2 Bft) O-NO 60 2 min 0,000 mm 1,8 UV-I 494 W/m 9,0 C 15,8 C 16,1 km/h (3 Bft) 97,73 %
15.09.2017 16:02 17,4 C 16,1 C 54 % 1011,5 hPa 0,0 l/m 9,9 km/h (2 Bft) NO 42 2 min 0,356 mm 1,8 UV-I 482 W/m 8,0 C 15,8 C 16,1 km/h (3 Bft) 96,23 %
15.09.2017 16:04 17,3 C 16,1 C 53 % 1011,5 hPa 0,0 l/m 7,7 km/h (2 Bft) NO 55 2 min 0,000 mm 1,7 UV-I 409 W/m 7,6 C 16,7 C 12,9 km/h (3 Bft) 96,23 %
15.09.2017 16:06 17,4 C 16,1 C 52 % 1011,5 hPa 0,0 l/m 8,4 km/h (2 Bft) NO 45 2 min 0,000 mm 1,8 UV-I 357 W/m 7,4 C 16,4 C 11,3 km/h (2 Bft) 100,00 %
15.09.2017 16:08 17,5 C 16,1 C 52 % 1011,4 hPa 0,0 l/m 11,7 km/h (2 Bft) O 86 2 min 0,000 mm 1,8 UV-I 506 W/m 7,5 C 15,3 C 17,7 km/h (3 Bft) 100,00 %
15.09.2017 16:10 17,6 C 16,1 C 50 % 1011,4 hPa 0,0 l/m 10,8 km/h (2 Bft) NO 51 2 min 0,000 mm 1,6 UV-I 517 W/m 7,1 C 15,7 C 17,7 km/h (3 Bft) 100,00 %
15.09.2017 16:12 17,5 C 16,1 C 51 % 1011,3 hPa 0,0 l/m 8,6 km/h (2 Bft) NO 46 2 min 0,000 mm 1,5 UV-I 422 W/m 7,3 C 16,5 C 14,5 km/h (3 Bft) 100,00 %
15.09.2017 16:14 17,4 C 16,1 C 53 % 1011,3 hPa 0,0 l/m 8,7 km/h (2 Bft) N-NO 28 2 min 0,000 mm 1,5 UV-I 415 W/m 7,7 C 16,3 C 17,7 km/h (3 Bft) 100,00 %
15.09.2017 16:16 17,3 C 16,1 C 54 % 1011,4 hPa 0,0 l/m 10,5 km/h (2 Bft) N 9 2 min 0,000 mm 1,5 UV-I 429 W/m 7,9 C 15,5 C 19,3 km/h (3 Bft) 100,00 %
15.09.2017 16:18 17,3 C 16,1 C 56 % 1011,3 hPa 0,0 l/m 8,6 km/h (2 Bft) O-NO 78 2 min 0,000 mm 1,5 UV-I 442 W/m 8,4 C 16,2 C 12,9 km/h (3 Bft) 100,00 %
15.09.2017 16:20 17,3 C 16,1 C 52 % 1011,3 hPa 0,0 l/m 10,8 km/h (2 Bft) NO 44 2 min 0,000 mm 1,4 UV-I 418 W/m 7,3 C 15,4 C 20,9 km/h (4 Bft) 100,00 %
15.09.2017 16:22 17,3 C 16,1 C 55 % 1011,2 hPa 0,0 l/m 9,5 km/h (2 Bft) N-NO 19 2 min 0,000 mm 1,4 UV-I 424 W/m 8,2 C 15,9 C 16,1 km/h (3 Bft) 95,45 %
15.09.2017 16:24 17,3 C 16,1 C 56 % 1011,2 hPa 0,0 l/m 6,5 km/h (2 Bft) N 350 2 min 0,000 mm 1,3 UV-I 365 W/m 8,4 C 17,3 C 12,9 km/h (3 Bft) 100,00 %
15.09.2017 16:26 17,3 C 16,1 C 56 % 1011,2 hPa 0,0 l/m 6,8 km/h (2 Bft) N-NW 345 0 min 0,000 mm 1,2 UV-I 244 W/m 8,4 C 17,1 C 17,7 km/h (3 Bft) 100,00 %
15.09.2017 16:28 17,2 C 16,1 C 58 % 1011,3 hPa 0,0 l/m 10,5 km/h (2 Bft) NO 38 0 min 0,000 mm 1,2 UV-I 206 W/m 8,9 C 15,4 C 16,1 km/h (3 Bft) 100,00 %
15.09.2017 16:30 17,2 C 16,1 C 57 % 1011,3 hPa 0,0 l/m 7,1 km/h (2 Bft) O-NO 72 0 min 0,000 mm 1,3 UV-I 216 W/m 8,6 C 16,9 C 16,1 km/h (3 Bft) 100,00 %
15.09.2017 16:32 17,4 C 16,1 C 53 % 1011,3 hPa 0,0 l/m 6,6 km/h (2 Bft) NO 55 2 min 0,000 mm 1,3 UV-I 458 W/m 7,7 C 17,3 C 9,7 km/h (2 Bft) 96,23 %
15.09.2017 16:34 17,4 C 16,1 C 56 % 1011,2 hPa 0,0 l/m 8,4 km/h (2 Bft) N-NO 25 2 min 0,000 mm 1,3 UV-I 471 W/m 8,5 C 16,4 C 16,1 km/h (3 Bft) 100,00 %
15.09.2017 16:36 17,2 C 16,1 C 58 % 1011,2 hPa 0,0 l/m 6,0 km/h (2 Bft) N 360 2 min 0,000 mm 1,2 UV-I 406 W/m 8,9 C 17,2 C 12,9 km/h (3 Bft) 100,00 %
15.09.2017 16:38 17,1 C 16,1 C 56 % 1011,2 hPa 0,0 l/m 4,2 km/h (1 Bft) NO 36 2 min 0,000 mm 1,1 UV-I 348 W/m 8,3 C 17,1 C 8,0 km/h (2 Bft) 97,14 %
15.09.2017 16:40 16,9 C 16,1 C 56 % 1011,2 hPa 0,0 l/m 5,8 km/h (2 Bft) N-NO 21 0 min 0,000 mm 1,0 UV-I 220 W/m 8,1 C 16,9 C 14,5 km/h (3 Bft) 100,00 %
15.09.2017 16:42 16,8 C 16,1 C 56 % 1011,3 hPa 0,0 l/m 8,6 km/h (2 Bft) N-NO 26 0 min 0,000 mm 0,8 UV-I 171 W/m 8,0 C 15,7 C 14,5 km/h (3 Bft) 100,00 %
15.09.2017 16:44 16,7 C 16,1 C 57 % 1011,3 hPa 0,0 l/m 5,9 km/h (2 Bft) N-NO 23 2 min 0,000 mm 0,8 UV-I 227 W/m 8,1 C 16,7 C 12,9 km/h (3 Bft) 100,00 %
15.09.2017 16:46 16,6 C 16,1 C 57 % 1011,3 hPa 0,0 l/m 2,6 km/h (1 Bft) N-NW 345 0 min 0,000 mm 0,7 UV-I 163 W/m 8,0 C 16,6 C 12,9 km/h (3 Bft) 100,00 %
15.09.2017 16:48 16,5 C 16,1 C 58 % 1011,4 hPa 0,0 l/m 5,0 km/h (1 Bft) N 349 0 min 0,000 mm 0,7 UV-I 167 W/m 8,2 C 16,5 C 12,9 km/h (3 Bft) 100,00 %
15.09.2017 16:50 16,4 C 16,1 C 60 % 1011,4 hPa 0,0 l/m 5,2 km/h (1 Bft) NO 36 0 min 0,000 mm 0,7 UV-I 179 W/m 8,6 C 16,4 C 9,7 km/h (2 Bft) 100,00 %
15.09.2017 16:52 16,4 C 16,1 C 60 % 1011,4 hPa 0,0 l/m 6,1 km/h (2 Bft) NO 55 0 min 0,000 mm 0,7 UV-I 207 W/m 8,6 C 16,4 C 11,3 km/h (2 Bft) 100,00 %
15.09.2017 16:54 16,4 C 16,1 C 60 % 1011,4 hPa 0,0 l/m 9,1 km/h (2 Bft) N-NO 17 2 min 0,000 mm 0,7 UV-I 213 W/m 8,6 C 15,1 C 14,5 km/h (3 Bft) 100,00 %
15.09.2017 16:56 16,4 C 16,1 C 58 % 1011,4 hPa 0,0 l/m 8,5 km/h (2 Bft) NO 42 0 min 0,000 mm 0,6 UV-I 194 W/m 8,1 C 15,3 C 12,9 km/h (3 Bft) 100,00 %
15.09.2017 16:58 16,5 C 16,1 C 60 % 1011,3 hPa 0,0 l/m 5,7 km/h (1 Bft) NO 39 2 min 0,000 mm 0,7 UV-I 222 W/m 8,7 C 16,5 C 9,7 km/h (2 Bft) 100,00 %
15.09.2017 17:00 16,5 C 16,1 C 58 % 1011,3 hPa 0,0 l/m 8,5 km/h (2 Bft) NO 41 0 min 0,000 mm 0,6 UV-I 193 W/m 8,2 C 15,4 C 12,9 km/h (3 Bft) 100,00 %
15.09.2017 17:02 16,4 C 16,1 C 58 % 1011,2 hPa 0,0 l/m 8,6 km/h (2 Bft) N-NW 342 0 min 0,229 mm 0,6 UV-I 176 W/m 8,1 C 15,3 C 14,5 km/h (3 Bft) 100,00 %
15.09.2017 17:04 16,4 C 16,1 C 58 % 1011,2 hPa 0,0 l/m 7,4 km/h (2 Bft) NO 54 0 min 0,000 mm 0,5 UV-I 176 W/m 8,1 C 15,9 C 16,1 km/h (3 Bft) 98,00 %
15.09.2017 17:06 16,4 C 16,1 C 58 % 1011,2 hPa 0,0 l/m 6,9 km/h (2 Bft) NO 36 0 min 0,000 mm 0,5 UV-I 177 W/m 8,1 C 16,1 C 17,7 km/h (3 Bft) 100,00 %
15.09.2017 17:08 16,4 C 16,1 C 61 % 1011,1 hPa 0,0 l/m 1,9 km/h (1 Bft) NO 36 0 min 0,000 mm 0,5 UV-I 173 W/m 8,9 C 16,4 C 4,8 km/h (1 Bft) 100,00 %
15.09.2017 17:10 16,3 C 16,1 C 63 % 1011,1 hPa 0,0 l/m 5,4 km/h (1 Bft) N 11 0 min 0,000 mm 0,4 UV-I 159 W/m 9,2 C 16,3 C 11,3 km/h (2 Bft) 100,00 %
15.09.2017 17:12 16,3 C 16,1 C 61 % 1011,0 hPa 0,0 l/m 10,6 km/h (2 Bft) N-NO 32 0 min 0,000 mm 0,0 UV-I 151 W/m 8,8 C 14,3 C 16,1 km/h (3 Bft) 100,00 %
15.09.2017 17:14 16,2 C 16,1 C 60 % 1010,9 hPa 0,0 l/m 6,2 km/h (2 Bft) O-NO 57 0 min 0,000 mm 0,0 UV-I 148 W/m 8,4 C 16,2 C 8,0 km/h (2 Bft) 100,00 %
15.09.2017 17:16 16,2 C 16,1 C 60 % 1010,9 hPa 0,0 l/m 6,0 km/h (2 Bft) NO 48 0 min 0,000 mm 0,0 UV-I 141 W/m 8,4 C 16,2 C 11,3 km/h (2 Bft) 100,00 %
15.09.2017 17:18 16,2 C 16,1 C 58 % 1010,9 hPa 0,0 l/m 7,4 km/h (2 Bft) O-NO 59 0 min 0,000 mm 0,0 UV-I 131 W/m 7,9 C 15,7 C 11,3 km/h (2 Bft) 100,00 %
15.09.2017 17:20 16,3 C 16,1 C 58 % 1010,8 hPa 0,0 l/m 5,8 km/h (2 Bft) O-NO 57 0 min 0,000 mm 0,0 UV-I 127 W/m 8,0 C 16,3 C 8,0 km/h (2 Bft) 100,00 %
15.09.2017 17:22 16,3 C 16,1 C 60 % 1010,9 hPa 0,0 l/m 4,5 km/h (1 Bft) N-NO 15 0 min 0,000 mm 0,0 UV-I 125 W/m 8,5 C 16,3 C 8,0 km/h (2 Bft) 100,00 %
15.09.2017 17:24 16,2 C 16,1 C 60 % 1010,9 hPa 0,0 l/m 7,2 km/h (2 Bft) N-NO 30 0 min 0,000 mm 0,0 UV-I 125 W/m 8,4 C 15,8 C 9,7 km/h (2 Bft) 100,00 %
15.09.2017 17:26 16,2 C 16,1 C 60 % 1011,0 hPa 0,0 l/m 4,9 km/h (1 Bft) NO 44 0 min 0,000 mm 0,0 UV-I 123 W/m 8,4 C 16,2 C 8,0 km/h (2 Bft) 94,74 %
15.09.2017 17:28 16,1 C 16,1 C 61 % 1011,0 hPa 0,0 l/m 3,5 km/h (1 Bft) NO 44 0 min 0,000 mm 0,0 UV-I 129 W/m 8,6 C 16,1 C 6,4 km/h (2 Bft) 97,87 %
15.09.2017 17:30 16,1 C 16,1 C 62 % 1011,1 hPa 0,0 l/m 4,2 km/h (1 Bft) N-NO 29 0 min 0,000 mm 0,0 UV-I 131 W/m 8,8 C 16,1 C 8,0 km/h (2 Bft) 98,11 %
15.09.2017 17:32 16,0 C 16,1 C 62 % 1011,1 hPa 0,0 l/m 4,9 km/h (1 Bft) N-NO 17 0 min 0,000 mm 0,0 UV-I 128 W/m 8,7 C 16,0 C 8,0 km/h (2 Bft) 96,00 %
15.09.2017 17:34 15,9 C 16,1 C 60 % 1011,1 hPa 0,0 l/m 6,5 km/h (2 Bft) N-NO 30 0 min 0,000 mm 0,0 UV-I 124 W/m 8,1 C 15,9 C 9,7 km/h (2 Bft) 100,00 %
15.09.2017 17:36 15,9 C 16,1 C 60 % 1011,1 hPa 0,0 l/m 6,0 km/h (2 Bft) NO 51 0 min 0,000 mm 0,0 UV-I 117 W/m 8,1 C 15,9 C 9,7 km/h (2 Bft) 97,73 %
15.09.2017 17:38 15,9 C 16,1 C 59 % 1011,1 hPa 0,0 l/m 6,9 km/h (2 Bft) N-NO 22 0 min 0,000 mm 0,0 UV-I 115 W/m 7,9 C 15,6 C 9,7 km/h (2 Bft) 95,74 %
15.09.2017 17:40 15,8 C 16,1 C 63 % 1011,1 hPa 0,0 l/m 3,7 km/h (1 Bft) N-NO 22 0 min 0,000 mm 0,0 UV-I 109 W/m 8,8 C 15,8 C 4,8 km/h (1 Bft) 98,21 %
15.09.2017 17:42 15,8 C 16,1 C 63 % 1011,2 hPa 0,0 l/m 3,3 km/h (1 Bft) N-NO 24 0 min 0,000 mm 0,0 UV-I 109 W/m 8,8 C 15,8 C 4,8 km/h (1 Bft) 97,37 %
15.09.2017 17:44 15,7 C 16,1 C 64 % 1011,2 hPa 0,0 l/m 0,4 km/h (0 Bft) N-NO 24 0 min 0,000 mm 0,0 UV-I 128 W/m 8,9 C 15,7 C 1,6 km/h (1 Bft) 98,11 %
15.09.2017 17:46 15,7 C 16,1 C 63 % 1011,2 hPa 0,0 l/m 1,4 km/h (1 Bft) N-NO 24 2 min 0,000 mm 0,0 UV-I 184 W/m 8,7 C 15,7 C 4,8 km/h (1 Bft) 97,87 %
15.09.2017 17:48 15,8 C 16,1 C 62 % 1011,2 hPa 0,0 l/m 0,9 km/h (0 Bft) N-NO 24 2 min 0,000 mm 0,0 UV-I 237 W/m 8,5 C 15,8 C 3,2 km/h (1 Bft) 97,87 %
15.09.2017 17:50 15,9 C 16,1 C 64 % 1011,2 hPa 0,0 l/m 1,0 km/h (0 Bft) N-NO 20 2 min 0,000 mm 0,0 UV-I 246 W/m 9,1 C 15,9 C 3,2 km/h (1 Bft) 94,00 %
15.09.2017 17:52 16,1 C 16,1 C 62 % 1011,2 hPa 0,0 l/m 1,4 km/h (1 Bft) N-NO 20 2 min 0,000 mm 0,0 UV-I 242 W/m 8,8 C 16,1 C 4,8 km/h (1 Bft) 100,00 %
15.09.2017 17:54 16,2 C 16,1 C 59 % 1011,2 hPa 0,0 l/m 4,7 km/h (1 Bft) N-NO 27 2 min 0,000 mm 0,0 UV-I 240 W/m 8,2 C 16,2 C 8,0 km/h (2 Bft) 95,74 %
15.09.2017 17:56 16,3 C 16,1 C 59 % 1011,3 hPa 0,0 l/m 3,7 km/h (1 Bft) N-NO 26 2 min 0,000 mm 0,0 UV-I 222 W/m 8,3 C 16,3 C 6,4 km/h (2 Bft) 95,74 %
15.09.2017 17:58 16,3 C 16,1 C 60 % 1011,3 hPa 0,0 l/m 2,8 km/h (1 Bft) N-NO 26 2 min 0,000 mm 0,0 UV-I 218 W/m 8,5 C 16,3 C 4,8 km/h (1 Bft) 98,00 %
15.09.2017 18:00 16,4 C 16,1 C 60 % 1011,3 hPa 0,0 l/m 0,1 km/h (0 Bft) N-NO 26 2 min 0,000 mm 0,0 UV-I 198 W/m 8,6 C 16,4 C 1,6 km/h (1 Bft) 100,00 %
15.09.2017 18:02 16,4 C 16,1 C 59 % 1011,4 hPa 0,0 l/m 3,8 km/h (1 Bft) N-NO 26 2 min 0,101 mm 0,0 UV-I 180 W/m 8,4 C 16,4 C 6,4 km/h (2 Bft) 100,00 %
15.09.2017 18:04 16,5 C 16,1 C 59 % 1011,4 hPa 0,0 l/m 2,3 km/h (1 Bft) N-NO 24 2 min 0,000 mm 0,0 UV-I 159 W/m 8,5 C 16,5 C 4,8 km/h (1 Bft) 100,00 %
15.09.2017 18:06 16,4 C 16,1 C 58 % 1011,4 hPa 0,0 l/m 0,3 km/h (0 Bft) N-NO 22 2 min 0,000 mm 0,0 UV-I 157 W/m 8,1 C 16,4 C 3,2 km/h (1 Bft) 97,37 %
15.09.2017 18:08 16,3 C 16,1 C 59 % 1011,4 hPa 0,0 l/m 0,8 km/h (0 Bft) N-NO 22 0 min 0,000 mm 0,0 UV-I 66 W/m 8,3 C 16,3 C 3,2 km/h (1 Bft) 98,11 %
15.09.2017 18:10 16,2 C 16,1 C 60 % 1011,5 hPa 0,0 l/m 1,9 km/h (1 Bft) N-NO 24 0 min 0,000 mm 0,0 UV-I 57 W/m 8,4 C 16,2 C 6,4 km/h (2 Bft) 100,00 %
15.09.2017 18:12 15,9 C 16,1 C 61 % 1011,5 hPa 0,0 l/m 1,3 km/h (1 Bft) N-NO 24 0 min 0,000 mm 0,0 UV-I 50 W/m 8,4 C 15,9 C 6,4 km/h (2 Bft) 100,00 %
15.09.2017 18:14 15,7 C 16,1 C 63 % 1011,5 hPa 0,0 l/m 0,2 km/h (0 Bft) N-NO 24 0 min 0,000 mm 0,0 UV-I 47 W/m 8,7 C 15,7 C 1,6 km/h (1 Bft) 100,00 %
15.09.2017 18:16 15,4 C 16,1 C 63 % 1011,5 hPa 0,0 l/m 0,4 km/h (0 Bft) N-NO 24 0 min 0,000 mm 0,0 UV-I 44 W/m 8,4 C 15,4 C 1,6 km/h (1 Bft) 97,44 %
15.09.2017 18:18 15,2 C 16,1 C 63 % 1011,5 hPa 0,0 l/m 1,8 km/h (1 Bft) N-NO 24 0 min 0,000 mm 0,0 UV-I 40 W/m 8,2 C 15,2 C 4,8 km/h (1 Bft) 100,00 %
15.09.2017 18:20 15,1 C 16,1 C 62 % 1011,5 hPa 0,0 l/m 3,7 km/h (1 Bft) N-NO 24 0 min 0,000 mm 0,0 UV-I 35 W/m 7,9 C 15,1 C 6,4 km/h (2 Bft) 100,00 %
15.09.2017 18:22 15,1 C 16,1 C 63 % 1011,6 hPa 0,0 l/m 3,5 km/h (1 Bft) N-NO 24 0 min 0,000 mm 0,0 UV-I 30 W/m 8,1 C 15,1 C 4,8 km/h (1 Bft) 100,00 %
15.09.2017 18:24 15,1 C 16,1 C 62 % 1011,6 hPa 0,0 l/m 4,4 km/h (1 Bft) N-NO 24 0 min 0,000 mm 0,0 UV-I 29 W/m 7,9 C 15,1 C 6,4 km/h (2 Bft) 98,00 %
15.09.2017 18:26 15,0 C 16,1 C 62 % 1011,5 hPa 0,0 l/m 4,9 km/h (1 Bft) N-NO 23 0 min 0,000 mm 0,0 UV-I 26 W/m 7,8 C 15,0 C 8,0 km/h (2 Bft) 100,00 %
15.09.2017 18:28 14,9 C 16,1 C 63 % 1011,5 hPa 0,0 l/m 4,7 km/h (1 Bft) N-NO 26 0 min 0,000 mm 0,0 UV-I 26 W/m 7,9 C 14,9 C 8,0 km/h (2 Bft) 100,00 %
15.09.2017 18:30 14,8 C 16,1 C 64 % 1011,5 hPa 0,0 l/m 2,8 km/h (1 Bft) N-NO 26 0 min 0,000 mm 0,0 UV-I 26 W/m 8,1 C 14,8 C 4,8 km/h (1 Bft) 95,74 %
15.09.2017 18:32 14,7 C 16,1 C 64 % 1011,5 hPa 0,0 l/m 1,6 km/h (1 Bft) N-NO 26 0 min 0,000 mm 0,0 UV-I 27 W/m 8,0 C 14,7 C 3,2 km/h (1 Bft) 100,00 %
15.09.2017 18:34 14,7 C 16,1 C 64 % 1011,5 hPa 0,0 l/m 1,0 km/h (0 Bft) N-NO 26 0 min 0,000 mm 0,0 UV-I 28 W/m 8,0 C 14,7 C 3,2 km/h (1 Bft) 98,11 %
15.09.2017 18:36 14,6 C 16,1 C 64 % 1011,5 hPa 0,0 l/m 1,0 km/h (0 Bft) N-NO 26 0 min 0,000 mm 0,0 UV-I 28 W/m 7,9 C 14,6 C 3,2 km/h (1 Bft) 100,00 %
15.09.2017 18:38 14,6 C 16,1 C 69 % 1011,6 hPa 0,0 l/m 1,4 km/h (1 Bft) N-NO 26 0 min 0,000 mm 0,0 UV-I 26 W/m 9,0 C 14,6 C 3,2 km/h (1 Bft) 100,00 %
15.09.2017 18:40 14,4 C 16,1 C 71 % 1011,6 hPa 0,0 l/m 2,8 km/h (1 Bft) N-NO 26 0 min 0,000 mm 0,0 UV-I 26 W/m 9,2 C 14,4 C 3,2 km/h (1 Bft) 100,00 %
15.09.2017 18:42 14,2 C 16,1 C 72 % 1011,5 hPa 0,0 l/m 2,9 km/h (1 Bft) N-NO 26 0 min 0,000 mm 0,0 UV-I 24 W/m 9,2 C 14,2 C 3,2 km/h (1 Bft) 100,00 %
15.09.2017 18:44 14,0 C 16,1 C 73 % 1011,5 hPa 0,0 l/m 2,8 km/h (1 Bft) N-NO 26 0 min 0,000 mm 0,0 UV-I 19 W/m 9,2 C 14,0 C 3,2 km/h (1 Bft) 100,00 %
15.09.2017 18:46 13,8 C 16,1 C 74 % 1011,4 hPa 0,0 l/m 1,3 km/h (1 Bft) N-NO 26 0 min 0,000 mm 0,0 UV-I 17 W/m 9,2 C 13,8 C 3,2 km/h (1 Bft) 100,00 %
15.09.2017 18:48 13,8 C 16,1 C 74 % 1011,3 hPa 0,0 l/m 1,1 km/h (1 Bft) N-NO 26 0 min 0,000 mm 0,0 UV-I 16 W/m 9,2 C 13,8 C 1,6 km/h (1 Bft) 100,00 %
15.09.2017 18:50 13,7 C 16,1 C 73 % 1011,2 hPa 0,0 l/m 1,8 km/h (1 Bft) N-NO 26 0 min 0,000 mm 0,0 UV-I 18 W/m 8,9 C 13,7 C 3,2 km/h (1 Bft) 96,00 %
15.09.2017 18:52 13,6 C 16,1 C 76 % 1011,2 hPa 0,0 l/m 1,9 km/h (1 Bft) N-NO 26 0 min 0,000 mm 0,0 UV-I 19 W/m 9,4 C 13,6 C 3,2 km/h (1 Bft) 97,62 %
15.09.2017 18:54 13,6 C 16,1 C 75 % 1011,1 hPa 0,0 l/m 2,1 km/h (1 Bft) N-NO 26 0 min 0,000 mm 0,0 UV-I 19 W/m 9,3 C 13,6 C 3,2 km/h (1 Bft) 96,00 %
15.09.2017 18:56 13,6 C 16,1 C 76 % 1010,9 hPa 0,0 l/m 2,7 km/h (1 Bft) N-NO 26 0 min 0,000 mm 0,0 UV-I 18 W/m 9,4 C 13,6 C 4,8 km/h (1 Bft) 97,87 %
15.09.2017 18:58 13,5 C 16,1 C 73 % 1011,0 hPa 0,0 l/m 1,5 km/h (1 Bft) N-NO 26 0 min 0,000 mm 0,0 UV-I 18 W/m 8,8 C 13,5 C 3,2 km/h (1 Bft) 98,08 %
15.09.2017 19:00 13,6 C 16,1 C 74 % 1011,2 hPa 0,0 l/m 0,0 km/h (0 Bft) N-NO 26 2 min 0,000 mm 0,0 UV-I 18 W/m 9,1 C 13,6 C 0,0 km/h (0 Bft) 97,44 %
15.09.2017 19:02 13,6 C 16,1 C 73 % 1011,3 hPa 0,0 l/m 2,0 km/h (1 Bft) N-NO 26 2 min 0,026 mm 0,0 UV-I 15 W/m 8,9 C 13,6 C 3,2 km/h (1 Bft) 96,00 %
15.09.2017 19:04 13,7 C 16,1 C 73 % 1011,4 hPa 0,0 l/m 2,1 km/h (1 Bft) N-NO 26 2 min 0,000 mm 0,0 UV-I 12 W/m 8,9 C 13,7 C 3,2 km/h (1 Bft) 97,87 %
15.09.2017 19:06 13,7 C 16,1 C 73 % 1011,4 hPa 0,0 l/m 1,4 km/h (1 Bft) N-NO 26 0 min 0,000 mm 0,0 UV-I 11 W/m 8,9 C 13,7 C 3,2 km/h (1 Bft) 96,00 %
15.09.2017 19:08 13,7 C 16,1 C 75 % 1011,4 hPa 0,0 l/m 0,8 km/h (0 Bft) N-NO 26 0 min 0,000 mm 0,0 UV-I 11 W/m 9,3 C 13,7 C 1,6 km/h (1 Bft) 97,56 %
15.09.2017 19:10 13,7 C 16,1 C 76 % 1011,4 hPa 0,0 l/m 0,1 km/h (0 Bft) N-NO 26 0 min 0,000 mm 0,0 UV-I 10 W/m 9,5 C 13,7 C 1,6 km/h (1 Bft) 98,11 %
15.09.2017 19:12 13,6 C 16,1 C 78 % 1011,2 hPa 0,0 l/m 0,8 km/h (0 Bft) N-NO 26 0 min 0,000 mm 0,0 UV-I 9 W/m 9,8 C 13,6 C 3,2 km/h (1 Bft) 97,37 %
15.09.2017 19:14 13,4 C 16,1 C 79 % 1011,2 hPa 0,0 l/m 2,1 km/h (1 Bft) N-NO 26 0 min 0,000 mm 0,0 UV-I 7 W/m 9,8 C 13,4 C 3,2 km/h (1 Bft) 95,74 %
15.09.2017 19:16 13,3 C 16,1 C 78 % 1011,1 hPa 0,0 l/m 3,1 km/h (1 Bft) N-NO 26 0 min 0,000 mm 0,0 UV-I 7 W/m 9,5 C 13,3 C 3,2 km/h (1 Bft) 95,74 %
15.09.2017 19:18 13,2 C 16,1 C 78 % 1011,1 hPa 0,0 l/m 3,2 km/h (1 Bft) N-NO 26 0 min 0,000 mm 0,0 UV-I 6 W/m 9,4 C 13,2 C 3,2 km/h (1 Bft) 97,87 %
15.09.2017 19:20 13,2 C 16,1 C 77 % 1011,2 hPa 0,0 l/m 2,6 km/h (1 Bft) N-NO 26 0 min 0,000 mm 0,0 UV-I 5 W/m 9,3 C 13,2 C 3,2 km/h (1 Bft) 98,00 %
15.09.2017 19:22 13,2 C 16,1 C 77 % 1011,2 hPa 0,0 l/m 2,3 km/h (1 Bft) N-NO 26 0 min 0,000 mm 0,0 UV-I 5 W/m 9,3 C 13,2 C 3,2 km/h (1 Bft) 98,00 %
15.09.2017 19:24 13,1 C 16,1 C 77 % 1011,2 hPa 0,0 l/m 1,2 km/h (1 Bft) N-NO 26 0 min 0,000 mm 0,0 UV-I 5 W/m 9,2 C 13,1 C 3,2 km/h (1 Bft) 98,00 %
15.09.2017 19:26 13,0 C 16,1 C 77 % 1011,2 hPa 0,0 l/m 0,0 km/h (0 Bft) N-NO 26 0 min 0,000 mm 0,0 UV-I 5 W/m 9,1 C 13,0 C 0,0 km/h (0 Bft) 97,37 %
15.09.2017 19:28 13,0 C 16,1 C 76 % 1011,2 hPa 0,0 l/m 0,0 km/h (0 Bft) N-NO 26 0 min 0,000 mm 0,0 UV-I 1 W/m 8,9 C 13,0 C 0,0 km/h (0 Bft) 96,23 %
15.09.2017 19:30 12,9 C 16,1 C 76 % 1011,2 hPa 0,0 l/m 0,0 km/h (0 Bft) N-NO 26 0 min 0,000 mm 0,0 UV-I 0 W/m 8,8 C 12,9 C 0,0 km/h (0 Bft) 97,44 %
15.09.2017 19:32 12,9 C 16,1 C 78 % 1011,2 hPa 0,0 l/m 0,0 km/h (0 Bft) N-NO 26 0 min 0,000 mm 0,0 UV-I 0 W/m 9,2 C 12,9 C 0,0 km/h (0 Bft) 98,00 %
15.09.2017 19:34 12,9 C 16,1 C 79 % 1011,1 hPa 0,0 l/m 0,0 km/h (0 Bft) N-NO 26 0 min 0,000 mm 0,0 UV-I 0 W/m 9,3 C 12,9 C 0,0 km/h (0 Bft) 92,31 %
15.09.2017 19:36 12,9 C 16,1 C 79 % 1011,0 hPa 0,0 l/m 0,0 km/h (0 Bft) N-NO 26 0 min 0,000 mm 0,0 UV-I 0 W/m 9,3 C 12,9 C 0,0 km/h (0 Bft) 97,22 %
15.09.2017 19:38 12,8 C 16,1 C 80 % 1011,0 hPa 0,0 l/m 1,8 km/h (1 Bft) N-NO 26 0 min 0,000 mm 0,0 UV-I 0 W/m 9,4 C 12,8 C 3,2 km/h (1 Bft) 93,22 %
15.09.2017 19:40 12,8 C 16,1 C 80 % 1011,0 hPa 0,0 l/m 2,2 km/h (1 Bft) N-NO 26 0 min 0,000 mm 0,0 UV-I 0 W/m 9,4 C 12,8 C 3,2 km/h (1 Bft) 94,74 %
15.09.2017 19:42 12,7 C 16,1 C 81 % 1011,0 hPa 0,0 l/m 2,6 km/h (1 Bft) N-NO 26 0 min 0,000 mm 0,0 UV-I 0 W/m 9,5 C 12,7 C 3,2 km/h (1 Bft) 94,00 %
15.09.2017 19:44 12,6 C 16,1 C 80 % 1011,1 hPa 0,0 l/m 0,7 km/h (0 Bft) N-NO 26 0 min 0,000 mm 0,0 UV-I 0 W/m 9,2 C 12,6 C 3,2 km/h (1 Bft) 96,23 %
15.09.2017 19:46 12,6 C 16,1 C 79 % 1011,2 hPa 0,0 l/m 0,4 km/h (0 Bft) N-NO 26 0 min 0,000 mm 0,0 UV-I 0 W/m 9,1 C 12,6 C 1,6 km/h (1 Bft) 95,12 %
15.09.2017 19:48 12,6 C 16,1 C 78 % 1011,3 hPa 0,0 l/m 0,8 km/h (0 Bft) N-NO 26 0 min 0,000 mm 0,0 UV-I 0 W/m 8,9 C 12,6 C 3,2 km/h (1 Bft) 96,00 %
15.09.2017 19:50 12,6 C 16,1 C 78 % 1011,4 hPa 0,0 l/m 1,4 km/h (1 Bft) N-NO 26 0 min 0,000 mm 0,0 UV-I 0 W/m 8,9 C 12,6 C 3,2 km/h (1 Bft) 93,18 %
15.09.2017 19:52 12,7 C 16,1 C 78 % 1011,4 hPa 0,0 l/m 3,1 km/h (1 Bft) N-NO 26 0 min 0,000 mm 0,0 UV-I 0 W/m 9,0 C 12,7 C 4,8 km/h (1 Bft) 92,00 %
15.09.2017 19:54 12,7 C 16,1 C 78 % 1011,5 hPa 0,0 l/m 3,5 km/h (1 Bft) N-NW 332 0 min 0,000 mm 0,0 UV-I 0 W/m 9,0 C 12,7 C 4,8 km/h (1 Bft) 97,87 %
15.09.2017 19:56 12,7 C 16,1 C 80 % 1011,7 hPa 0,0 l/m 5,2 km/h (1 Bft) W-SW 238 0 min 0,000 mm 0,0 UV-I 0 W/m 9,3 C 12,7 C 6,4 km/h (2 Bft) 98,00 %
15.09.2017 19:58 12,7 C 16,1 C 80 % 1011,7 hPa 0,0 l/m 6,0 km/h (2 Bft) SW 217 0 min 0,000 mm 0,0 UV-I 0 W/m 9,3 C 12,7 C 8,0 km/h (2 Bft) 97,87 %
15.09.2017 20:00 12,6 C 16,1 C 80 % 1011,6 hPa 0,0 l/m 5,2 km/h (1 Bft) SW 217 0 min 0,000 mm 0,0 UV-I 0 W/m 9,2 C 12,6 C 6,4 km/h (2 Bft) 97,14 %
15.09.2017 20:02 12,6 C 16,1 C 79 % 1011,6 hPa 0,0 l/m 4,0 km/h (1 Bft) SW 217 0 min 0,000 mm 0,0 UV-I 0 W/m 9,1 C 12,6 C 6,4 km/h (2 Bft) 98,21 %
15.09.2017 20:04 12,6 C 16,1 C 80 % 1011,6 hPa 0,0 l/m 1,8 km/h (1 Bft) SW 217 0 min 0,000 mm 0,0 UV-I 0 W/m 9,2 C 12,6 C 3,2 km/h (1 Bft) 97,37 %
15.09.2017 20:06 12,6 C 16,1 C 81 % 1011,5 hPa 0,0 l/m 3,1 km/h (1 Bft) SW 217 0 min 0,000 mm 0,0 UV-I 0 W/m 9,4 C 12,6 C 4,8 km/h (1 Bft) 98,04 %
15.09.2017 20:08 12,5 C 16,1 C 81 % 1011,5 hPa 0,0 l/m 4,5 km/h (1 Bft) SW 217 0 min 0,000 mm 0,0 UV-I 0 W/m 9,3 C 12,5 C 4,8 km/h (1 Bft) 97,96 %
15.09.2017 20:10 12,3 C 16,1 C 81 % 1011,3 hPa 0,0 l/m 3,9 km/h (1 Bft) SW 215 0 min 0,000 mm 0,0 UV-I 0 W/m 9,1 C 12,3 C 4,8 km/h (1 Bft) 97,87 %
15.09.2017 20:12 12,3 C 16,1 C 81 % 1011,2 hPa 0,0 l/m 4,0 km/h (1 Bft) SW 215 0 min 0,000 mm 0,0 UV-I 0 W/m 9,1 C 12,3 C 4,8 km/h (1 Bft) 100,00 %
15.09.2017 20:14 12,2 C 16,1 C 81 % 1011,2 hPa 0,0 l/m 2,5 km/h (1 Bft) SW 215 0 min 0,000 mm 0,0 UV-I 0 W/m 9,0 C 12,2 C 3,2 km/h (1 Bft) 97,87 %
15.09.2017 20:16 12,2 C 16,1 C 80 % 1011,4 hPa 0,0 l/m 0,1 km/h (0 Bft) SW 215 0 min 0,000 mm 0,0 UV-I 0 W/m 8,9 C 12,2 C 1,6 km/h (1 Bft) 100,00 %
15.09.2017 20:18 12,3 C 16,1 C 79 % 1011,4 hPa 0,0 l/m 2,0 km/h (1 Bft) SW 215 0 min 0,000 mm 0,0 UV-I 0 W/m 8,8 C 12,3 C 3,2 km/h (1 Bft) 100,00 %
15.09.2017 20:20 12,3 C 16,1 C 80 % 1011,5 hPa 0,0 l/m 3,3 km/h (1 Bft) W 281 0 min 0,000 mm 0,0 UV-I 0 W/m 8,9 C 12,3 C 4,8 km/h (1 Bft) 97,73 %
15.09.2017 20:22 12,4 C 16,1 C 81 % 1011,6 hPa 0,0 l/m 4,9 km/h (1 Bft) W-NW 286 0 min 0,000 mm 0,0 UV-I 0 W/m 9,2 C 12,4 C 6,4 km/h (2 Bft) 100,00 %
15.09.2017 20:24 12,4 C 16,1 C 81 % 1011,6 hPa 0,0 l/m 4,2 km/h (1 Bft) W 273 0 min 0,000 mm 0,0 UV-I 0 W/m 9,2 C 12,4 C 6,4 km/h (2 Bft) 100,00 %
15.09.2017 20:26 12,3 C 16,1 C 81 % 1011,7 hPa 0,0 l/m 3,5 km/h (1 Bft) W 273 0 min 0,000 mm 0,0 UV-I 0 W/m 9,1 C 12,3 C 4,8 km/h (1 Bft) 97,87 %
15.09.2017 20:28 12,4 C 16,1 C 80 % 1011,9 hPa 0,0 l/m 3,2 km/h (1 Bft) W 273 0 min 0,000 mm 0,0 UV-I 0 W/m 9,0 C 12,4 C 4,8 km/h (1 Bft) 97,37 %
15.09.2017 20:30 12,4 C 16,1 C 79 % 1011,9 hPa 0,0 l/m 2,7 km/h (1 Bft) W 273 0 min 0,000 mm 0,0 UV-I 0 W/m 8,9 C 12,4 C 4,8 km/h (1 Bft) 98,11 %
15.09.2017 20:32 12,5 C 16,1 C 79 % 1012,1 hPa 0,0 l/m 1,5 km/h (1 Bft) W 273 0 min 0,000 mm 0,0 UV-I 0 W/m 9,0 C 12,5 C 3,2 km/h (1 Bft) 97,37 %
15.09.2017 20:34 12,6 C 16,1 C 79 % 1012,1 hPa 0,0 l/m 2,2 km/h (1 Bft) W-SW 245 0 min 0,000 mm 0,0 UV-I 0 W/m 9,1 C 12,6 C 4,8 km/h (1 Bft) 100,00 %
15.09.2017 20:36 12,6 C 16,1 C 80 % 1012,1 hPa 0,0 l/m 1,3 km/h (1 Bft) W-SW 245 0 min 0,000 mm 0,0 UV-I 0 W/m 9,2 C 12,6 C 3,2 km/h (1 Bft) 100,00 %
15.09.2017 20:38 12,6 C 16,1 C 80 % 1012,1 hPa 0,0 l/m 0,5 km/h (0 Bft) W-SW 245 0 min 0,000 mm 0,0 UV-I 0 W/m 9,2 C 12,6 C 1,6 km/h (1 Bft) 97,37 %
15.09.2017 20:40 12,5 C 16,1 C 80 % 1012,2 hPa 0,0 l/m 1,5 km/h (1 Bft) W-SW 244 0 min 0,000 mm 0,0 UV-I 0 W/m 9,1 C 12,5 C 4,8 km/h (1 Bft) 100,00 %
15.09.2017 20:42 12,4 C 16,1 C 80 % 1012,1 hPa 0,0 l/m 1,0 km/h (0 Bft) SW 223 0 min 0,000 mm 0,0 UV-I 0 W/m 9,0 C 12,4 C 3,2 km/h (1 Bft) 100,00 %
15.09.2017 20:44 12,4 C 16,1 C 80 % 1012,2 hPa 0,0 l/m 0,5 km/h (0 Bft) SW 223 0 min 0,000 mm 0,0 UV-I 0 W/m 9,0 C 12,4 C 1,6 km/h (1 Bft) 100,00 %
15.09.2017 20:46 12,3 C 16,1 C 80 % 1012,1 hPa 0,0 l/m 0,3 km/h (0 Bft) SW 223 0 min 0,000 mm 0,0 UV-I 0 W/m 8,9 C 12,3 C 1,6 km/h (1 Bft) 100,00 %
15.09.2017 20:48 12,3 C 16,1 C 81 % 1012,0 hPa 0,0 l/m 1,0 km/h (0 Bft) SW 223 0 min 0,000 mm 0,0 UV-I 0 W/m 9,1 C 12,3 C 3,2 km/h (1 Bft) 100,00 %
15.09.2017 20:50 12,3 C 16,1 C 80 % 1012,0 hPa 0,0 l/m 0,0 km/h (0 Bft) SW 223 0 min 0,000 mm 0,0 UV-I 0 W/m 8,9 C 12,3 C 0,0 km/h (0 Bft) 100,00 %
15.09.2017 20:52 12,3 C 16,1 C 81 % 1012,0 hPa 0,0 l/m 0,2 km/h (0 Bft) SW 223 0 min 0,000 mm 0,0 UV-I 0 W/m 9,1 C 12,3 C 1,6 km/h (1 Bft) 100,00 %
15.09.2017 20:54 12,3 C 16,1 C 81 % 1012,0 hPa 0,0 l/m 0,6 km/h (0 Bft) SW 223 0 min 0,000 mm 0,0 UV-I 0 W/m 9,1 C 12,3 C 1,6 km/h (1 Bft) 100,00 %
15.09.2017 20:56 12,3 C 16,1 C 81 % 1011,9 hPa 0,0 l/m 0,1 km/h (0 Bft) SW 223 0 min 0,000 mm 0,0 UV-I 0 W/m 9,1 C 12,3 C 1,6 km/h (1 Bft) 100,00 %
15.09.2017 20:58 12,3 C 16,1 C 81 % 1011,9 hPa 0,0 l/m 0,7 km/h (0 Bft) SW 223 0 min 0,000 mm 0,0 UV-I 0 W/m 9,1 C 12,3 C 1,6 km/h (1 Bft) 100,00 %
15.09.2017 21:00 12,3 C 16,1 C 81 % 1012,0 hPa 0,0 l/m 1,4 km/h (1 Bft) SW 223 0 min 0,000 mm 0,0 UV-I 0 W/m 9,1 C 12,3 C 3,2 km/h (1 Bft) 100,00 %
15.09.2017 21:02 12,4 C 16,1 C 81 % 1011,9 hPa 0,0 l/m 0,4 km/h (0 Bft) SW 223 0 min 0,000 mm 0,0 UV-I 0 W/m 9,2 C 12,4 C 1,6 km/h (1 Bft) 100,00 %
15.09.2017 21:04 12,4 C 16,1 C 80 % 1011,8 hPa 0,0 l/m 1,3 km/h (1 Bft) SW 223 0 min 0,000 mm 0,0 UV-I 0 W/m 9,0 C 12,4 C 3,2 km/h (1 Bft) 100,00 %
15.09.2017 21:06 12,4 C 16,1 C 79 % 1011,8 hPa 0,0 l/m 1,3 km/h (1 Bft) SW 223 0 min 0,000 mm 0,0 UV-I 0 W/m 8,9 C 12,4 C 3,2 km/h (1 Bft) 100,00 %
15.09.2017 21:08 12,4 C 16,1 C 79 % 1011,7 hPa 0,0 l/m 1,0 km/h (0 Bft) SW 223 0 min 0,000 mm 0,0 UV-I 0 W/m 8,9 C 12,4 C 3,2 km/h (1 Bft) 98,00 %
15.09.2017 21:10 12,4 C 16,1 C 78 % 1011,6 hPa 0,0 l/m 1,2 km/h (1 Bft) SW 223 0 min 0,000 mm 0,0 UV-I 0 W/m 8,7 C 12,4 C 1,6 km/h (1 Bft) 97,87 %
15.09.2017 21:12 12,4 C 16,1 C 79 % 1011,7 hPa 0,0 l/m 0,9 km/h (0 Bft) SW 223 0 min 0,000 mm 0,0 UV-I 0 W/m 8,9 C 12,4 C 3,2 km/h (1 Bft) 98,00 %
15.09.2017 21:14 12,4 C 16,1 C 79 % 1011,7 hPa 0,0 l/m 0,0 km/h (0 Bft) SW 223 0 min 0,000 mm 0,0 UV-I 0 W/m 8,9 C 12,4 C 0,0 km/h (0 Bft) 100,00 %
15.09.2017 21:16 12,4 C 16,1 C 79 % 1011,7 hPa 0,0 l/m 0,2 km/h (0 Bft) SW 223 0 min 0,000 mm 0,0 UV-I 0 W/m 8,9 C 12,4 C 1,6 km/h (1 Bft) 100,00 %
15.09.2017 21:18 12,4 C 16,1 C 80 % 1011,7 hPa 0,0 l/m 0,3 km/h (0 Bft) SW 223 0 min 0,000 mm 0,0 UV-I 0 W/m 9,0 C 12,4 C 1,6 km/h (1 Bft) 100,00 %
15.09.2017 21:20 12,4 C 16,1 C 81 % 1011,8 hPa 0,0 l/m 0,0 km/h (0 Bft) SW 223 0 min 0,000 mm 0,0 UV-I 0 W/m 9,2 C 12,4 C 1,6 km/h (1 Bft) 100,00 %
15.09.2017 21:22 12,4 C 16,1 C 81 % 1011,9 hPa 0,0 l/m 0,0 km/h (0 Bft) SW 223 0 min 0,000 mm 0,0 UV-I 0 W/m 9,2 C 12,4 C 1,6 km/h (1 Bft) 97,87 %
15.09.2017 21:24 12,3 C 16,1 C 83 % 1011,9 hPa 0,0 l/m 0,9 km/h (0 Bft) SW 223 0 min 0,000 mm 0,0 UV-I 0 W/m 9,5 C 12,3 C 1,6 km/h (1 Bft) 97,87 %
15.09.2017 21:26 12,3 C 16,1 C 82 % 1011,8 hPa 0,0 l/m 0,6 km/h (0 Bft) SW 223 0 min 0,000 mm 0,0 UV-I 0 W/m 9,3 C 12,3 C 1,6 km/h (1 Bft) 100,00 %
15.09.2017 21:28 12,3 C 16,1 C 82 % 1011,7 hPa 0,0 l/m 0,0 km/h (0 Bft) SW 223 0 min 0,000 mm 0,0 UV-I 0 W/m 9,3 C 12,3 C 0,0 km/h (0 Bft) 100,00 %
15.09.2017 21:30 12,3 C 16,1 C 83 % 1011,7 hPa 0,0 l/m 0,0 km/h (0 Bft) SW 223 0 min 0,000 mm 0,0 UV-I 0 W/m 9,5 C 12,3 C 1,6 km/h (1 Bft) 100,00 %
15.09.2017 21:32 12,3 C 16,1 C 83 % 1011,8 hPa 0,0 l/m 0,0 km/h (0 Bft) SW 223 0 min 0,000 mm 0,0 UV-I 0 W/m 9,5 C 12,3 C 0,0 km/h (0 Bft) 100,00 %
15.09.2017 21:34 12,2 C 16,1 C 83 % 1011,7 hPa 0,0 l/m 0,4 km/h (0 Bft) SW 223 0 min 0,000 mm 0,0 UV-I 0 W/m 9,4 C 12,2 C 1,6 km/h (1 Bft) 100,00 %
15.09.2017 21:36 12,2 C 16,1 C 84 % 1011,7 hPa 0,0 l/m 1,2 km/h (1 Bft) SW 223 0 min 0,000 mm 0,0 UV-I 0 W/m 9,6 C 12,2 C 1,6 km/h (1 Bft) 100,00 %
15.09.2017 21:38 12,2 C 16,1 C 84 % 1011,6 hPa 0,0 l/m 0,5 km/h (0 Bft) SW 223 0 min 0,000 mm 0,0 UV-I 0 W/m 9,6 C 12,2 C 1,6 km/h (1 Bft) 100,00 %
15.09.2017 21:40 12,2 C 16,1 C 84 % 1011,5 hPa 0,0 l/m 1,0 km/h (0 Bft) SW 223 0 min 0,000 mm 0,0 UV-I 0 W/m 9,6 C 12,2 C 1,6 km/h (1 Bft) 100,00 %
15.09.2017 21:42 12,1 C 16,1 C 84 % 1011,5 hPa 0,0 l/m 0,2 km/h (0 Bft) SW 223 0 min 0,000 mm 0,0 UV-I 0 W/m 9,5 C 12,1 C 1,6 km/h (1 Bft) 96,88 %
15.09.2017 21:44 12,0 C 16,1 C 84 % 1011,5 hPa 0,0 l/m 1,4 km/h (1 Bft) SW 223 0 min 0,000 mm 0,0 UV-I 0 W/m 9,4 C 12,0 C 3,2 km/h (1 Bft) 98,21 %
15.09.2017 21:46 12,0 C 16,1 C 84 % 1011,6 hPa 0,0 l/m 2,5 km/h (1 Bft) SW 223 0 min 0,000 mm 0,0 UV-I 0 W/m 9,4 C 12,0 C 4,8 km/h (1 Bft) 97,87 %
15.09.2017 21:48 12,0 C 16,1 C 83 % 1011,6 hPa 0,0 l/m 3,0 km/h (1 Bft) SW 223 0 min 0,000 mm 0,0 UV-I 0 W/m 9,2 C 12,0 C 4,8 km/h (1 Bft) 98,00 %
15.09.2017 21:50 12,1 C 16,1 C 83 % 1011,6 hPa 0,0 l/m 3,1 km/h (1 Bft) SW 223 0 min 0,000 mm 0,0 UV-I 0 W/m 9,3 C 12,1 C 4,8 km/h (1 Bft) 97,87 %
15.09.2017 21:52 12,1 C 16,1 C 82 % 1011,4 hPa 0,0 l/m 3,3 km/h (1 Bft) SW 223 0 min 0,000 mm 0,0 UV-I 0 W/m 9,1 C 12,1 C 4,8 km/h (1 Bft) 97,14 %
15.09.2017 21:54 12,2 C 16,1 C 82 % 1011,5 hPa 0,0 l/m 2,7 km/h (1 Bft) SW 223 0 min 0,000 mm 0,0 UV-I 0 W/m 9,2 C 12,2 C 4,8 km/h (1 Bft) 98,11 %
15.09.2017 21:56 12,2 C 16,1 C 82 % 1011,5 hPa 0,0 l/m 3,3 km/h (1 Bft) SW 223 0 min 0,000 mm 0,0 UV-I 0 W/m 9,2 C 12,2 C 4,8 km/h (1 Bft) 96,00 %
15.09.2017 21:58 12,2 C 16,1 C 82 % 1011,6 hPa 0,0 l/m 1,6 km/h (1 Bft) SW 223 0 min 0,000 mm 0,0 UV-I 0 W/m 9,2 C 12,2 C 4,8 km/h (1 Bft) 95,74 %
15.09.2017 22:00 12,1 C 16,1 C 82 % 1011,5 hPa 0,0 l/m 1,8 km/h (1 Bft) SW 223 0 min 0,000 mm 0,0 UV-I 0 W/m 9,1 C 12,1 C 3,2 km/h (1 Bft) 95,74 %
15.09.2017 22:02 12,1 C 16,1 C 82 % 1011,5 hPa 0,0 l/m 2,2 km/h (1 Bft) SW 223 0 min 0,000 mm 0,0 UV-I 0 W/m 9,1 C 12,1 C 4,8 km/h (1 Bft) 97,87 %
15.09.2017 22:04 12,1 C 16,1 C 82 % 1011,4 hPa 0,0 l/m 1,9 km/h (1 Bft) SW 223 0 min 0,000 mm 0,0 UV-I 0 W/m 9,1 C 12,1 C 4,8 km/h (1 Bft) 96,00 %
15.09.2017 22:06 12,1 C 16,1 C 83 % 1011,4 hPa 0,0 l/m 3,1 km/h (1 Bft) SW 223 0 min 0,000 mm 0,0 UV-I 0 W/m 9,3 C 12,1 C 4,8 km/h (1 Bft) 96,30 %
15.09.2017 22:08 12,1 C 16,1 C 83 % 1011,5 hPa 0,0 l/m 3,6 km/h (1 Bft) SW 223 0 min 0,000 mm 0,0 UV-I 0 W/m 9,3 C 12,1 C 4,8 km/h (1 Bft) 96,88 %
15.09.2017 22:10 12,1 C 16,1 C 83 % 1011,6 hPa 0,0 l/m 3,3 km/h (1 Bft) SW 223 0 min 0,000 mm 0,0 UV-I 0 W/m 9,3 C 12,1 C 4,8 km/h (1 Bft) 96,00 %
15.09.2017 22:12 12,1 C 16,1 C 83 % 1011,5 hPa 0,0 l/m 2,4 km/h (1 Bft) SW 223 0 min 0,000 mm 0,0 UV-I 0 W/m 9,3 C 12,1 C 4,8 km/h (1 Bft) 100,00 %
15.09.2017 22:14 12,1 C 16,1 C 83 % 1011,4 hPa 0,0 l/m 2,8 km/h (1 Bft) SW 223 0 min 0,000 mm 0,0 UV-I 0 W/m 9,3 C 12,1 C 3,2 km/h (1 Bft) 96,23 %
15.09.2017 22:16 12,1 C 16,1 C 83 % 1011,4 hPa 0,0 l/m 1,0 km/h (0 Bft) SW 223 0 min 0,000 mm 0,0 UV-I 0 W/m 9,3 C 12,1 C 3,2 km/h (1 Bft) 100,00 %
15.09.2017 22:18 12,1 C 16,1 C 83 % 1011,4 hPa 0,0 l/m 0,8 km/h (0 Bft) SW 223 0 min 0,000 mm 0,0 UV-I 0 W/m 9,3 C 12,1 C 1,6 km/h (1 Bft) 97,73 %
15.09.2017 22:20 12,1 C 16,1 C 84 % 1011,5 hPa 0,0 l/m 0,0 km/h (0 Bft) SW 223 0 min 0,000 mm 0,0 UV-I 0 W/m 9,5 C 12,1 C 1,6 km/h (1 Bft) 100,00 %
15.09.2017 22:22 12,1 C 16,1 C 84 % 1011,5 hPa 0,0 l/m 0,1 km/h (0 Bft) SW 223 0 min 0,000 mm 0,0 UV-I 0 W/m 9,5 C 12,1 C 1,6 km/h (1 Bft) 100,00 %
15.09.2017 22:24 12,0 C 16,1 C 84 % 1011,5 hPa 0,0 l/m 1,3 km/h (1 Bft) SW 223 0 min 0,000 mm 0,0 UV-I 0 W/m 9,4 C 12,0 C 3,2 km/h (1 Bft) 98,11 %
15.09.2017 22:26 12,0 C 16,1 C 83 % 1011,5 hPa 0,0 l/m 2,2 km/h (1 Bft) SW 223 0 min 0,000 mm 0,0 UV-I 0 W/m 9,2 C 12,0 C 3,2 km/h (1 Bft) 97,87 %
15.09.2017 22:28 12,0 C 16,1 C 83 % 1011,5 hPa 0,0 l/m 0,6 km/h (0 Bft) SW 223 0 min 0,000 mm 0,0 UV-I 0 W/m 9,2 C 12,0 C 1,6 km/h (1 Bft) 92,68 %
15.09.2017 22:30 12,0 C 16,1 C 84 % 1011,5 hPa 0,0 l/m 0,2 km/h (0 Bft) SW 223 0 min 0,000 mm 0,0 UV-I 0 W/m 9,4 C 12,0 C 1,6 km/h (1 Bft) 98,00 %
15.09.2017 22:32 12,0 C 16,1 C 84 % 1011,5 hPa 0,0 l/m 0,7 km/h (0 Bft) SW 223 0 min 0,000 mm 0,0 UV-I 0 W/m 9,4 C 12,0 C 3,2 km/h (1 Bft) 96,23 %
15.09.2017 22:34 12,0 C 16,1 C 84 % 1011,5 hPa 0,0 l/m 1,8 km/h (1 Bft) SW 223 0 min 0,000 mm 0,0 UV-I 0 W/m 9,4 C 12,0 C 3,2 km/h (1 Bft) 91,49 %
15.09.2017 22:36 12,0 C 16,1 C 84 % 1011,6 hPa 0,0 l/m 1,8 km/h (1 Bft) SW 223 0 min 0,000 mm 0,0 UV-I 0 W/m 9,4 C 12,0 C 3,2 km/h (1 Bft) 97,87 %
15.09.2017 22:38 11,9 C 16,1 C 84 % 1011,5 hPa 0,0 l/m 0,8 km/h (0 Bft) SW 223 0 min 0,000 mm 0,0 UV-I 0 W/m 9,3 C 11,9 C 1,6 km/h (1 Bft) 97,14 %
15.09.2017 22:40 11,9 C 16,1 C 85 % 1011,5 hPa 0,0 l/m 1,0 km/h (0 Bft) SW 223 0 min 0,000 mm 0,0 UV-I 0 W/m 9,5 C 11,9 C 3,2 km/h (1 Bft) 98,11 %
15.09.2017 22:42 11,9 C 16,1 C 85 % 1011,5 hPa 0,0 l/m 0,7 km/h (0 Bft) SW 223 0 min 0,000 mm 0,0 UV-I 0 W/m 9,5 C 11,9 C 3,2 km/h (1 Bft) 97,56 %
15.09.2017 22:44 11,9 C 16,1 C 85 % 1011,5 hPa 0,0 l/m 0,6 km/h (0 Bft) SW 223 0 min 0,000 mm 0,0 UV-I 0 W/m 9,5 C 11,9 C 3,2 km/h (1 Bft) 96,00 %
15.09.2017 22:46 11,8 C 16,1 C 85 % 1011,5 hPa 0,0 l/m 1,5 km/h (1 Bft) SW 223 0 min 0,000 mm 0,0 UV-I 0 W/m 9,4 C 11,8 C 3,2 km/h (1 Bft) 96,23 %
15.09.2017 22:48 11,8 C 16,1 C 85 % 1011,5 hPa 0,0 l/m 2,7 km/h (1 Bft) SW 223 0 min 0,000 mm 0,0 UV-I 0 W/m 9,4 C 11,8 C 4,8 km/h (1 Bft) 97,44 %
15.09.2017 22:50 11,8 C 16,1 C 85 % 1011,4 hPa 0,0 l/m 2,1 km/h (1 Bft) SW 223 0 min 0,000 mm 0,0 UV-I 0 W/m 9,4 C 11,8 C 3,2 km/h (1 Bft) 93,62 %
15.09.2017 22:52 11,8 C 16,1 C 84 % 1011,4 hPa 0,0 l/m 1,7 km/h (1 Bft) SW 223 0 min 0,000 mm 0,0 UV-I 0 W/m 9,2 C 11,8 C 3,2 km/h (1 Bft) 98,00 %
15.09.2017 22:54 11,8 C 16,1 C 85 % 1011,3 hPa 0,0 l/m 0,2 km/h (0 Bft) SW 223 0 min 0,000 mm 0,0 UV-I 0 W/m 9,4 C 11,8 C 1,6 km/h (1 Bft) 93,62 %
15.09.2017 22:56 11,8 C 16,1 C 84 % 1011,3 hPa 0,0 l/m 0,0 km/h (0 Bft) SW 223 0 min 0,000 mm 0,0 UV-I 0 W/m 9,2 C 11,8 C 0,0 km/h (0 Bft) 97,87 %
15.09.2017 22:58 11,8 C 16,1 C 85 % 1011,2 hPa 0,0 l/m 0,0 km/h (0 Bft) SW 223 0 min 0,000 mm 0,0 UV-I 0 W/m 9,4 C 11,8 C 0,0 km/h (0 Bft) 96,23 %
15.09.2017 23:00 11,8 C 16,1 C 85 % 1011,2 hPa 0,0 l/m 0,0 km/h (0 Bft) SW 223 0 min 0,000 mm 0,0 UV-I 0 W/m 9,4 C 11,8 C 0,0 km/h (0 Bft) 97,56 %
15.09.2017 23:02 11,7 C 16,1 C 85 % 1011,1 hPa 0,0 l/m 0,2 km/h (0 Bft) SW 223 0 min 0,000 mm 0,0 UV-I 0 W/m 9,3 C 11,7 C 1,6 km/h (1 Bft) 98,11 %
15.09.2017 23:04 11,7 C 16,1 C 86 % 1011,1 hPa 0,0 l/m 1,6 km/h (1 Bft) SW 223 0 min 0,000 mm 0,0 UV-I 0 W/m 9,4 C 11,7 C 3,2 km/h (1 Bft) 94,74 %
15.09.2017 23:06 11,7 C 16,1 C 86 % 1011,2 hPa 0,0 l/m 3,2 km/h (1 Bft) SW 223 0 min 0,000 mm 0,0 UV-I 0 W/m 9,4 C 11,7 C 4,8 km/h (1 Bft) 96,00 %
15.09.2017 23:08 11,6 C 16,1 C 86 % 1011,2 hPa 0,0 l/m 2,7 km/h (1 Bft) SW 223 0 min 0,000 mm 0,0 UV-I 0 W/m 9,3 C 11,6 C 3,2 km/h (1 Bft) 94,00 %
15.09.2017 23:10 11,6 C 16,1 C 87 % 1011,2 hPa 0,0 l/m 2,4 km/h (1 Bft) SW 223 0 min 0,000 mm 0,0 UV-I 0 W/m 9,5 C 11,6 C 3,2 km/h (1 Bft) 100,00 %
15.09.2017 23:12 11,5 C 16,1 C 87 % 1011,3 hPa 0,0 l/m 2,2 km/h (1 Bft) SW 223 0 min 0,000 mm 0,0 UV-I 0 W/m 9,4 C 11,5 C 3,2 km/h (1 Bft) 94,34 %
15.09.2017 23:14 11,5 C 16,1 C 87 % 1011,3 hPa 0,0 l/m 2,2 km/h (1 Bft) SW 223 0 min 0,000 mm 0,0 UV-I 0 W/m 9,4 C 11,5 C 3,2 km/h (1 Bft) 97,87 %
15.09.2017 23:16 11,4 C 16,1 C 87 % 1011,3 hPa 0,0 l/m 2,6 km/h (1 Bft) SW 223 0 min 0,000 mm 0,0 UV-I 0 W/m 9,3 C 11,4 C 3,2 km/h (1 Bft) 96,00 %
15.09.2017 23:18 11,4 C 16,1 C 87 % 1011,4 hPa 0,0 l/m 0,7 km/h (0 Bft) SW 223 0 min 0,000 mm 0,0 UV-I 0 W/m 9,3 C 11,4 C 1,6 km/h (1 Bft) 95,12 %
15.09.2017 23:20 11,4 C 16,1 C 88 % 1011,5 hPa 0,0 l/m 0,5 km/h (0 Bft) SW 223 0 min 0,000 mm 0,0 UV-I 0 W/m 9,5 C 11,4 C 3,2 km/h (1 Bft) 95,74 %
15.09.2017 23:22 11,3 C 16,1 C 88 % 1011,6 hPa 0,0 l/m 1,1 km/h (1 Bft) SW 223 0 min 0,000 mm 0,0 UV-I 0 W/m 9,4 C 11,3 C 3,2 km/h (1 Bft) 97,87 %
15.09.2017 23:24 11,3 C 16,1 C 88 % 1011,4 hPa 0,0 l/m 2,5 km/h (1 Bft) SW 223 0 min 0,000 mm 0,0 UV-I 0 W/m 9,4 C 11,3 C 3,2 km/h (1 Bft) 98,00 %
15.09.2017 23:26 11,3 C 16,1 C 88 % 1011,4 hPa 0,0 l/m 2,1 km/h (1 Bft) SW 223 0 min 0,000 mm 0,0 UV-I 0 W/m 9,4 C 11,3 C 4,8 km/h (1 Bft) 97,44 %
15.09.2017 23:28 11,2 C 16,1 C 88 % 1011,3 hPa 0,0 l/m 0,7 km/h (0 Bft) SW 223 0 min 0,000 mm 0,0 UV-I 0 W/m 9,3 C 11,2 C 3,2 km/h (1 Bft) 100,00 %
15.09.2017 23:30 11,2 C 16,1 C 88 % 1011,3 hPa 0,0 l/m 1,0 km/h (0 Bft) SW 223 0 min 0,000 mm 0,0 UV-I 0 W/m 9,3 C 11,2 C 3,2 km/h (1 Bft) 96,23 %
15.09.2017 23:32 11,2 C 16,1 C 88 % 1011,3 hPa 0,0 l/m 0,8 km/h (0 Bft) SW 223 0 min 0,000 mm 0,0 UV-I 0 W/m 9,3 C 11,2 C 1,6 km/h (1 Bft) 100,00 %
15.09.2017 23:34 11,2 C 16,1 C 88 % 1011,4 hPa 0,0 l/m 0,0 km/h (0 Bft) SW 223 0 min 0,000 mm 0,0 UV-I 0 W/m 9,3 C 11,2 C 0,0 km/h (0 Bft) 100,00 %
15.09.2017 23:36 11,2 C 16,1 C 88 % 1011,4 hPa 0,0 l/m 0,2 km/h (0 Bft) SW 223 0 min 0,000 mm 0,0 UV-I 0 W/m 9,3 C 11,2 C 1,6 km/h (1 Bft) 97,87 %
15.09.2017 23:38 11,3 C 16,1 C 87 % 1011,4 hPa 0,0 l/m 1,7 km/h (1 Bft) SW 223 0 min 0,000 mm 0,0 UV-I 0 W/m 9,2 C 11,3 C 3,2 km/h (1 Bft) 100,00 %
15.09.2017 23:40 11,3 C 16,1 C 87 % 1011,4 hPa 0,0 l/m 2,8 km/h (1 Bft) SW 223 0 min 0,000 mm 0,0 UV-I 0 W/m 9,2 C 11,3 C 3,2 km/h (1 Bft) 95,74 %
15.09.2017 23:42 11,3 C 16,1 C 87 % 1011,4 hPa 0,0 l/m 2,4 km/h (1 Bft) SW 223 0 min 0,000 mm 0,0 UV-I 0 W/m 9,2 C 11,3 C 3,2 km/h (1 Bft) 100,00 %
15.09.2017 23:44 11,3 C 16,1 C 87 % 1011,4 hPa 0,0 l/m 0,4 km/h (0 Bft) SW 223 0 min 0,000 mm 0,0 UV-I 0 W/m 9,2 C 11,3 C 1,6 km/h (1 Bft) 97,56 %
15.09.2017 23:46 11,3 C 16,1 C 87 % 1011,4 hPa 0,0 l/m 1,3 km/h (1 Bft) SW 223 0 min 0,000 mm 0,0 UV-I 0 W/m 9,2 C 11,3 C 3,2 km/h (1 Bft) 97,73 %
15.09.2017 23:48 11,3 C 16,1 C 88 % 1011,4 hPa 0,0 l/m 2,4 km/h (1 Bft) SW 223 0 min 0,000 mm 0,0 UV-I 0 W/m 9,4 C 11,3 C 3,2 km/h (1 Bft) 98,11 %
15.09.2017 23:50 11,3 C 16,1 C 88 % 1011,5 hPa 0,0 l/m 3,3 km/h (1 Bft) SW 223 0 min 0,000 mm 0,0 UV-I 0 W/m 9,4 C 11,3 C 4,8 km/h (1 Bft) 97,87 %
15.09.2017 23:52 11,3 C 16,1 C 88 % 1011,4 hPa 0,0 l/m 2,0 km/h (1 Bft) SW 223 0 min 0,000 mm 0,0 UV-I 0 W/m 9,4 C 11,3 C 4,8 km/h (1 Bft) 95,74 %
15.09.2017 23:54 11,3 C 16,1 C 87 % 1011,4 hPa 0,0 l/m 1,6 km/h (1 Bft) SW 223 0 min 0,000 mm 0,0 UV-I 0 W/m 9,2 C 11,3 C 4,8 km/h (1 Bft) 97,87 %
15.09.2017 23:56 11,3 C 16,1 C 87 % 1011,4 hPa 0,0 l/m 1,8 km/h (1 Bft) SW 223 0 min 0,000 mm 0,0 UV-I 0 W/m 9,2 C 11,3 C 4,8 km/h (1 Bft) 95,74 %
15.09.2017 23:58 11,3 C 16,1 C 87 % 1011,4 hPa 0,0 l/m 2,3 km/h (1 Bft) SW 223 0 min 0,000 mm 0,0 UV-I 0 W/m 9,2 C 11,3 C 3,2 km/h (1 Bft) 98,00 %
_ Min-Zeit 06:44 04:00 14:58 17:20 - 19:00 - - - - - - 06:12 00:50 19:00 00:02
Minimum _ 9,9 C 15,6 C 49 % 1010,8 hPa - 0,0 km/h (0 Bft) - - - - - - 5,3 C 1,9 C 0,0 km/h (0 Bft) 9,52 %
_ Max-Zeit 15:48 00:00 23:20 10:08 00:00 00:50 - - 06:52 13:00 12:28 14:06 19:12 15:50 00:50 00:34
Maximum _ 17,7 C 16,1 C 88 % 1016,3 hPa 0,0 l/m 30,3 km/h
W (5 Bft)
- - 2 min 0,407 mm 4,0 UV-I 780 W/m 9,8 C 17,6 C 49,9 km/h
W (6 Bft)
100,00 %
Durchschnitt _ 13,1 C 15,9 C 68 % 1013,7 hPa #0,0 l/m 8,5 km/h (2 Bft) SW - #8:50 h #3,404 mm 2,4 UV-I 391 W/m 7,2 C 11,3 C 13,8 km/h (3 Bft) 97,86 %